GFSSGP_prec_cloud_003.txt.gz
Cloud_Cover
100 100 100 100 100 100 91 74 100 37 16 78 5 17 55 90 86 53 91 99 100 100 25 5 59 88 80 100 100 57 100 40 5 5 4 30 64 100 100 100 100 100 100 100 100 100 100 100 100
100 93 40 90 69 91 67 20 33 30 45 34 9 8 13 7 14 28 13 82 68 97 94 74 66 86 100 10 14 43 2 7 84 67 19 21 45 98 100 100 100 100 100 100 100 100 100 100 100
75 77 95 100 100 100 100 100 100 100 100 100 100 86 71 99 100 100 61 78 100 100 90 7 2 0 0 0 1 0 4 3 52 72 100 78 98 100 100 100 100 100 100 100 100 100 100 100 100
88 96 99 100 100 100 65 82 5 17 50 97 12 4 20 100 79 76 0 0 90 55 67 18 0 0 0 0 0 2 0 1 1 0 54 42 100 96 100 100 100 100 100 100 100 100 100 100 100
14 42 80 95 4 30 47 16 7 3 30 5 14 64 0 7 7 6 28 41 3 20 37 33 0 0 0 0 0 0 4 2 0 0 0 2 33 79 96 100 100 100 100 100 100 100 100 100 100
51 83 43 8 7 11 0 0 0 5 2 0 80 3 0 4 21 3 1 0 0 3 31 16 20 0 0 0 0 0 0 0 0 0 0 0 1 2 4 100 100 100 100 100 100 100 100 100 100
5 17 10 0 0 0 0 0 0 0 5 0 8 96 17 3 2 1 1 0 0 0 0 0 0 0 0 0 0 0 0 0 0 0 0 0 0 0 0 76 100 100 100 100 100 100 100 100 100
0 0 0 0 0 0 0 0 0 0 0 0 0 41 3 0 0 0 0 0 0 0 0 0 0 3 6 19 0 0 0 0 0 0 0 0 0 0 0 0 100 100 100 100 100 100 100 100 100
0 1 0 0 0 0 0 0 0 0 0 0 0 0 2 0 0 0 0 0 0 0 0 0 0 1 0 0 0 0 0 0 1 2 0 7 87 70 0 1 52 100 100 100 100 100 100 100 100
0 0 0 0 0 0 0 2 0 0 1 0 0 3 0 0 0 0 0 0 0 0 0 0 0 0 0 0 0 23 76 7 0 6 12 1 38 89 84 23 5 95 100 100 100 100 100 100 100
0 0 0 0 0 0 0 18 2 0 0 4 4 5 72 99 87 30 4 4 0 4 0 1 2 0 4 9 54 91 2 31 12 0 0 9 6 12 31 49 12 13 70 100 100 100 100 100 100
0 0 0 0 0 0 0 0 0 0 0 0 0 0 0 0 0 4 14 16 5 5 0 3 0 0 0 7 46 62 33 0 0 0 0 3 2 12 27 79 90 100 100 100 100 100 100 100 100
0 0 0 0 0 0 0 0 0 0 0 0 0 0 0 0 0 0 0 0 0 0 0 0 0 0 0 0 0 0 0 0 0 0 0 0 0 4 9 5 45 100 100 100 100 100 100 100 100
0 0 0 0 0 0 0 0 0 0 0 0 0 0 0 0 0 0 0 0 0 0 0 0 0 0 0 0 0 0 0 0 0 0 0 0 0 0 5 57 100 100 100 100 100 100 100 100 100
0 0 0 0 0 0 0 0 0 0 0 0 0 0 0 0 0 0 0 0 0 0 0 0 0 0 0 0 0 0 0 0 2 5 3 0 0 0 5 48 26 98 100 100 100 92 100 100 100
0 0 0 0 0 0 0 0 0 0 0 0 0 0 0 0 0 0 0 0 0 1 0 0 2 0 0 0 0 0 0 0 0 0 0 0 0 0 4 66 100 52 100 100 100 100 100 100 100
0 0 0 0 0 0 0 0 0 0 0 0 1 5 5 3 3 12 6 2 5 3 5 3 3 0 4 5 5 0 5 5 5 2 0 0 0 0 0 42 100 79 48 100 100 100 100 100 100
0 0 0 0 0 0 0 0 0 0 0 4 5 5 5 22 8 20 5 12 42 34 6 8 23 68 9 5 4 15 5 2 5 5 12 3 0 0 0 5 99 100 92 40 98 100 100 100 100
0 0 0 0 0 0 0 0 0 0 5 5 5 26 35 6 21 8 26 28 24 49 5 65 97 88 98 34 84 88 94 58 18 9 7 5 3 0 0 0 2 97 100 100 49 98 100 100 100
0 0 0 0 0 0 0 0 0 1 4 5 5 24 40 17 5 26 65 50 5 31 73 80 40 33 7 14 99 100 100 100 100 96 53 52 21 3 4 0 0 2 94 100 100 91 100 100 100
0 0 0 0 0 0 0 1 0 1 4 5 16 5 5 5 5 17 17 5 30 7 5 7 40 25 95 97 93 88 100 100 100 100 100 94 91 74 6 5 5 5 5 86 100 100 47 100 100
0 0 0 0 0 2 89 97 6 89 100 97 94 34 51 6 5 5 5 5 5 5 5 5 5 11 15 60 68 34 37 100 100 100 100 100 99 100 81 100 95 77 13 7 46 99 35 15 43
5 5 3 0 5 12 92 93 32 24 72 67 98 66 20 53 31 44 76 52 52 72 68 65 56 88 32 59 95 97 100 100 100 100 100 100 100 100 100 100 100 94 100 99 84 85 98 88 67
5 26 68 5 5 5 6 85 50 17 5 99 90 93 100 100 100 100 100 90 100 100 81 99 100 100 71 88 82 100 100 100 100 100 100 100 100 100 100 100 100 100 100 100 76 89 93 87 100
31 51 4 4 6 40 5 7 37 77 70 95 100 100 100 100 100 100 93 100 100 100 100 100 100 100 100 100 100 100 100 100 100 100 100 100 100 100 100 100 100 100 100 92 100 86 30 83 100
6 47 96 100 100 100 15 3 2 4 5 5 66 100 100 100 100 100 100 100 100 100 100 100 100 100 54 100 100 97 100 99 100 100 100 100 100 100 100 100 100 100 100 100 87 68 75 16 100
5 14 95 97 100 95 98 100 100 16 5 5 16 98 100 100 100 100 100 100 100 56 100 100 69 96 55 100 100 90 87 100 100 73 100 100 99 97 84 92 100 100 100 100 100 55 5 91 44
2 4 22 80 99 100 100 100 100 10 96 97 92 100 100 100 98 98 100 100 100 100 90 90 95 100 100 100 100 100 100 100 100 100 100 100 100 100 100 97 100 100 100 100 100 80 17 14 71
5 11 29 17 37 99 100 100 100 89 76 98 100 100 100 91 75 57 88 100 100 99 100 100 96 100 100 100 100 100 100 100 100 100 100 100 100 92 74 82 97 93 90 93 94 100 100 80 5
69 12 5 65 33 38 90 100 5 94 54 100 100 100 100 100 99 87 94 73 100 100 100 100 100 100 100 100 100 100 100 100 100 100 100 100 96 92 99 83 72 97 81 8 6 6 5 5 5

GFSSGP_prec_cloud_006.txt.gz
Cloud_Cover
97 99 98 96 64 50 94 94 81 13 84 95 41 28 50 100 100 100 100 100 100 94 82 45 8 23 5 18 84 86 43 21 76 100 20 5 11 9 75 98 100 100 100 100 100 100 100 100 100
100 100 100 100 100 100 100 93 100 34 5 71 100 100 100 100 100 34 93 86 49 11 45 5 5 1 0 4 7 49 3 79 100 100 11 6 18 8 47 56 100 100 100 100 100 100 100 100 100
85 95 100 100 100 100 100 100 98 6 18 15 42 19 14 97 28 80 92 92 81 18 3 0 0 0 0 0 1 0 1 0 7 2 42 39 4 52 100 100 99 100 100 100 100 100 100 100 100
28 47 100 100 100 100 100 99 100 100 99 99 100 100 99 100 100 49 30 1 1 4 0 0 0 0 0 0 0 0 0 0 5 0 4 0 0 2 96 83 16 100 100 100 100 100 100 100 100
100 100 100 100 100 100 100 84 100 99 15 5 36 15 100 61 94 81 6 0 0 0 0 0 0 0 0 0 0 0 0 1 0 5 19 0 0 1 80 41 6 6 100 100 100 100 100 100 100
100 100 87 100 56 81 91 57 76 5 1 4 62 82 100 100 100 70 13 43 5 0 0 0 0 0 0 0 0 0 0 0 0 0 0 0 0 0 0 44 98 99 100 100 100 100 100 100 100
20 65 99 37 6 2 3 1 0 0 1 0 1 10 95 96 99 67 97 38 5 0 1 8 0 0 0 0 0 0 0 0 0 0 0 0 0 0 0 0 3 82 100 100 100 100 100 100 100
99 100 3 2 4 5 0 0 0 0 0 0 0 5 2 52 0 0 0 0 0 0 0 1 32 32 1 0 0 0 0 0 0 0 0 0 0 5 0 0 0 11 100 100 100 100 100 100 100
68 74 21 0 0 0 0 0 0 0 0 0 0 0 0 0 0 0 0 0 0 0 0 0 0 0 1 1 0 0 0 0 0 0 0 0 4 4 91 58 10 2 100 100 100 100 100 100 100
27 87 0 0 0 0 0 0 0 0 0 0 0 0 0 0 2 2 0 13 2 0 0 0 0 0 0 2 0 57 34 2 50 74 0 22 59 89 86 48 8 0 91 100 100 100 100 100 100
0 0 0 0 0 0 0 0 0 0 0 0 0 0 0 0 0 3 7 6 0 0 5 4 0 0 0 22 15 98 32 16 35 10 43 12 0 0 0 100 50 84 20 68 100 100 100 100 100
0 0 0 0 0 0 0 0 0 0 0 0 0 0 0 0 0 0 0 0 0 0 0 0 0 0 0 0 3 11 0 0 0 0 0 0 0 0 0 24 5 0 0 69 95 100 100 100 100
0 0 0 0 0 0 0 0 0 0 0 0 0 0 0 0 0 0 0 0 0 0 0 0 0 0 0 0 0 0 0 0 0 0 0 0 0 0 0 0 0 0 9 13 3 10 100 100 100
0 0 0 0 0 0 0 0 0 0 0 0 0 0 0 0 0 0 0 0 0 0 0 0 0 0 0 0 0 0 0 0 0 0 2 0 0 0 2 0 0 0 0 1 17 34 83 100 100
0 0 0 0 0 0 0 0 0 0 0 0 0 0 0 0 0 0 0 0 0 2 1 0 5 0 1 0 0 0 0 2 5 4 4 5 5 1 0 0 0 0 0 0 1 5 5 100 100
0 0 0 0 0 0 0 0 0 0 0 0 0 0 0 0 3 3 5 5 5 5 5 5 5 2 1 3 1 3 5 26 17 30 94 88 98 100 34 15 0 0 0 0 0 3 5 99 100
2 0 0 0 0 0 0 0 0 0 0 2 4 1 0 0 3 0 4 5 5 14 28 19 5 5 5 5 5 6 3 4 5 4 16 83 77 100 100 100 99 66 1 0 0 0 5 5 98
0 0 0 3 0 0 0 0 0 0 0 0 5 5 2 2 0 0 5 5 5 5 6 14 26 31 39 46 6 5 6 21 6 4 2 100 100 100 100 100 100 94 9 5 1 0 3 59 7
0 0 0 0 0 0 0 0 0 0 1 5 5 5 5 5 5 5 5 5 5 5 5 5 12 36 61 33 38 5 5 5 12 26 5 5 20 99 100 100 100 100 72 45 5 0 0 5 49
0 0 0 0 0 0 0 0 0 2 5 5 48 29 5 14 35 34 30 100 97 86 100 61 44 87 100 100 100 100 100 100 63 26 10 58 5 38 5 70 100 100 25 70 5 5 3 4 3
0 0 0 0 0 0 0 3 5 2 2 5 20 43 91 100 100 100 100 82 100 100 100 100 100 100 98 100 100 63 75 100 100 100 87 5 5 5 8 39 8 14 8 38 99 100 50 5 5
0 0 0 0 1 5 1 0 0 0 0 2 50 30 88 15 35 12 100 100 100 100 100 100 100 100 100 50 100 100 100 99 100 100 100 37 37 50 38 30 52 95 56 93 100 100 100 100 25
0 0 0 0 0 0 0 1 0 5 0 5 6 50 100 100 100 100 100 100 100 100 100 100 100 100 100 91 84 100 100 100 100 100 100 100 100 100 77 26 87 98 98 21 53 74 96 100 100
0 5 5 5 4 15 0 1 0 15 18 5 6 94 100 100 100 100 100 100 100 100 91 88 24 100 100 76 100 100 100 100 100 100 100 100 100 100 100 100 96 98 100 98 64 66 100 100 92
5 2 5 5 43 64 80 9 3 1 3 5 8 99 100 100 100 100 100 100 100 97 85 18 17 100 100 100 100 100 100 100 100 100 100 100 100 100 100 100 100 100 98 100 100 100 100 100 100
5 5 9 99 100 100 100 77 93 41 89 6 9 59 100 100 100 100 70 100 100 100 97 9 5 7 46 100 100 100 100 100 100 100 100 100 100 100 100 100 100 100 100 100 100 100 100 99 100
5 32 5 5 44 58 99 98 100 92 88 96 52 26 99 100 64 9 84 83 78 48 56 60 84 53 100 100 100 100 100 100 100 100 100 100 100 100 100 100 100 100 100 100 100 100 100 100 100
5 5 5 29 45 62 10 57 100 21 81 86 86 100 16 18 16 93 43 31 24 6 5 5 33 100 100 100 100 100 100 100 100 100 100 100 100 100 100 100 100 100 100 100 100 90 59 67 100
5 2 50 100 98 99 78 100 9 8 6 28 55 45 10 61 32 80 96 95 5 5 5 55 80 100 100 100 100 100 100 100 100 100 99 100 100 100 100 100 100 100 100 100 90 79 42 24 50
7 11 80 100 75 93 58 97 3 34 99 88 100 96 100 100 88 95 45 16 100 7 85 91 35 100 100 100 100 100 100 100 100 100 100 100 100 100 100 100 100 100 100 100 47 29 38 5 5

GFSSGP_prec_cloud_009.txt.gz
Cloud_Cover
100 100 81 95 95 94 77 81 100 92 100 100 98 100 99 84 100 100 100 100 100 97 99 78 100 100 93 84 100 69 89 100 100 53 100 9 8 15 0 9 13 100 100 100 100 100 100 100 100
82 68 100 100 100 59 78 95 99 100 100 100 9 36 54 100 100 100 100 98 100 100 100 100 49 37 18 5 4 62 86 95 71 98 73 99 11 3 16 66 4 99 68 43 100 100 100 100 100
96 100 100 100 100 100 100 100 33 100 100 100 100 100 100 100 100 100 67 23 23 65 96 99 2 0 5 5 4 0 0 0 0 3 24 2 4 10 100 31 0 48 5 8 100 100 100 100 100
100 100 100 100 100 100 100 100 100 100 100 100 100 100 43 41 16 35 96 100 100 5 6 48 56 94 17 5 5 5 14 0 0 0 0 5 0 51 71 7 0 5 5 59 100 100 100 100 100
100 100 100 100 100 100 94 93 98 77 100 87 28 5 50 55 100 100 98 62 55 92 100 66 35 1 0 0 4 32 31 0 0 0 0 0 3 30 8 0 3 4 5 100 100 100 100 100 100
100 100 100 100 38 99 40 58 57 100 89 57 12 8 68 100 100 100 100 100 100 89 86 7 0 0 22 40 2 0 0 0 0 0 0 0 0 0 0 0 2 0 5 100 100 100 100 100 100
99 97 100 41 40 42 90 100 52 82 77 1 0 2 0 100 100 100 86 100 100 52 11 0 0 0 0 0 0 0 0 0 0 0 0 0 0 0 2 0 0 7 0 35 98 100 100 100 100
13 6 35 55 99 100 100 94 0 0 0 0 0 0 0 0 100 50 7 0 0 0 0 0 0 0 0 0 0 0 0 0 0 0 0 0 0 0 0 0 0 1 0 0 52 100 100 100 100
100 100 100 100 99 51 36 1 0 0 0 0 0 0 0 0 30 12 0 0 0 0 0 0 0 0 0 0 0 0 0 0 0 0 0 0 6 0 30 67 0 0 0 0 0 75 100 100 100
92 83 81 3 2 16 0 0 0 0 0 0 0 0 0 0 0 0 0 0 2 2 0 0 0 0 0 0 0 0 2 5 2 6 4 0 0 0 0 0 0 0 0 0 0 23 100 100 100
100 97 0 0 0 0 0 0 0 0 0 0 0 0 0 0 0 0 0 0 0 0 0 0 0 0 0 0 0 0 0 0 0 0 0 0 0 0 5 18 1 4 0 0 0 0 100 100 100
0 0 0 0 0 0 0 0 0 0 0 0 0 0 0 0 0 0 0 0 0 0 0 0 0 0 0 0 0 0 0 0 0 1 1 0 0 0 0 0 26 0 0 1 0 9 46 100 100
0 0 0 0 0 0 0 0 0 0 0 0 0 0 0 0 0 0 0 0 0 0 0 0 0 1 2 2 2 14 20 6 1 5 5 5 12 76 26 3 1 2 1 2 10 35 18 83 90
0 0 0 0 0 0 0 0 0 0 0 0 0 0 0 0 0 0 0 0 0 0 0 0 0 0 5 2 5 17 5 5 3 9 3 4 1 10 11 5 5 4 2 5 5 2 4 15 97
0 0 0 0 0 0 0 0 0 0 0 0 0 0 0 0 0 0 0 0 0 4 1 0 0 5 14 27 62 5 5 28 7 5 5 5 4 1 5 56 100 10 99 98 86 93 4 1 3
0 0 0 0 0 0 0 0 0 0 0 0 0 0 0 0 0 0 3 4 5 5 7 6 7 5 39 71 91 99 22 45 30 10 6 5 5 5 5 4 50 58 5 27 88 100 73 16 5
0 0 0 0 0 0 0 0 0 0 0 1 4 0 6 13 11 4 5 62 81 98 100 100 100 100 100 100 100 100 100 94 100 100 99 71 9 9 5 5 5 5 5 6 59 29 100 84 92
0 0 0 0 0 0 0 0 0 0 0 0 3 1 83 100 100 100 100 100 100 100 100 100 100 100 100 100 100 100 100 95 63 10 32 99 95 41 88 32 5 5 3 4 2 4 41 5 7
0 0 0 0 0 0 0 0 0 0 0 0 0 37 100 100 100 100 100 100 100 100 100 22 5 56 92 90 100 53 72 98 5 5 87 100 94 15 100 90 12 5 5 5 5 5 5 5 5
0 0 0 0 0 0 0 0 0 0 0 5 5 4 2 36 86 86 8 46 16 5 5 5 6 5 5 9 38 50 24 57 100 100 98 5 28 69 100 100 96 55 73 11 5 5 5 5 5
0 0 0 0 0 0 0 0 0 0 0 0 0 1 48 100 49 100 44 5 31 94 90 64 5 5 5 5 28 18 5 68 100 100 14 37 99 84 99 100 100 100 99 98 5 5 5 5 5
0 0 0 0 0 1 4 0 0 1 0 1 17 7 78 100 100 100 100 100 40 65 60 49 21 5 6 5 5 5 5 6 36 100 99 100 100 100 88 98 95 100 100 99 93 100 66 60 7
0 0 0 0 0 5 0 0 0 0 1 2 85 7 41 100 99 100 100 100 99 26 100 96 89 100 94 68 5 5 5 38 100 100 100 100 99 100 100 100 100 100 100 99 88 57 30 100 100
0 0 0 0 1 0 3 32 23 0 3 4 31 54 5 5 6 88 100 100 100 100 100 100 100 98 98 96 92 66 84 100 100 100 98 83 80 96 100 100 100 100 100 100 100 100 100 100 72
0 2 0 0 3 85 5 66 88 1 30 97 92 27 5 5 7 33 57 99 100 100 100 67 100 100 58 6 19 25 84 95 100 100 100 100 100 100 100 100 100 100 100 100 100 100 100 100 100
0 0 4 3 9 100 43 92 100 4 65 8 54 44 5 5 5 19 48 85 85 14 6 15 74 68 59 5 5 5 5 5 45 100 100 100 100 100 100 100 100 100 100 100 100 100 100 100 100
5 1 1 5 2 5 69 95 100 4 5 95 25 38 80 6 73 96 100 99 97 5 5 82 64 32 5 5 5 42 74 99 94 98 100 100 100 100 100 100 100 100 100 100 100 100 100 100 100
5 5 3 19 32 59 5 38 3 5 0 68 97 83 29 76 60 35 41 23 20 36 6 78 91 5 5 12 96 100 100 100 100 100 99 100 100 100 100 100 100 100 100 100 100 100 100 100 100
25 12 91 99 100 100 100 93 37 39 5 5 74 98 57 46 83 59 50 95 71 68 100 56 60 29 5 100 100 100 100 100 100 100 100 100 100 100 100 100 100 100 100 100 100 100 100 99 83
5 15 9 63 54 25 94 100 100 5 5 5 94 25 76 94 97 88 87 83 88 78 88 81 98 100 100 100 100 100 100 100 100 100 100 100 100 100 100 100 100 100 100 100 100 100 93 47 99

GFSSGP_prec_cloud_012.txt.gz
Cloud_Cover
55 93 65 91 33 74 100 98 100 100 98 75 100 100 100 100 100 100 100 100 100 100 100 100 100 100 100 100 100 100 100 54 89 78 100 100 48 95 18 99 100 24 6 10 100 100 98 98 100
56 98 94 29 100 100 100 100 100 100 100 100 100 100 100 100 100 100 100 58 55 77 91 90 96 63 100 100 100 86 5 5 3 0 11 35 73 6 63 94 63 42 14 8 91 100 56 98 100
100 67 29 100 100 100 100 100 100 100 100 100 100 100 100 100 100 26 52 17 33 74 94 100 59 100 100 100 99 74 41 26 33 5 4 1 0 0 0 51 48 89 51 3 0 100 64 94 100
88 34 80 100 100 100 100 99 100 100 100 100 100 100 100 100 95 18 7 18 100 100 35 48 99 100 100 100 85 99 50 62 2 0 0 5 3 0 0 5 5 49 100 98 22 54 100 100 100
78 76 100 100 100 100 100 100 100 100 100 100 100 64 98 61 100 95 93 100 48 65 100 100 100 100 100 14 36 12 1 1 0 0 0 0 3 1 0 2 4 0 0 0 26 88 64 100 100
100 100 100 100 100 100 88 100 100 100 100 100 52 32 100 100 64 19 86 70 100 100 100 100 100 100 43 4 0 0 0 0 0 0 0 0 1 0 0 0 0 0 0 0 0 66 25 100 100
100 100 100 100 100 94 100 76 76 57 76 97 100 99 16 13 0 57 100 100 100 100 100 100 91 1 0 0 0 0 0 0 0 0 0 0 0 0 0 0 0 0 0 0 0 3 14 100 100
100 100 16 40 100 100 100 100 100 76 88 5 0 0 0 0 0 5 98 100 100 94 90 0 0 0 0 0 0 0 0 0 0 0 0 0 0 0 0 0 0 0 0 0 0 0 6 100 100
94 99 93 100 100 100 100 54 56 6 0 0 0 0 0 0 0 0 0 18 20 0 0 0 0 0 0 0 0 0 0 0 0 0 0 0 1 3 0 0 0 0 0 0 0 0 35 100 100
76 98 100 100 100 86 30 19 5 0 0 0 0 0 0 0 0 0 0 0 0 1 0 0 0 0 0 0 0 0 0 0 0 0 1 2 5 0 0 0 0 4 0 0 0 0 0 22 100
76 52 91 42 33 59 91 0 0 0 0 0 0 0 0 0 0 0 0 0 0 0 0 0 0 0 0 0 0 1 0 0 0 3 5 4 5 2 3 9 16 10 1 3 0 0 0 0 35
14 3 5 5 1 0 0 0 0 0 0 0 0 0 0 0 0 0 0 0 0 0 0 0 0 0 2 0 1 1 0 5 2 5 14 27 5 1 5 11 3 5 3 4 1 13 6 0 0
0 0 0 0 0 0 0 0 0 0 0 0 0 0 0 0 0 0 0 0 3 5 5 5 5 5 5 11 81 13 19 5 18 53 16 5 6 3 5 4 4 0 0 1 2 50 78 19 17
0 0 0 0 0 0 0 0 0 0 0 0 0 0 0 0 0 0 0 3 4 5 5 5 10 8 37 74 100 100 100 93 25 5 29 6 46 91 97 85 42 10 10 75 19 3 0 0 1
0 0 0 0 0 0 0 0 0 0 0 0 0 0 0 0 0 3 3 3 5 5 49 100 99 74 69 6 74 80 100 100 100 100 17 24 60 87 77 53 5 5 32 23 9 5 15 5 5
0 0 0 0 0 0 0 0 0 0 0 0 0 5 94 22 56 58 40 96 100 100 100 100 100 80 95 81 64 98 100 85 99 99 6 24 86 38 100 34 15 40 69 50 13 18 5 0 0
0 0 0 0 0 0 0 0 0 0 0 0 1 9 48 16 16 42 54 50 48 59 75 94 100 99 92 98 92 72 92 98 100 100 81 43 100 99 94 71 10 38 95 47 24 7 5 5 2
0 0 0 0 0 0 0 0 0 0 0 0 2 99 100 100 100 100 100 100 92 41 14 5 64 14 8 22 32 5 20 18 5 21 50 76 94 31 5 97 100 100 100 99 47 8 5 5 5
0 0 0 0 0 0 0 0 0 0 0 0 4 0 0 81 100 100 100 100 60 5 5 5 5 5 5 5 5 5 5 5 5 5 5 5 5 5 5 5 66 88 96 19 18 5 32 11 34
0 0 0 0 0 0 0 0 0 0 0 0 0 0 0 18 44 0 2 72 16 5 6 5 5 5 6 52 8 42 69 27 8 5 5 29 18 5 49 14 5 5 72 83 21 5 38 16 5
0 0 0 0 0 0 0 0 0 0 0 0 0 0 0 0 4 2 0 0 2 4 16 14 15 5 12 55 29 8 16 18 9 5 5 16 32 14 32 76 66 87 98 95 58 81 100 100 100
0 0 0 0 0 0 0 0 0 0 1 4 95 59 12 5 5 43 64 5 5 9 55 19 76 83 58 11 6 5 5 5 5 5 5 5 5 5 5 43 99 100 100 100 93 81 100 100 100
0 0 0 0 0 0 0 0 1 0 0 0 1 77 27 6 11 83 12 5 5 5 5 7 68 85 100 100 100 100 76 84 28 32 5 5 5 5 5 10 79 89 86 90 100 100 100 100 74
0 0 0 0 0 0 0 0 5 5 2 6 6 5 64 99 28 6 5 22 19 8 85 83 100 100 100 100 100 100 100 100 81 10 5 5 5 22 65 99 100 99 74 76 100 100 100 100 100
0 0 0 0 3 0 3 0 0 4 17 14 30 98 100 49 82 39 7 6 68 100 93 97 100 100 100 84 90 89 45 18 6 5 5 8 76 91 100 100 100 100 100 100 100 99 76 100 100
0 0 0 0 5 3 0 0 0 0 0 5 7 65 90 29 8 42 9 5 5 38 31 82 100 74 81 98 100 84 6 5 5 5 9 5 15 93 75 100 100 100 100 100 100 98 100 100 100
5 5 4 1 5 5 5 7 20 2 3 96 100 67 56 56 5 84 96 7 96 58 89 100 75 21 85 25 5 5 56 100 100 98 69 86 94 100 100 100 100 100 100 100 100 100 100 100 100
5 5 5 5 5 55 24 100 94 5 4 42 78 88 100 66 92 54 69 46 8 27 39 34 44 26 45 5 5 6 16 80 72 15 41 48 97 100 100 100 100 100 100 100 100 100 100 100 100
13 6 16 47 64 95 86 100 0 3 5 57 11 5 5 5 76 40 93 84 53 37 39 98 71 44 54 90 100 98 25 6 5 5 40 31 92 100 100 100 100 100 100 100 100 100 100 100 100
62 99 37 89 86 82 84 100 39 3 72 11 5 5 24 84 50 28 5 12 98 100 99 58 62 100 60 61 6 1 5 5 5 5 82 93 89 95 100 100 100 100 100 100 100 100 100 100 100

GFSSGP_prec_cloud_015.txt.gz
Cloud_Cover
100 100 100 100 100 100 100 100 100 12 14 12 100 97 66 74 60 100 88 96 100 100 100 100 100 100 96 92 100 100 100 97 6 22 9 62 12 96 8 27 2 3 5 9 100 5 4 100 100
100 100 100 100 100 100 94 98 100 99 100 100 100 58 76 100 100 100 100 100 100 100 100 100 100 98 100 100 100 100 100 71 93 100 100 5 5 5 2 2 4 61 33 5 5 42 3 29 100
17 88 100 100 100 100 96 96 100 100 100 100 100 84 100 100 100 100 100 96 44 99 86 12 27 99 100 100 100 100 100 100 100 100 66 19 16 6 12 7 0 1 2 4 52 95 36 7 63
81 100 100 100 40 100 100 79 100 100 99 96 100 100 100 100 100 100 100 100 70 5 31 81 98 96 69 100 100 100 100 100 56 52 89 22 54 1 0 0 94 12 14 13 12 100 99 74 4
100 100 100 100 90 100 100 94 100 100 100 100 100 100 100 100 100 100 100 21 58 61 50 54 23 47 100 100 100 27 59 100 100 22 2 0 0 0 0 0 0 0 0 0 4 0 2 9 8
100 100 100 100 100 100 100 100 100 100 100 100 100 100 100 100 100 100 77 1 3 11 76 93 100 100 100 100 62 35 28 7 0 0 0 13 5 0 0 0 0 0 0 0 0 0 0 0 0
100 100 100 100 100 100 100 100 100 100 100 94 100 100 100 100 70 4 2 5 61 74 100 100 100 100 72 0 0 0 0 0 0 0 0 0 0 0 0 0 0 4 12 10 0 0 0 0 0
100 100 100 100 100 100 100 100 100 100 100 99 100 99 14 5 3 1 0 0 0 86 97 40 0 0 0 0 0 0 0 0 0 0 0 0 0 0 0 0 0 1 0 1 2 0 12 0 0
100 100 100 100 100 100 90 98 100 100 98 42 4 0 4 3 0 0 0 0 0 0 0 0 0 0 0 0 0 0 0 0 0 0 0 0 0 0 0 0 0 0 0 0 0 0 0 0 0
74 90 100 100 100 100 98 100 100 28 0 0 0 0 0 0 0 0 0 0 0 0 0 0 0 0 0 0 0 0 0 0 0 0 16 6 0 0 0 0 0 0 0 0 0 0 0 0 0
100 100 98 100 100 100 100 78 4 0 0 0 0 0 0 0 0 0 0 0 0 0 0 0 0 1 4 0 3 4 4 12 2 0 5 8 13 7 9 18 19 0 2 2 4 5 7 4 3
82 90 100 100 47 8 2 0 0 0 0 0 0 0 0 0 0 0 0 0 0 7 16 24 5 9 58 89 100 100 100 100 82 89 47 94 53 30 68 94 72 35 35 4 1 15 7 0 0
100 100 90 33 3 13 0 0 0 0 0 0 0 0 0 0 0 0 0 0 0 5 82 100 84 40 87 100 100 100 100 100 90 54 40 5 57 64 66 88 100 100 100 100 100 93 49 29 1
50 1 0 0 0 0 0 0 0 0 0 0 0 0 0 0 1 3 10 6 5 5 5 5 45 69 100 38 39 27 39 13 5 5 23 38 14 16 39 68 100 98 88 83 66 74 92 100 100
0 0 0 0 0 0 0 0 0 0 0 0 0 4 0 5 5 5 47 99 98 20 5 5 5 5 7 10 8 5 5 6 5 5 5 5 5 5 5 5 5 7 12 34 17 60 33 5 8
0 0 0 0 0 0 0 0 0 0 0 0 0 0 0 0 5 50 36 90 50 6 5 5 2 3 5 5 5 5 5 5 5 5 5 5 5 5 5 5 5 5 5 5 5 5 5 5 5
0 0 0 0 0 0 0 0 0 0 0 0 0 0 0 0 1 0 1 46 30 4 5 5 5 5 5 5 4 3 5 5 5 5 5 5 5 5 5 5 5 5 5 13 21 24 14 2 1
0 0 0 0 0 0 0 0 0 0 0 0 0 0 0 0 2 5 9 5 5 4 0 0 0 0 0 1 5 5 5 5 55 81 72 15 5 7 5 5 5 5 17 49 85 62 8 3 5
0 0 0 0 0 0 0 0 0 0 0 0 0 0 0 0 1 5 5 0 0 0 0 0 0 5 5 5 5 5 5 72 71 30 78 37 26 5 5 5 5 5 5 5 5 5 4 5 5
0 0 0 0 0 0 0 0 0 0 0 0 0 0 0 0 0 0 1 1 3 0 4 0 0 2 5 5 5 4 5 5 5 4 8 46 58 58 50 14 5 5 5 5 5 5 5 5 5
0 0 0 0 0 0 0 0 0 0 0 0 0 0 2 4 4 2 5 4 1 0 2 3 5 3 4 5 5 20 5 0 0 4 2 3 2 5 5 5 5 5 6 5 5 5 51 82 91
0 0 0 0 0 0 0 0 5 0 0 1 0 0 0 0 0 15 5 5 5 5 5 61 95 100 100 100 100 100 100 100 100 100 100 92 53 76 61 5 41 91 90 83 69 7 5 18 63
0 0 0 0 0 0 0 0 0 4 0 2 9 32 42 57 86 84 6 6 30 82 100 100 98 100 100 100 100 98 99 100 100 99 92 16 18 5 5 6 80 95 100 100 96 82 45 80 96
0 0 0 0 0 0 0 0 0 0 46 100 99 97 100 100 25 20 18 100 100 100 100 82 25 23 6 28 40 45 5 24 7 5 5 16 8 4 2 5 5 67 100 90 100 88 100 98 100
0 0 2 0 3 0 5 0 0 0 5 95 98 43 86 95 73 76 66 39 86 86 36 5 5 5 5 5 6 44 26 10 12 0 4 4 0 0 0 2 5 39 100 100 75 91 100 100 100
0 0 3 0 5 7 5 5 5 4 3 6 92 67 5 5 66 62 5 42 8 5 5 5 5 16 16 12 12 20 14 13 5 5 0 0 0 0 0 0 3 84 100 98 100 100 100 100 100
0 0 0 0 5 13 96 60 5 0 3 3 0 2 5 5 5 5 5 5 5 5 5 4 5 5 5 1 2 27 60 25 4 0 0 0 0 0 1 5 5 71 84 100 100 100 100 100 100
0 0 0 5 22 98 86 100 76 1 3 24 92 26 56 9 13 8 42 5 5 5 5 5 5 6 25 12 20 5 5 0 0 0 0 0 4 5 5 25 100 100 100 100 100 100 100 100 100
5 3 5 5 8 23 58 75 5 29 5 13 5 11 10 5 3 5 5 5 5 11 51 51 5 9 70 73 5 5 2 4 0 2 4 5 5 5 86 92 96 100 100 100 100 100 100 100 100
12 5 5 76 50 8 19 26 5 2 5 3 5 5 0 3 5 5 5 40 84 56 98 87 97 100 100 55 5 10 42 3 0 5 5 69 94 98 100 96 77 100 100 100 100 100 100 100 100

GFSSGP_prec_cloud_018.txt.gz
Cloud_Cover
74 54 78 99 100 100 83 100 100 98 98 96 100 99 97 30 70 99 98 97 83 61 100 100 100 100 100 100 100 94 28 100 100 100 100 100 100 99 92 86 91 99 100 67 34 64 80 2 100
100 98 95 95 100 100 100 64 100 100 96 100 100 88 19 68 92 100 94 90 100 100 100 100 100 100 100 100 100 68 5 92 99 82 41 62 100 100 96 80 37 100 48 9 100 100 84 73 100
100 76 85 100 94 38 74 5 76 75 100 100 98 100 100 100 49 100 100 100 100 100 100 100 100 100 100 43 97 99 83 81 100 100 94 100 100 100 93 87 72 94 100 99 42 18 2 1 12
99 100 7 69 10 5 5 24 100 100 93 61 100 63 100 100 100 100 100 100 96 88 73 5 6 71 100 5 94 84 20 11 100 100 93 66 22 7 1 2 7 1 0 0 22 7 0 0 0
100 34 5 2 5 11 83 97 100 100 100 100 100 100 100 100 100 96 100 79 43 100 99 14 14 86 31 5 42 19 5 100 4 2 3 0 0 0 0 0 0 0 0 0 37 0 0 0 0
89 38 6 31 78 100 100 100 100 100 100 100 100 100 100 100 100 100 100 100 100 89 4 44 19 59 2 5 5 5 2 0 0 0 0 4 0 0 0 0 0 0 0 0 0 0 0 0 0
79 30 30 84 100 100 100 100 100 100 100 100 100 100 100 100 100 100 94 5 5 1 0 0 2 1 0 0 0 0 0 0 0 0 0 0 0 0 0 4 28 34 28 27 12 1 7 47 18
99 100 95 100 100 100 100 94 100 100 100 100 100 100 100 100 100 44 0 0 0 0 0 0 0 0 0 0 0 0 0 0 0 0 0 0 0 0 0 0 2 0 0 5 4 12 0 0 0
100 100 100 100 100 100 100 100 100 100 100 100 100 100 100 77 10 1 0 0 0 0 0 0 0 0 0 0 0 0 0 0 0 0 0 2 3 1 0 0 0 0 0 0 0 0 2 0 0
74 95 100 100 100 100 100 100 100 100 100 100 100 28 5 3 2 0 0 0 0 0 0 0 0 0 0 0 5 4 5 6 8 6 5 5 5 5 5 5 4 2 0 0 0 0 1 5 5
96 100 100 100 100 100 99 100 100 100 99 30 8 0 0 0 0 0 0 0 0 0 0 0 1 1 5 0 0 5 5 5 4 4 22 19 20 7 6 13 17 24 52 48 4 2 6 0 0
100 100 50 75 100 100 99 96 100 92 43 2 0 0 0 0 0 0 0 0 0 0 4 5 5 36 20 6 5 5 7 6 10 5 35 39 34 40 16 25 17 72 100 85 16 90 97 54 17
68 100 100 100 100 74 32 2 0 0 3 0 0 0 0 0 0 0 0 1 5 5 5 5 5 4 4 5 3 1 1 4 0 1 5 5 7 6 10 19 14 16 30 41 11 15 34 42 96
2 18 50 58 2 3 0 0 0 0 0 0 0 0 0 0 0 0 0 27 70 12 5 9 4 0 2 2 0 1 4 5 5 5 5 5 5 5 5 14 6 37 24 8 29 8 69 98 68
0 0 0 0 0 0 0 0 0 0 0 0 0 0 0 0 0 4 9 15 93 10 1 0 5 0 0 2 2 3 5 5 5 5 5 16 46 32 5 7 5 5 5 5 5 5 5 5 10
0 0 0 0 0 0 0 0 0 0 0 0 0 0 0 0 1 5 4 2 33 5 0 0 0 0 0 5 5 5 0 0 2 5 5 49 17 5 5 5 5 5 5 5 5 5 5 5 5
0 0 0 0 0 0 0 0 0 0 0 0 0 0 0 0 0 0 0 0 0 0 0 0 0 0 0 0 4 0 1 1 1 0 0 0 0 0 3 5 5 6 5 5 5 5 5 5 3
0 0 0 0 0 0 0 0 0 0 0 0 0 0 0 0 0 0 0 0 0 0 0 0 2 5 5 5 5 5 2 5 5 4 5 5 4 0 4 4 0 3 5 5 5 7 5 5 5
0 0 0 0 0 0 0 0 0 0 0 0 0 0 0 0 0 0 0 0 0 0 0 0 3 5 5 5 11 12 5 5 5 2 0 0 0 4 2 0 0 0 1 3 1 0 0 0 0
0 0 0 0 0 0 0 0 0 0 0 0 0 0 0 0 1 1 0 0 0 0 2 2 5 58 63 62 72 5 5 5 14 63 45 16 2 3 4 5 5 6 5 5 5 5 5 4 1
0 0 0 0 0 0 0 0 0 0 0 0 5 18 5 5 1 1 4 0 0 4 5 5 5 26 82 21 68 83 99 65 6 5 30 98 31 8 2 26 35 46 30 18 5 5 5 5 5
0 0 0 0 0 0 0 0 0 0 0 0 0 8 70 80 5 0 2 3 3 3 5 5 6 80 91 87 10 5 5 5 5 5 5 5 4 0 0 0 0 0 4 5 18 91 95 90 5
0 0 0 0 0 0 0 0 0 0 0 5 14 12 58 10 5 3 6 9 5 6 31 89 100 81 5 5 36 44 5 5 4 0 0 0 0 0 0 0 0 0 4 4 49 99 100 100 100
0 0 0 0 0 0 0 0 3 0 5 70 75 18 5 5 5 11 79 76 31 33 88 17 7 5 36 57 38 66 5 5 0 2 0 0 0 0 0 0 0 0 0 0 5 50 100 100 100
0 0 1 0 4 4 0 1 0 0 0 4 5 1 2 5 54 30 5 96 93 70 90 86 88 89 100 100 100 100 93 5 5 5 5 5 2 0 0 0 0 0 0 0 0 5 91 87 100
0 0 4 0 5 3 0 4 0 0 0 2 2 5 5 5 3 5 9 10 73 100 100 94 96 100 100 93 77 53 5 16 55 69 26 5 5 5 28 0 0 1 2 5 35 94 100 100 100
0 0 0 0 3 4 4 4 0 0 0 0 0 4 5 0 0 5 5 31 100 100 100 100 100 100 100 43 12 33 86 100 100 100 80 49 5 19 14 12 5 5 24 60 100 100 100 100 100
0 0 0 1 4 5 2 5 0 1 2 2 4 1 2 5 20 20 19 9 5 33 82 100 100 54 5 5 10 21 75 92 100 100 71 96 100 99 100 24 27 37 88 98 100 100 100 100 100
0 3 5 2 4 25 60 38 2 5 19 17 60 27 16 52 18 47 17 5 5 5 37 5 37 33 49 64 13 50 14 5 5 5 5 7 51 80 17 77 100 75 100 74 67 100 100 100 100
0 5 5 3 5 5 56 47 5 5 36 28 70 50 56 70 62 19 5 5 15 5 5 5 10 6 79 65 5 75 100 82 5 65 100 100 96 84 100 99 100 100 100 100 100 100 100 100 100

GFSSGP_prec_cloud_024.txt.gz
Cloud_Cover
98 100 100 100 100 78 99 95 48 96 100 80 56 91 50 92 12 28 36 5 40 7 11 13 14 99 100 100 100 100 100 100 100 100 12 98 2 4 97 74 95 45 47 51 80 17 8 37 100
100 100 100 99 100 97 76 93 59 95 98 100 70 24 89 86 25 36 12 5 9 18 100 100 100 100 100 100 100 100 100 100 19 77 4 2 3 4 5 69 100 100 100 100 62 69 78 76 99
100 100 100 100 99 86 84 13 53 98 53 5 5 10 88 14 20 69 31 6 100 100 100 100 100 100 100 100 100 99 100 79 27 0 0 0 3 5 23 57 40 99 65 2 5 27 21 9 36
100 100 100 100 74 14 63 74 6 10 5 5 9 79 39 5 7 100 100 98 100 100 100 100 100 100 100 100 97 4 5 3 4 0 0 0 0 0 0 0 0 0 0 0 0 29 25 1 0
74 95 76 100 100 100 100 94 13 5 17 46 5 36 33 92 85 100 100 100 100 96 100 100 100 100 100 10 4 2 0 0 0 0 2 25 30 17 0 0 0 0 0 0 0 0 5 0 0
100 100 82 100 100 100 78 54 72 9 5 5 5 15 100 100 100 100 100 100 100 100 98 100 100 100 20 0 0 0 0 0 0 0 0 0 0 0 0 0 0 0 0 0 0 0 2 15 14
100 100 100 98 90 43 5 4 5 5 27 7 77 98 100 100 100 100 100 100 100 100 100 94 27 1 0 0 0 0 0 0 0 0 0 0 0 0 0 0 4 20 30 38 52 2 0 0 0
100 100 100 100 22 6 5 9 5 87 100 93 100 100 100 100 100 100 100 100 96 100 5 0 0 0 0 0 0 0 0 0 0 0 0 0 3 0 0 0 0 0 10 18 0 0 5 2 0
100 100 75 65 100 35 53 100 93 100 100 100 100 100 100 100 100 100 100 67 96 36 0 0 0 0 0 0 3 0 3 0 7 0 0 12 0 3 8 14 0 0 0 0 0 0 0 1 4
100 100 99 25 88 99 98 100 100 100 100 100 100 100 100 100 100 100 92 3 0 0 0 0 0 0 0 0 0 0 0 0 0 0 0 0 0 0 0 0 0 0 0 0 0 0 0 0 5
100 88 83 90 42 95 95 100 100 100 100 100 100 100 100 74 98 99 2 0 0 0 0 0 0 0 0 0 0 0 0 0 0 0 0 0 0 1 3 2 4 0 0 0 0 0 0 0 0
79 46 45 98 100 100 100 100 100 100 100 100 100 100 100 87 13 0 0 0 0 0 0 0 0 0 0 0 0 0 0 0 0 0 0 0 0 12 13 1 4 2 2 5 5 1 0 0 0
63 86 79 77 92 100 100 100 100 100 100 100 82 72 38 19 1 0 0 0 0 0 0 0 0 0 0 0 0 0 0 0 0 0 0 0 0 0 0 0 0 0 0 0 4 4 5 0 0
100 100 100 100 100 100 100 100 100 100 100 52 0 1 14 0 0 0 0 0 0 0 0 0 0 0 0 0 0 0 0 0 0 0 0 0 0 0 0 0 0 0 0 0 0 0 0 0 1
3 42 100 100 100 100 98 26 42 8 1 0 0 0 0 0 0 0 0 0 0 0 0 0 0 0 0 0 0 0 0 0 0 0 0 0 0 0 0 0 0 0 0 0 0 0 0 1 5
0 0 0 0 3 4 0 0 0 0 0 0 0 0 0 0 0 0 0 0 0 0 0 0 0 0 0 0 0 0 0 2 5 5 5 5 5 5 5 5 5 2 0 0 3 3 5 4 5
0 0 0 0 0 0 0 0 0 0 0 0 0 0 0 0 0 0 0 0 0 0 0 0 0 0 0 0 2 3 5 5 5 5 37 5 52 42 6 5 4 4 5 5 5 5 5 2 1
0 0 0 0 0 0 0 0 0 0 0 0 0 0 0 0 0 0 0 0 0 0 0 0 0 0 2 4 5 5 5 5 10 6 5 47 5 7 5 3 0 0 4 6 16 53 22 13 5
0 0 0 0 0 0 0 0 0 0 0 0 0 0 0 0 0 0 0 0 0 0 0 0 4 0 5 5 5 5 5 5 5 5 5 2 0 5 3 3 5 5 14 70 34 11 17 5 5
0 0 0 0 0 0 0 0 0 0 0 0 0 0 0 0 0 0 0 0 0 0 0 0 3 5 5 38 11 5 5 5 5 5 6 7 6 24 8 5 15 39 9 23 32 5 2 0 0
0 0 0 0 0 0 0 0 0 0 0 0 0 0 0 0 0 0 0 4 0 0 2 5 5 5 70 33 5 5 8 8 14 62 57 8 57 72 9 5 5 4 5 5 5 5 5 1 2
0 0 0 0 0 0 0 0 0 0 0 0 0 4 2 0 5 2 0 0 3 5 5 6 9 5 5 5 5 63 86 73 11 8 11 98 96 42 45 46 8 5 4 3 6 23 62 88 91
0 0 0 0 0 0 0 0 0 0 0 0 5 5 0 5 5 5 5 5 9 6 46 69 98 76 100 100 60 38 76 100 96 84 41 77 50 33 83 71 5 7 5 5 5 5 5 5 12
0 0 0 0 0 0 0 0 4 0 0 5 5 0 0 5 5 5 5 60 54 32 50 100 100 99 100 100 94 68 24 5 5 5 5 15 13 5 26 45 40 78 17 5 13 31 60 71 100
0 0 0 0 1 1 0 0 0 0 0 4 1 2 2 5 5 5 5 5 5 55 41 65 78 60 20 46 28 5 5 9 45 20 5 14 92 100 100 100 77 96 79 95 96 100 86 98 100
0 0 0 0 0 0 0 0 2 0 0 5 5 0 2 5 5 5 5 5 22 13 5 13 8 5 48 53 7 13 9 10 12 65 98 100 100 100 97 74 64 92 99 100 100 100 100 100 100
0 3 0 0 0 0 0 0 0 3 5 5 5 5 0 5 5 5 9 58 8 9 72 5 5 5 8 19 6 5 29 97 99 100 100 100 46 65 46 100 100 100 100 100 99 100 100 98 100
0 0 4 2 44 0 0 2 0 3 0 5 5 5 5 4 5 5 5 11 36 15 5 5 5 27 35 10 9 42 56 33 96 100 98 59 73 73 100 100 100 100 100 100 100 100 100 100 100
4 4 1 1 2 5 4 1 0 2 3 5 1 0 6 55 19 20 72 33 64 82 46 5 26 41 60 94 85 23 62 83 100 98 91 92 99 100 100 100 100 100 100 96 100 100 100 100 100
0 0 0 5 6 5 5 30 5 5 5 5 0 5 39 44 20 57 85 92 80 8 23 64 68 44 33 36 65 83 100 100 73 99 58 46 100 100 98 100 100 100 90 100 100 100 100 100 100

GFSSGP_prec_cloud_027.txt.gz
Cloud_Cover
100 100 100 100 100 100 45 83 100 90 85 82 97 100 95 74 22 22 51 13 16 36 6 9 38 100 92 91 100 100 100 100 95 100 97 3 2 37 35 2 0 5 5 18 59 45 4 39 18
100 100 100 100 100 100 91 94 92 89 68 100 100 67 6 36 5 6 23 25 15 16 26 22 93 100 100 100 100 100 100 92 83 5 2 0 0 0 0 1 0 0 4 44 100 100 100 73 22
100 92 100 100 100 94 98 85 78 96 100 100 100 46 22 12 67 92 11 22 5 32 54 95 100 100 100 100 100 100 100 69 9 0 0 0 0 0 0 0 0 0 0 0 1 16 0 0 3
100 100 100 100 57 96 50 99 100 100 100 81 25 11 5 5 33 70 7 6 5 12 100 100 100 100 100 100 100 33 16 1 0 0 0 0 0 0 0 0 0 0 0 6 20 47 0 0 0
100 100 100 100 100 100 100 100 100 100 100 100 98 93 78 42 8 6 96 100 100 100 100 100 100 100 100 90 57 2 0 0 0 0 2 4 0 0 0 0 0 0 0 0 0 15 0 0 0
100 100 100 99 100 100 100 73 79 64 59 34 9 15 58 23 41 20 96 100 100 100 100 100 100 100 58 5 4 0 0 0 0 0 3 8 0 0 0 0 0 0 0 0 0 7 14 6 0
100 100 100 100 100 100 99 92 100 96 10 5 5 42 47 9 63 100 100 100 100 100 100 100 94 5 5 12 0 0 0 0 0 0 0 0 0 0 0 0 1 2 4 21 3 0 0 0 0
100 100 100 100 100 100 100 100 92 12 5 100 100 100 77 100 100 100 100 100 100 100 100 97 81 6 0 0 0 0 0 0 0 0 0 0 1 0 0 1 0 0 0 0 0 0 0 0 0
100 100 100 100 100 100 97 100 100 100 100 90 100 100 100 100 100 100 100 100 100 100 100 88 47 4 4 0 3 0 2 0 1 0 0 0 3 1 6 0 0 0 0 0 0 0 0 0 0
100 100 100 100 100 100 100 100 74 97 92 91 100 100 100 100 100 100 100 100 100 100 100 14 5 0 0 0 0 0 0 0 0 0 0 1 1 0 0 0 0 0 0 0 0 0 0 0 0
100 100 100 100 100 100 100 99 100 100 100 100 100 100 100 100 100 100 100 100 100 18 4 0 0 0 0 0 0 0 0 0 0 0 0 8 0 26 28 97 86 90 30 7 9 0 0 0 0
100 100 100 100 100 100 100 100 98 100 100 100 100 100 100 100 100 100 88 9 6 1 1 0 0 0 0 0 0 0 0 0 0 0 4 0 0 10 16 3 0 0 33 6 0 0 0 0 0
100 100 100 98 100 98 100 100 100 100 100 100 100 100 100 100 99 72 13 4 3 4 1 1 0 0 0 0 0 0 0 0 0 0 2 0 0 0 0 0 0 0 0 0 3 0 0 0 0
80 100 100 100 100 100 100 100 100 100 100 100 93 100 98 67 38 1 0 1 4 0 1 0 0 0 0 0 0 0 0 0 0 0 0 0 0 0 0 1 2 5 4 3 1 0 0 0 0
5 10 21 100 100 100 100 100 100 100 52 8 1 2 4 4 3 0 0 0 0 0 0 0 0 0 0 0 0 0 0 0 0 0 0 0 0 0 1 4 5 22 36 26 5 5 5 5 5
0 0 2 0 3 92 71 91 84 12 10 0 0 0 0 2 0 1 0 0 0 0 0 0 0 0 0 0 0 0 0 5 5 5 5 5 4 5 8 52 43 5 5 5 5 5 5 5 5
0 36 1 0 0 0 0 19 2 0 0 0 0 0 0 0 0 5 0 0 0 0 0 0 0 1 5 0 5 1 5 5 5 5 5 5 5 5 6 39 48 66 7 5 5 5 5 27 78
3 0 0 0 0 0 0 0 0 0 0 0 0 0 0 0 2 10 2 0 0 0 0 0 0 10 10 5 5 5 5 5 5 5 5 5 5 5 5 5 5 5 5 5 26 79 100 96 100
0 0 0 0 0 0 0 0 0 0 0 0 0 0 0 0 0 0 0 0 0 0 0 0 0 3 5 5 5 38 77 63 5 5 5 5 5 5 5 5 5 5 5 5 5 10 24 52 93
0 0 0 0 0 0 0 0 0 0 0 0 0 0 0 0 0 0 0 0 0 0 0 0 5 5 5 8 96 100 100 81 71 35 15 68 7 62 85 95 99 48 5 5 47 34 19 5 5
0 0 0 0 0 0 0 0 0 0 0 0 0 0 0 0 0 0 0 0 0 0 0 1 5 5 85 100 79 51 99 94 90 92 82 89 100 78 13 19 5 5 5 17 6 14 71 90 100
0 0 0 0 0 11 0 26 3 0 0 0 0 0 0 0 0 0 0 4 5 2 4 5 5 5 5 5 5 75 88 46 9 78 93 72 5 21 5 5 5 5 5 5 29 93 67 13 5
0 0 0 0 0 0 0 0 7 0 0 0 0 0 0 0 0 0 1 5 5 5 5 5 5 5 5 5 19 40 29 55 12 53 53 69 56 18 68 100 99 65 5 5 16 55 50 7 5
0 0 0 0 0 0 2 0 68 20 4 1 0 0 0 0 0 3 5 2 5 5 5 16 42 25 72 94 88 100 91 72 71 31 35 48 82 96 49 5 5 19 95 100 87 71 97 53 71
0 0 4 24 33 37 4 0 32 0 0 0 1 5 0 0 0 2 4 5 5 32 96 100 100 100 81 96 96 100 60 54 45 72 100 100 36 6 11 51 89 64 98 93 100 100 100 99 93
0 0 3 4 3 16 0 0 9 0 0 0 0 0 0 0 0 0 5 25 52 81 100 100 84 9 5 22 94 49 98 97 77 21 23 76 59 20 66 99 100 100 100 100 100 100 100 94 86
5 4 0 0 1 0 0 3 0 0 0 0 0 0 0 1 5 5 21 100 84 56 50 43 12 13 59 7 31 38 98 100 100 98 75 41 67 91 100 100 100 100 100 98 100 100 100 100 96
0 0 3 21 44 1 20 36 95 5 0 5 4 3 3 5 5 47 97 47 39 22 5 12 19 42 99 100 81 98 76 28 71 87 6 6 98 100 100 97 99 100 100 100 91 86 100 100 100
4 5 2 1 2 5 4 16 2 7 10 33 21 5 5 5 22 96 52 48 90 100 89 100 59 24 21 45 16 10 43 92 30 8 90 100 100 100 91 63 57 16 80 100 100 93 75 76 98
0 0 0 5 5 23 4 70 0 0 2 5 0 5 9 61 66 61 100 100 100 100 66 29 8 8 26 42 89 100 99 20 84 100 100 88 54 70 80 97 99 100 81 92 91 74 99 100 99

GFSSGP_prec_cloud_030.txt.gz
Cloud_Cover
100 100 100 100 100 100 100 84 87 48 64 91 100 92 24 100 74 29 99 91 88 5 5 10 51 5 4 5 52 5 5 41 100 100 100 100 83 0 0 0 0 0 0 0 1 1 0 1 7
100 100 100 100 100 100 100 94 89 59 100 80 95 29 84 100 62 100 100 99 89 36 23 5 9 5 5 99 96 82 17 100 100 100 90 30 0 0 0 0 0 0 0 0 16 34 4 2 51
100 100 100 100 100 100 100 82 99 100 72 84 81 67 33 100 100 100 99 74 70 78 20 50 5 47 83 19 70 100 100 100 100 30 5 0 0 0 0 0 0 0 0 0 8 7 0 0 0
100 100 100 100 100 100 98 97 100 50 15 84 52 97 100 100 100 100 100 98 35 56 87 5 100 100 100 100 100 100 100 100 100 100 8 0 0 0 0 0 0 0 0 1 28 66 0 0 0
100 100 100 100 100 100 100 100 100 96 89 98 49 71 100 87 57 10 25 36 24 33 73 100 100 100 100 100 100 100 100 100 17 4 0 2 0 0 0 0 0 0 0 0 0 0 0 0 0
100 100 100 100 100 100 100 100 100 100 100 95 47 20 42 93 96 14 65 82 80 80 100 100 100 100 100 100 100 100 100 38 1 0 0 0 0 0 0 0 0 0 0 0 0 0 0 0 0
100 100 100 100 100 100 100 100 83 100 100 100 86 99 100 100 50 95 64 93 100 100 100 100 100 100 100 100 100 99 9 2 0 0 0 0 0 0 0 0 0 0 0 0 0 0 0 0 0
100 100 100 100 100 100 100 100 100 100 100 100 100 100 100 100 100 100 100 100 100 100 100 100 100 100 100 100 58 5 2 0 0 0 0 0 0 0 0 0 0 0 0 0 0 0 0 0 0
100 100 100 100 100 100 100 100 100 100 100 100 100 100 100 100 100 100 100 100 100 100 100 100 100 100 100 94 4 0 0 0 0 0 0 0 3 83 0 0 0 0 0 0 0 0 0 0 0
100 100 53 100 97 94 57 100 100 98 97 100 100 100 100 100 100 100 100 100 100 100 100 100 99 100 16 5 1 0 0 0 0 0 0 94 12 0 0 0 2 10 0 0 0 0 0 0 0
100 100 100 100 100 100 100 100 100 100 100 100 100 100 100 100 100 100 100 100 100 100 100 92 48 11 2 0 0 79 21 0 0 0 0 7 0 99 4 0 0 0 0 40 61 0 0 0 0
100 100 100 100 100 100 100 100 100 100 100 100 100 100 100 100 100 100 100 100 100 100 82 8 1 2 0 0 0 0 0 0 25 93 0 0 0 0 0 0 0 0 0 1 0 0 4 4 4
100 100 100 100 100 100 100 100 100 100 100 100 100 100 100 100 100 100 100 100 88 87 7 4 1 0 0 0 0 0 0 0 0 0 0 0 0 0 0 0 0 0 0 0 0 0 0 0 0
100 100 100 100 100 100 100 100 100 100 100 100 100 100 100 100 100 100 100 95 23 19 12 76 0 0 0 0 0 0 0 0 0 0 0 0 0 0 0 0 0 0 0 0 0 0 0 0 0
96 100 100 100 100 100 100 100 100 100 100 100 100 100 100 100 100 100 55 9 2 4 30 4 9 0 0 0 0 0 0 0 0 0 0 1 5 4 0 0 0 0 0 0 5 3 4 4 0
0 0 6 82 80 100 74 100 100 81 6 56 22 23 28 96 100 88 11 2 1 0 17 33 71 13 0 0 0 0 0 0 0 0 2 5 5 2 3 5 0 4 5 5 2 4 5 4 0
0 27 36 0 0 0 0 45 36 0 0 2 0 0 0 4 91 91 79 3 58 94 99 83 98 42 18 1 0 0 1 4 5 5 5 5 4 5 5 5 5 5 5 5 5 3 3 5 5
99 22 6 0 0 0 2 10 1 0 0 0 0 1 3 4 73 95 28 6 1 1 0 0 0 61 48 1 1 2 5 5 5 5 5 5 5 5 20 5 56 61 5 26 5 5 5 5 5
0 0 0 0 0 0 0 0 0 0 0 0 0 0 0 0 0 1 1 0 0 0 0 0 0 0 0 0 5 5 5 50 62 34 63 9 86 11 5 11 55 28 4 0 0 3 5 5 5
0 0 1 0 0 0 0 1 0 0 0 0 0 0 0 0 0 0 0 0 0 0 0 0 5 5 5 14 52 82 95 81 50 90 47 82 5 5 5 5 2 0 3 2 2 2 5 5 5
0 0 0 0 0 0 0 2 0 0 0 0 0 0 0 0 0 0 0 0 0 0 3 5 5 5 14 5 5 3 5 7 72 80 100 83 58 38 5 27 5 5 5 7 12 3 3 4 5
0 0 0 0 0 1 3 1 13 0 0 0 0 0 0 0 0 0 0 0 0 3 5 5 1 5 5 5 4 5 5 5 12 61 48 5 23 96 96 95 39 5 5 5 5 5 5 1 3
0 0 0 0 0 0 0 1 82 3 4 0 0 0 0 0 0 0 0 0 0 0 0 3 5 6 5 5 8 48 100 87 32 69 100 100 100 100 100 92 8 34 14 7 10 14 14 8 41
0 0 0 0 0 0 0 4 100 100 93 9 0 0 0 0 0 0 0 0 0 1 5 5 5 5 6 5 29 54 100 100 100 100 100 100 100 90 84 36 38 38 100 100 76 22 33 99 92
0 0 6 42 92 50 92 40 79 6 96 15 0 0 0 0 0 0 0 0 1 9 8 7 8 6 21 78 100 100 100 100 100 100 96 83 70 94 100 100 100 100 100 76 61 80 100 83 98
0 0 4 4 0 10 12 6 6 1 36 95 3 0 0 0 0 0 2 5 5 5 5 18 25 99 100 100 100 100 100 83 58 55 97 100 100 100 100 100 94 16 7 100 81 100 100 100 100
6 5 0 0 0 0 0 6 20 57 90 5 0 0 19 5 3 4 34 57 57 10 5 11 100 100 56 52 99 97 100 100 100 100 100 100 60 5 5 5 5 5 5 36 99 96 92 92 97
0 3 4 85 12 5 5 54 88 61 5 5 57 45 90 6 6 55 19 5 5 5 5 87 100 100 100 100 100 100 100 100 100 91 46 5 5 5 5 7 6 21 7 5 5 22 78 48 6
1 2 2 3 3 3 6 91 13 36 99 92 100 97 40 5 5 6 12 23 44 86 100 100 100 100 100 100 86 32 6 9 9 16 38 5 5 1 12 91 22 48 100 86 75 62 23 91 34
0 0 2 3 2 0 36 86 4 2 5 5 6 7 9 20 92 5 30 90 100 100 93 100 76 58 7 17 5 57 25 43 57 11 68 48 24 97 100 97 100 99 100 100 98 11 86 30 66

GFSSGP_prec_cloud_033.txt.gz
Cloud_Cover
100 100 100 100 100 100 100 100 100 100 100 61 84 40 52 50 5 72 68 76 51 15 53 50 100 85 98 86 7 5 4 16 91 6 9 37 55 100 100 86 0 0 0 0 0 0 0 0 0
100 100 100 100 100 100 100 100 100 100 100 92 91 100 100 87 98 68 53 100 53 85 100 96 97 100 52 8 3 5 5 82 100 100 100 94 100 100 92 1 0 0 0 0 9 9 0 0 0
100 100 100 100 100 100 100 100 100 100 100 100 29 28 100 100 87 28 78 100 73 73 86 100 42 10 59 97 93 79 100 100 100 100 98 100 100 100 22 0 0 0 0 0 15 0 0 0 0
100 100 100 100 100 100 100 100 100 100 100 100 99 100 100 100 100 100 100 100 100 100 53 76 67 100 100 100 64 100 100 98 89 78 100 77 56 4 0 0 0 0 0 0 0 0 0 0 0
100 100 100 100 100 100 100 100 100 100 100 100 100 100 100 100 100 100 100 94 99 74 100 100 100 100 100 100 100 100 100 100 100 100 40 4 0 0 0 0 0 0 0 0 0 0 0 0 0
100 100 100 100 100 100 100 100 100 100 98 96 100 100 100 100 100 74 91 100 89 100 100 100 100 100 100 100 100 100 100 100 79 49 29 3 0 0 0 0 0 0 0 0 0 0 0 0 0
100 100 100 100 100 100 100 100 100 100 100 100 100 100 100 75 46 21 69 94 100 100 100 100 100 100 100 100 100 100 100 100 97 5 1 0 0 0 0 0 0 0 0 0 0 0 0 0 0
100 100 100 100 100 100 100 100 100 100 100 100 100 100 82 57 44 76 79 100 100 100 100 100 100 100 100 100 100 100 100 100 14 5 0 0 0 0 0 0 0 0 0 0 0 0 0 0 0
100 100 100 100 100 100 100 100 100 100 100 100 100 100 100 69 38 47 100 100 100 100 100 100 100 100 100 100 100 100 100 78 3 0 0 0 0 0 0 0 0 0 0 0 0 0 0 0 0
100 100 100 100 100 100 100 100 100 100 96 100 100 99 99 100 98 100 100 100 100 100 100 100 100 100 100 100 100 100 58 3 0 0 0 0 0 0 0 0 0 0 0 0 0 0 0 0 0
100 100 100 100 100 100 100 100 100 100 100 100 100 91 57 100 100 100 100 100 100 100 100 100 100 100 100 100 100 7 1 0 0 0 0 0 0 0 0 0 0 0 0 0 0 0 0 0 0
100 100 100 100 100 100 100 100 100 100 100 98 100 100 100 100 100 100 100 100 100 100 100 100 100 100 100 100 99 15 7 0 0 0 0 0 0 0 0 0 0 0 0 3 0 0 0 0 0
100 100 100 100 100 100 100 100 100 100 100 100 100 100 100 100 100 100 100 100 100 100 100 100 100 100 100 30 5 1 0 0 0 0 0 0 0 0 0 0 0 0 0 0 0 0 0 4 2
100 100 100 100 100 100 100 100 100 100 100 100 100 100 100 100 100 100 100 100 100 100 96 87 7 22 2 0 0 0 0 0 0 0 0 0 0 0 3 0 0 0 0 0 0 0 0 0 0
100 98 98 100 100 100 100 100 100 100 100 100 100 100 100 100 100 100 100 100 99 28 27 4 2 0 0 0 0 0 0 0 0 0 0 0 0 4 5 0 4 0 0 1 4 1 0 0 0
100 100 81 64 100 100 100 100 100 99 98 99 100 100 100 100 100 95 16 5 5 0 5 26 2 2 96 100 72 5 5 0 0 0 0 0 1 5 0 5 5 5 5 5 5 5 5 0 0
100 100 100 100 99 100 80 8 0 4 60 61 68 49 45 47 54 98 58 33 5 5 10 57 3 10 20 100 87 0 0 0 0 2 4 2 3 5 5 5 5 5 5 5 4 0 0 0 1
2 17 37 0 0 0 0 2 4 0 0 0 0 2 2 0 0 5 5 5 5 4 5 2 0 0 4 3 1 0 0 4 5 5 5 5 5 5 10 89 59 5 5 5 5 0 0 4 5
5 3 0 0 0 0 0 0 0 0 0 0 0 0 0 0 0 3 5 5 5 65 10 1 0 0 0 0 3 5 5 5 6 38 66 100 26 57 76 11 5 1 4 3 5 5 5 5 20
3 0 0 0 0 0 0 0 0 0 0 0 0 0 0 0 0 0 0 2 5 27 40 1 5 5 5 5 5 5 5 5 5 20 89 77 40 5 5 5 5 5 5 5 13 29 5 5 5
0 0 0 0 0 0 0 0 0 0 0 0 0 0 0 0 0 0 0 0 0 0 4 5 5 5 5 5 5 5 3 0 4 5 5 5 5 5 5 5 5 5 5 5 5 5 5 5 5
0 0 0 0 0 0 0 0 2 0 0 0 0 0 0 0 0 0 0 0 4 5 5 1 0 0 5 3 0 0 3 5 33 26 33 46 28 5 5 5 9 5 5 18 18 5 10 79 98
0 0 0 0 0 0 0 0 0 8 5 0 0 0 2 0 0 0 0 0 0 0 0 0 4 2 5 5 5 39 79 95 100 98 68 84 100 100 100 100 100 100 80 65 100 99 96 100 100
0 0 0 0 1 0 1 0 5 74 0 5 16 5 57 5 0 0 0 0 0 0 0 1 0 0 2 1 4 89 99 100 100 100 100 100 100 100 100 100 70 98 100 81 5 5 5 5 5
0 0 0 2 5 4 24 75 98 100 95 4 1 4 5 5 1 0 0 0 0 0 1 3 5 57 97 95 99 59 19 12 6 22 18 98 99 100 100 69 44 17 5 4 4 5 5 24 6
0 0 0 0 0 0 2 64 35 65 54 98 92 91 90 5 4 1 0 0 0 0 0 1 32 100 83 43 100 44 6 23 46 85 100 100 100 55 14 12 5 76 21 5 5 5 4 5 5
0 0 3 2 5 3 1 1 5 61 84 100 100 100 92 68 5 5 5 5 5 14 8 34 100 100 100 99 100 100 100 100 100 100 100 86 5 34 75 16 74 5 2 5 5 5 5 5 5
0 0 0 1 1 2 0 3 5 5 5 5 84 100 95 99 78 39 45 5 6 46 90 61 24 37 100 100 100 100 100 100 100 100 52 79 82 77 94 56 5 19 51 78 35 5 15 5 6
0 0 0 0 0 2 17 3 5 81 20 56 19 99 50 90 28 20 39 100 81 58 25 76 100 100 84 88 100 97 79 100 100 96 63 5 1 3 5 12 94 100 99 100 100 100 94 98 64
0 0 5 5 3 0 4 1 2 54 7 56 100 96 99 100 100 30 58 40 36 70 98 100 81 96 90 70 38 14 96 76 64 63 5 5 5 5 5 48 99 100 100 100 100 99 99 92 44

GFSSGP_prec_cloud_036.txt.gz
Cloud_Cover
100 100 100 100 100 100 100 100 100 91 97 84 75 66 100 38 80 83 20 75 54 21 10 44 60 15 5 70 5 5 5 1 4 3 1 3 46 87 41 5 2 1 0 0 0 0 0 0 0
100 100 100 100 100 100 100 100 93 100 100 100 97 100 100 100 91 78 84 100 96 52 18 61 8 19 7 38 7 7 5 16 5 5 28 42 100 83 62 5 90 12 2 16 22 1 0 0 0
100 100 100 100 100 100 100 100 100 100 100 100 100 100 100 100 88 30 73 92 72 24 70 97 86 92 97 100 61 71 22 74 46 94 98 100 100 32 81 100 28 0 12 29 18 12 0 0 0
100 100 100 100 100 100 100 100 100 100 100 100 100 100 100 100 100 98 73 69 42 100 100 100 100 100 100 52 100 37 100 91 100 100 100 100 100 100 100 92 2 0 0 0 0 0 0 0 0
100 100 100 100 100 100 100 94 100 100 100 100 100 100 100 100 100 94 23 97 100 100 100 100 50 100 100 74 91 94 84 100 100 100 100 94 100 100 100 34 38 0 0 0 0 0 0 0 0
100 100 100 100 100 100 100 100 100 100 100 100 100 97 79 100 100 100 100 100 100 100 99 12 64 89 90 77 100 100 100 100 100 100 100 100 100 45 17 5 0 0 0 0 0 0 0 0 0
100 100 100 100 100 100 100 100 100 100 100 100 100 100 100 100 100 51 100 100 100 100 91 100 92 100 91 100 100 100 100 100 100 100 100 100 100 92 5 3 0 0 0 0 0 0 0 0 0
100 100 100 100 100 100 100 100 100 100 100 100 100 100 100 100 66 58 100 100 100 100 100 100 100 100 100 100 100 100 100 100 100 100 95 21 5 5 2 0 0 0 0 0 0 0 0 0 0
100 100 100 100 100 100 100 100 100 100 100 100 100 100 100 100 100 100 100 100 100 100 100 100 100 100 100 100 100 100 100 100 100 100 100 6 5 0 0 0 0 0 0 0 0 0 0 0 0
100 100 100 100 100 100 100 100 100 100 100 100 100 100 100 100 100 100 100 100 100 100 100 100 100 100 100 100 100 100 100 100 100 40 60 5 0 0 0 0 0 0 0 0 0 0 0 0 0
100 100 100 100 100 100 100 100 100 100 100 100 97 100 100 100 100 100 100 100 100 100 100 100 100 100 100 100 100 100 100 100 76 3 0 0 0 0 0 0 0 0 0 0 0 0 0 0 0
100 100 100 100 100 100 100 100 100 100 100 100 100 100 98 99 100 100 100 100 100 100 100 100 100 100 100 100 100 100 100 3 0 0 0 0 0 0 0 1 0 0 0 1 0 0 0 0 0
100 99 89 100 100 100 100 100 100 100 100 100 100 100 100 100 100 100 100 100 100 100 100 100 100 100 100 100 99 71 2 0 0 2 3 0 0 0 0 0 0 0 0 0 0 0 0 0 0
100 100 82 100 100 100 100 100 100 100 100 100 100 100 100 100 100 100 100 100 100 100 100 100 100 100 100 54 23 95 100 98 100 30 5 0 0 0 0 0 0 0 0 0 0 0 0 0 0
100 100 100 100 94 100 100 100 100 100 100 100 100 100 100 100 100 100 100 100 100 100 100 100 97 100 36 1 90 98 22 6 5 5 0 0 0 0 1 5 5 1 4 1 2 5 1 5 5
100 100 100 100 100 100 100 100 100 100 100 100 100 100 100 100 99 83 54 98 68 72 86 97 4 8 17 100 100 86 92 60 35 2 0 0 1 5 5 5 5 5 4 5 5 5 5 5 5
100 100 100 100 100 92 66 99 100 95 37 47 97 98 100 34 1 0 1 2 5 5 5 5 0 14 92 100 100 84 30 0 0 0 4 5 4 2 0 1 4 1 5 5 5 5 2 5 5
100 100 100 100 100 100 100 100 55 85 86 53 44 14 2 0 0 0 0 2 1 5 5 28 81 100 100 100 81 3 0 0 4 31 23 50 87 100 40 17 21 27 18 5 5 1 3 5 5
29 5 5 19 45 2 0 4 36 1 0 0 0 0 0 0 0 0 0 0 5 4 5 50 100 56 66 29 0 0 5 2 5 5 18 58 99 100 100 99 68 23 5 5 6 5 5 5 5
5 5 0 0 0 0 0 0 0 0 0 0 0 0 0 0 0 0 0 9 3 3 24 44 0 0 4 5 5 5 5 18 62 89 85 77 84 98 99 43 14 63 84 3 1 0 4 5 5
4 0 0 0 0 0 0 0 0 0 0 0 0 0 2 18 5 4 4 0 0 0 1 0 0 0 1 5 5 22 98 17 31 17 5 5 5 4 3 4 0 1 0 2 4 5 5 4 5
0 0 0 0 0 0 0 0 0 0 0 0 0 0 76 100 90 61 44 65 3 0 0 0 13 60 6 5 5 6 5 82 52 42 31 5 5 4 0 0 0 0 3 5 29 77 24 57 98
0 0 0 0 0 0 0 0 0 0 0 0 0 3 100 100 95 98 100 99 0 1 3 3 0 0 0 0 4 8 15 94 100 100 100 100 100 94 100 100 100 100 99 27 6 6 5 5 5
0 0 0 0 0 0 0 0 0 0 0 8 5 54 92 63 97 42 58 5 5 5 2 2 0 1 2 5 5 65 100 100 100 100 100 100 92 93 98 95 73 31 59 99 54 5 8 5 6
0 0 0 0 2 3 2 3 5 9 28 5 75 6 39 65 78 94 83 99 92 96 32 5 5 5 47 43 64 26 21 88 93 34 16 5 5 12 43 97 100 100 78 11 5 64 99 99 100
0 0 0 0 0 0 0 0 0 5 54 5 75 88 80 99 100 100 100 67 6 4 5 30 92 100 100 100 93 57 92 98 59 79 99 100 100 100 100 92 63 10 5 5 7 6 6 5 5
0 0 0 0 0 0 0 0 4 16 42 99 94 95 95 89 100 80 78 23 45 67 55 62 78 100 100 100 100 92 34 86 100 100 100 100 92 20 5 2 5 5 11 100 39 5 6 32 5
0 0 0 0 0 0 0 1 5 6 72 70 40 5 22 52 77 100 87 100 58 32 23 12 22 46 85 62 61 100 62 62 66 71 47 4 0 1 0 5 5 5 82 99 75 52 90 92 100
0 0 0 0 0 0 4 0 3 5 6 28 65 100 100 88 73 91 93 52 100 71 37 44 93 34 21 98 76 25 36 7 5 1 0 0 0 4 0 0 5 5 5 5 10 14 30 67 77
0 0 0 0 0 0 0 1 0 5 36 27 52 99 90 100 78 89 99 91 22 5 6 27 5 34 11 5 5 5 5 1 0 0 0 0 1 5 5 0 5 4 3 5 5 5 5 5 5

GFSSGP_prec_cloud_039.txt.gz
Cloud_Cover
100 100 100 100 100 100 100 100 100 100 100 93 100 100 100 100 100 100 100 94 82 36 42 34 64 10 5 5 4 5 5 0 0 0 3 0 0 5 5 5 30 12 5 6 6 14 0 0 0
100 100 100 100 100 100 100 100 100 100 100 100 100 100 100 100 100 100 100 95 72 42 35 43 7 5 5 5 6 40 5 0 1 3 3 5 5 5 17 5 5 17 55 100 92 10 0 0 0
100 100 100 100 100 100 100 100 100 100 100 100 100 100 100 100 100 84 100 100 50 57 34 20 11 42 55 77 87 25 29 22 5 5 5 5 11 7 4 5 37 24 8 8 1 0 0 0 0
90 100 100 100 100 100 100 100 100 100 100 100 100 100 100 99 74 13 58 55 56 55 84 73 79 70 87 46 95 78 54 14 5 5 5 26 8 5 8 7 100 100 5 0 0 0 0 0 0
95 100 100 100 100 100 100 100 100 100 100 100 100 100 100 80 60 94 56 21 70 78 90 82 100 100 100 98 100 72 97 91 13 35 90 5 5 5 15 100 92 5 2 0 0 0 0 0 0
92 95 100 100 100 100 100 100 100 100 100 100 100 96 100 100 100 100 100 95 100 100 100 97 100 100 100 100 100 100 100 95 100 96 61 5 5 99 100 100 24 9 0 0 0 0 0 0 0
100 100 100 100 100 100 100 100 100 100 100 100 100 100 100 100 100 100 100 100 98 100 85 100 100 100 100 96 93 100 100 100 100 97 6 68 82 99 100 72 4 0 0 0 0 0 0 0 0
100 100 47 100 100 100 100 100 100 100 100 100 100 100 100 100 100 100 100 100 100 100 100 100 100 100 100 87 100 100 100 100 100 86 57 100 97 90 23 2 0 0 0 0 0 0 0 0 0
100 100 100 93 100 100 100 100 100 100 100 100 100 100 100 100 100 100 98 100 100 100 100 100 100 99 100 100 100 100 100 99 82 100 100 100 98 14 5 1 0 0 0 0 0 0 0 0 0
98 100 100 100 100 100 100 100 100 100 100 100 100 100 100 100 100 100 100 100 100 100 100 100 100 100 100 100 100 100 46 100 100 100 100 29 19 0 0 0 0 0 0 0 0 0 0 0 0
100 100 100 100 100 100 100 100 100 100 100 100 100 100 100 100 100 100 100 100 100 100 100 97 91 100 100 100 100 100 100 100 100 100 88 16 4 0 0 0 0 0 0 0 0 0 0 0 0
100 100 100 100 98 100 100 100 100 100 100 100 100 100 100 100 100 100 100 100 100 100 100 100 100 100 100 100 100 100 100 100 100 28 6 4 2 5 0 4 0 0 0 0 0 0 0 0 0
100 100 100 100 100 100 100 100 100 100 100 100 100 100 100 100 100 100 100 100 100 100 100 100 100 100 100 100 100 91 90 35 27 31 10 30 72 93 5 1 0 0 0 0 0 0 0 0 0
100 85 100 100 100 100 100 99 100 100 100 100 100 100 100 100 100 100 100 100 100 100 100 100 100 100 97 29 8 41 5 72 92 91 91 49 82 88 80 49 0 0 3 4 1 0 0 4 2
100 100 99 99 100 52 100 100 100 100 100 100 100 100 100 100 100 100 100 100 100 100 100 100 100 32 5 5 56 66 98 100 100 100 100 100 21 5 1 2 0 0 5 0 5 5 5 5 5
100 100 100 100 100 100 100 100 100 100 100 100 100 100 100 100 100 100 100 100 100 100 86 74 12 4 5 68 91 100 100 89 26 80 78 27 5 5 0 0 2 5 5 5 5 5 5 5 5
100 100 100 100 100 100 100 100 82 100 100 100 99 94 84 49 99 100 100 51 53 60 45 28 9 28 97 100 100 100 100 50 4 1 1 5 5 0 0 2 1 3 8 12 48 5 5 5 4
100 100 100 100 90 100 100 100 99 100 66 89 93 65 45 92 67 31 5 1 5 5 5 5 95 100 100 100 100 100 100 99 12 5 5 10 92 100 100 88 98 100 100 72 5 5 5 2 2
19 43 80 93 100 100 100 100 100 100 100 100 100 100 81 5 0 1 0 1 4 5 54 98 100 100 100 100 100 100 92 13 5 65 99 100 100 100 100 100 62 5 5 5 71 35 5 5 42
5 5 5 5 17 11 86 100 98 17 29 15 35 2 0 5 5 2 0 11 12 89 72 71 43 41 43 99 97 37 5 5 5 5 4 1 2 3 0 1 16 43 86 97 55 3 5 5 5
5 4 5 3 2 3 5 1 0 0 0 0 0 0 0 6 16 4 5 51 5 5 8 2 58 66 45 4 5 4 5 5 2 1 5 5 3 3 2 1 0 1 2 0 0 0 0 0 0
0 0 0 0 0 0 0 0 0 0 0 0 0 0 4 68 40 62 79 50 9 29 5 5 0 0 1 4 1 1 1 8 15 18 35 8 5 1 4 5 4 1 0 0 2 4 4 5 4
0 0 0 0 0 0 0 0 0 0 0 0 0 0 35 100 100 100 80 65 100 100 97 64 19 76 92 98 41 90 82 95 100 99 94 96 93 99 100 96 58 8 64 95 100 91 7 6 6
0 0 0 0 0 0 0 0 0 0 0 1 5 61 100 100 62 97 58 77 94 82 89 77 99 86 38 6 51 74 98 95 100 100 100 100 100 99 80 98 100 100 86 20 5 5 3 5 10
0 0 0 0 0 0 0 0 0 0 0 1 5 5 11 89 79 86 80 100 100 100 100 100 88 45 14 99 100 100 100 100 96 36 43 96 100 99 80 98 39 7 19 5 5 5 5 5 8
0 0 2 0 0 0 0 0 0 0 0 5 5 4 83 89 100 100 100 100 100 100 100 97 44 29 100 100 100 100 100 99 99 100 100 100 38 5 5 5 5 2 2 4 6 26 5 5 6
0 0 0 0 0 0 0 0 0 0 0 5 5 63 74 69 5 5 5 5 15 37 19 80 99 99 100 100 100 98 100 99 87 21 5 4 5 5 5 2 0 5 5 5 5 5 5 5 16
0 0 0 0 0 0 0 0 0 0 2 5 5 5 5 5 3 5 5 5 39 76 98 20 10 33 16 21 62 100 23 5 5 5 1 5 1 0 0 0 0 0 5 5 5 5 5 4 3
0 0 0 0 0 0 4 0 0 0 0 5 5 4 5 5 52 85 80 83 98 18 95 47 9 5 26 6 5 17 11 5 5 1 0 0 0 3 5 5 13 5 5 3 5 6 5 5 5
0 0 0 0 0 0 4 1 0 0 0 3 5 5 5 5 7 20 65 39 24 54 74 57 36 86 50 9 8 5 5 4 0 5 5 3 5 5 83 99 33 100 100 100 75 89 20 47 5

GFSSGP_prec_cloud_042.txt.gz
Cloud_Cover
6 98 100 100 100 100 100 100 100 100 100 100 100 100 100 100 100 100 100 100 100 71 49 36 75 63 5 5 5 4 0 4 2 0 2 5 0 1 0 26 5 2 54 47 14 0 0 0 0
3 3 69 100 100 100 100 100 100 100 100 100 100 100 100 100 100 100 100 100 86 51 93 93 72 9 5 5 5 5 5 5 4 0 3 10 5 4 5 5 0 5 3 0 4 0 0 0 0
1 3 48 100 100 100 100 100 100 100 100 100 100 100 100 100 100 100 100 92 92 95 92 69 27 26 7 5 38 10 5 3 3 5 5 14 5 20 5 7 4 0 0 0 1 2 0 0 0
73 24 63 91 100 100 100 100 100 100 100 100 100 100 100 100 100 100 100 100 100 100 100 94 43 24 7 18 85 86 9 5 5 65 70 28 62 82 6 5 2 0 4 5 5 0 0 0 0
56 67 60 5 5 86 100 100 100 100 100 100 100 100 100 100 100 100 100 100 100 99 94 98 56 74 98 100 50 80 19 54 92 100 100 100 89 57 5 5 5 5 5 5 4 0 0 0 0
99 90 5 34 5 9 95 100 100 100 100 100 100 100 100 100 100 100 100 99 71 66 30 63 93 98 100 97 100 98 62 99 90 100 100 11 6 19 5 12 18 5 5 29 3 0 0 0 0
92 80 13 99 99 72 100 100 100 100 100 100 100 100 100 100 100 100 100 74 70 36 82 97 100 100 100 100 100 98 100 100 100 100 100 11 17 98 5 60 5 22 6 7 0 0 0 0 0
88 97 73 75 98 26 70 100 100 100 100 100 100 100 100 100 100 100 100 100 100 100 100 100 100 100 100 100 100 100 100 100 100 95 81 18 89 64 23 32 2 5 0 0 0 0 0 0 0
100 100 51 89 93 99 100 100 100 100 100 100 100 100 100 100 100 100 100 100 100 100 100 100 100 100 100 100 100 100 100 86 99 81 96 100 100 13 5 5 2 0 0 0 0 0 0 0 0
91 99 100 100 100 100 100 100 100 100 100 100 100 100 100 100 100 100 100 100 100 100 100 100 100 100 100 100 98 100 100 100 100 100 100 60 98 9 0 0 0 0 0 0 0 0 0 0 0
100 100 100 100 100 100 100 100 100 100 100 100 100 100 100 100 100 100 100 100 100 100 100 100 100 100 100 100 100 100 100 100 100 100 100 89 20 5 0 3 4 4 0 0 0 0 0 0 0
100 100 100 100 100 100 100 100 100 100 100 100 100 100 100 100 100 100 100 100 100 100 100 100 100 100 100 100 100 100 100 100 100 100 13 38 5 4 4 5 0 2 0 0 0 5 0 0 0
100 100 100 100 100 100 100 100 100 100 100 100 100 100 100 100 100 100 100 100 100 100 100 100 100 100 100 100 100 100 100 100 100 40 13 56 93 8 5 4 0 0 1 4 0 4 0 1 0
100 100 100 100 100 100 100 100 100 100 100 100 100 100 100 100 100 100 100 100 100 100 100 100 100 100 100 100 100 100 100 78 82 94 68 87 82 36 74 64 37 7 2 5 5 5 5 5 5
100 100 100 100 100 100 100 99 100 100 100 100 100 100 100 100 100 100 100 100 100 100 100 100 100 100 100 100 58 18 94 100 100 100 100 100 96 47 82 78 100 64 3 5 5 5 5 5 5
100 100 100 100 100 100 100 100 100 100 100 100 100 100 100 99 100 99 95 77 97 81 70 34 22 36 36 95 56 100 100 100 100 100 100 81 12 64 12 16 75 11 0 4 5 56 98 95 81
100 100 100 100 100 100 100 99 100 100 78 27 55 40 29 83 78 97 72 54 16 8 6 47 63 100 96 100 100 100 100 100 100 100 97 100 100 98 95 68 33 71 82 100 97 78 26 15 8
100 100 100 100 100 100 100 66 38 99 99 100 99 81 95 52 31 14 61 55 94 74 48 41 57 100 100 100 100 100 100 100 93 92 99 95 90 47 5 32 58 5 10 66 83 88 94 39 5
100 100 100 100 100 100 100 100 100 100 100 90 75 95 97 100 92 59 11 29 5 3 5 99 100 100 100 99 66 98 57 68 42 51 6 0 0 0 2 0 0 0 6 17 24 4 5 5 5
9 66 100 100 100 100 100 100 100 100 73 66 80 5 12 60 5 6 5 5 5 38 56 80 61 90 88 45 6 5 5 4 4 0 0 0 0 0 0 0 0 0 0 0 1 5 5 5 5
37 66 93 77 82 100 88 73 88 49 54 76 35 5 5 4 5 20 5 5 5 27 16 37 91 100 47 5 2 0 0 0 1 0 0 1 2 5 3 3 0 0 0 0 4 4 5 7 10
13 9 5 5 25 5 6 14 15 11 4 1 0 0 0 0 0 5 5 5 41 5 9 7 89 76 5 5 5 4 5 5 0 4 4 5 37 43 10 28 5 5 3 4 5 5 2 0 3
0 0 0 3 0 0 0 0 0 0 0 0 0 0 0 0 5 5 6 5 30 81 47 76 72 51 64 41 87 19 99 5 6 40 5 5 5 13 5 4 5 56 97 37 18 81 94 19 8
0 0 0 0 0 0 0 0 0 0 0 0 0 5 5 5 5 6 78 49 61 92 100 100 100 100 100 79 100 100 100 73 22 5 5 5 5 6 23 72 84 96 82 11 29 69 33 5 7
0 0 0 0 0 0 0 0 0 0 0 0 0 1 5 5 36 96 35 23 100 95 99 96 80 100 100 100 87 100 90 11 12 13 5 33 90 100 82 36 9 22 40 10 5 1 0 4 6
0 0 0 0 0 0 0 0 0 0 0 0 0 0 4 5 5 72 100 85 10 11 42 100 98 97 90 26 83 49 90 76 60 70 73 9 5 18 92 93 12 5 3 0 2 5 5 5 8
0 0 0 0 0 0 0 0 0 0 0 0 1 5 5 5 62 2 0 5 5 55 79 78 16 63 83 96 98 68 73 99 48 5 45 98 67 9 5 5 3 5 6 7 5 5 20 11 5
0 0 0 0 0 0 0 0 0 0 0 0 0 1 0 0 1 5 5 5 5 43 63 90 47 100 95 32 5 5 5 7 38 84 62 22 5 2 0 5 45 67 41 8 35 99 90 93 83
0 0 0 0 0 1 4 0 0 0 0 0 2 5 1 3 5 5 5 5 5 15 74 12 58 51 73 75 5 19 73 79 74 43 5 5 1 1 5 20 82 5 14 81 100 85 82 96 58
0 0 0 0 0 1 4 1 0 0 0 0 0 0 2 3 5 5 5 40 90 91 100 100 100 100 84 27 87 76 63 22 5 5 0 1 0 4 5 22 83 5 100 100 100 100 100 99 100

GFSSGP_prec_cloud_045.txt.gz
Cloud_Cover
0 0 5 5 47 100 100 93 100 100 100 100 100 85 100 100 100 100 100 100 100 100 100 100 100 100 64 88 5 5 5 5 5 5 3 5 5 5 0 0 4 2 58 30 17 0 0 0 0
0 0 0 0 0 43 100 100 100 100 100 100 100 100 97 100 100 100 100 100 100 100 100 100 100 100 20 5 5 8 5 5 5 5 2 0 6 5 5 22 0 10 5 0 0 3 5 0 0
5 0 0 0 0 5 70 100 100 100 100 100 100 100 100 100 100 100 100 100 100 100 87 86 72 80 49 38 5 5 5 5 3 5 5 5 19 5 1 5 91 13 2 0 4 3 4 0 0
41 5 0 0 0 5 5 23 100 100 100 100 100 100 100 100 100 100 100 100 98 97 100 100 98 47 40 5 6 5 5 5 5 99 24 90 5 13 16 58 4 2 3 13 2 5 0 0 0
12 72 44 1 5 5 13 23 100 100 100 100 100 100 100 100 100 100 100 100 100 78 100 100 98 100 99 77 31 5 5 5 100 84 99 5 5 44 85 66 75 91 89 4 63 8 0 0 0
5 5 42 8 25 44 5 15 99 100 100 100 100 100 100 100 100 100 100 100 100 100 100 100 100 100 100 100 46 5 5 32 82 99 65 86 96 99 23 64 92 96 5 94 5 3 0 0 0
5 47 76 91 68 9 15 32 100 100 100 100 100 100 100 100 100 100 100 100 100 100 100 100 100 100 100 5 5 5 37 100 100 100 96 100 100 100 98 89 91 6 7 4 0 0 0 0 0
54 91 87 100 78 63 72 100 100 100 100 100 100 100 100 100 100 100 100 100 100 100 100 100 100 100 61 21 93 100 100 100 100 100 100 100 100 100 100 89 23 74 5 5 2 0 0 0 0
62 100 97 49 66 97 100 100 100 100 100 84 100 100 100 100 100 100 100 100 100 100 100 100 100 84 100 100 100 100 100 100 100 100 100 100 100 100 52 33 100 5 5 4 0 0 0 0 0
99 99 86 87 84 100 100 100 100 100 100 95 100 100 100 100 100 100 100 100 100 100 100 100 100 100 100 100 100 100 100 100 100 100 100 100 78 61 5 7 5 5 0 0 0 0 0 0 0
96 97 79 98 100 100 100 100 100 100 100 100 100 100 100 100 100 100 100 100 100 100 100 100 100 100 100 100 100 100 100 100 100 100 100 100 86 82 5 5 5 2 5 0 4 1 0 0 0
100 98 100 100 100 100 100 100 100 100 100 100 100 100 100 100 100 100 100 100 100 100 100 100 100 100 100 100 100 100 100 100 100 100 100 71 5 5 5 4 3 12 5 2 5 23 10 5 5
100 100 100 100 100 100 100 100 100 100 100 100 100 100 100 100 100 100 100 100 100 97 100 100 100 100 100 100 100 100 100 100 100 95 39 16 38 78 70 5 5 5 5 3 5 18 35 5 9
100 100 100 100 100 100 100 100 100 100 100 100 100 100 100 100 83 99 100 100 100 99 100 100 100 100 100 100 100 100 100 93 96 95 100 100 100 100 100 29 24 4 3 10 5 4 4 5 5
100 100 100 100 100 100 100 100 100 100 100 100 100 100 100 100 100 100 99 100 100 100 100 100 99 94 96 100 99 100 100 96 90 100 100 100 100 100 100 100 99 88 88 5 20 5 4 9 7
100 100 100 100 100 100 100 100 100 100 100 100 97 100 100 100 100 100 100 100 70 16 29 42 42 82 82 100 100 99 100 100 100 100 100 100 100 100 100 100 100 100 100 87 67 51 3 21 3
100 100 100 100 100 100 100 100 100 100 100 100 100 100 100 100 100 33 47 50 53 31 100 100 67 100 100 100 100 100 100 100 100 100 100 100 100 100 100 77 33 26 95 52 6 3 6 10 22
100 100 100 100 100 100 100 100 100 100 100 100 100 100 100 72 84 44 99 100 88 75 74 92 80 100 100 100 100 100 100 100 100 100 100 100 100 78 42 15 0 0 0 0 4 5 63 48 13
100 100 100 100 100 100 100 100 100 100 100 88 62 60 6 8 100 100 95 64 53 53 30 96 100 100 100 100 100 100 70 100 100 90 58 2 0 0 0 0 0 0 2 5 5 5 5 23 16
96 100 100 100 100 100 100 100 100 100 100 95 100 100 100 100 98 99 83 29 14 22 13 39 48 36 86 100 95 12 37 29 11 5 39 4 2 3 4 5 4 0 2 4 2 3 2 5 14
84 75 67 89 99 100 100 97 94 82 14 39 100 84 63 72 70 22 4 0 0 2 7 14 12 42 5 77 63 30 5 5 5 5 5 5 7 91 39 1 0 0 0 0 3 11 31 6 5
89 60 39 30 46 76 98 100 64 25 44 20 54 74 8 5 5 2 0 4 5 5 6 77 68 5 7 5 38 14 92 5 20 59 27 44 69 5 5 5 5 5 22 60 90 39 5 1 5
91 94 93 81 85 99 64 41 5 5 2 1 0 4 3 0 0 0 5 5 5 23 66 69 72 78 98 97 68 82 21 7 5 52 100 99 13 5 5 5 12 74 10 5 5 5 5 5 2
9 46 38 9 4 4 4 3 0 0 0 0 0 0 4 3 4 5 5 29 46 15 69 85 87 98 100 92 77 10 7 25 5 5 8 5 5 5 5 5 5 5 4 3 2 0 0 2 5
0 2 3 2 0 0 0 0 0 0 0 0 0 0 0 0 5 5 25 100 93 53 63 5 5 5 15 98 100 100 64 7 43 34 5 5 5 5 5 3 2 4 1 2 5 5 5 5 5
0 0 0 0 0 0 0 0 0 0 0 0 0 0 0 0 5 27 92 67 4 2 5 5 5 5 69 5 6 6 5 26 5 5 5 5 1 1 5 5 4 5 5 65 5 4 5 5 9
0 0 0 0 0 0 0 0 0 0 0 0 0 0 0 4 5 4 0 0 0 5 5 5 7 44 71 56 99 73 38 5 5 5 5 5 5 5 6 5 5 5 6 5 0 4 3 30 19
0 0 0 0 0 0 0 0 0 0 0 0 0 0 2 2 0 0 0 2 5 5 15 84 99 85 100 100 65 71 5 5 5 15 27 42 74 33 55 5 4 5 5 5 4 38 5 84 94
0 0 0 0 0 0 0 0 0 0 0 0 0 0 1 0 1 5 5 5 9 5 6 29 50 95 100 92 98 6 29 92 72 42 17 14 5 5 5 2 5 4 5 5 5 63 99 100 96
0 0 0 0 0 1 0 0 0 0 1 5 5 5 5 5 5 5 5 18 58 48 78 99 88 100 100 46 34 98 49 5 5 43 5 5 0 3 5 0 5 4 82 50 79 100 49 74 100

GFSSGP_prec_cloud_048.txt.gz
Cloud_Cover
0 0 0 0 0 2 23 99 100 100 100 100 100 100 100 100 100 100 99 100 100 100 100 100 100 100 87 30 100 100 100 100 100 100 2 0 5 4 0 0 0 1 65 9 0 20 100 37 94
0 0 0 0 0 1 41 30 94 100 100 100 100 100 100 100 100 100 100 100 100 100 100 100 100 100 100 100 100 68 99 68 21 5 4 35 6 3 0 0 1 4 1 2 43 94 95 90 18
0 0 0 0 0 3 26 0 30 82 100 97 100 100 100 100 100 100 100 100 100 100 100 100 100 100 100 100 100 44 23 5 4 5 4 3 5 4 7 4 5 5 89 100 96 100 33 90 0
57 4 2 0 0 0 2 6 6 5 57 37 100 100 100 100 100 100 100 100 100 100 100 100 100 65 26 100 6 18 5 29 62 5 5 5 2 5 5 17 96 44 56 91 96 5 68 5 4
5 33 26 39 0 0 2 56 36 59 18 97 100 100 100 100 100 100 100 100 100 100 100 89 75 76 21 79 41 10 15 5 5 5 11 5 6 7 36 60 35 46 99 100 94 6 21 6 1
4 5 37 100 39 0 4 93 45 91 13 87 100 100 100 100 100 100 100 100 100 100 100 100 100 100 99 84 100 100 6 5 48 14 79 40 95 100 100 99 100 100 100 31 85 65 4 2 2
5 5 5 97 97 84 56 41 97 96 99 98 100 100 100 100 100 100 100 100 100 100 100 100 100 100 100 100 100 100 100 100 100 100 100 100 100 99 100 100 100 100 26 100 94 18 5 3 0
6 94 10 23 100 100 100 48 37 97 100 100 100 100 100 100 100 100 100 100 100 100 100 100 100 100 100 100 100 100 100 100 100 100 100 100 100 100 100 100 83 99 72 5 75 35 5 0 0
5 7 100 100 100 67 60 86 100 100 98 100 98 99 100 100 100 100 100 100 100 100 100 100 100 100 100 100 100 100 100 100 100 100 100 100 100 100 100 100 94 7 24 19 5 3 0 0 0
22 11 100 96 64 100 95 100 100 100 100 100 86 33 100 100 100 100 100 100 100 100 100 100 100 100 100 100 100 100 100 100 100 100 100 100 100 100 99 100 83 23 5 35 1 0 0 0 0
100 82 74 96 81 98 100 100 100 100 100 100 99 100 100 100 100 94 72 100 100 100 100 100 100 100 100 100 100 100 100 100 100 100 100 100 100 100 16 54 5 34 24 5 0 0 0 0 0
100 100 100 100 100 100 100 100 100 100 100 100 100 99 75 50 51 100 100 100 100 100 100 100 100 100 100 100 100 100 100 100 100 100 100 98 61 5 76 85 100 100 5 5 2 0 0 0 0
100 100 100 100 100 100 100 100 100 100 100 100 100 100 92 100 100 100 100 100 100 100 100 100 100 100 100 100 100 100 100 100 100 27 61 84 100 90 64 100 100 100 80 5 0 5 31 12 18
100 100 100 100 100 100 100 100 100 100 100 100 97 100 85 84 100 100 100 100 100 100 100 100 100 96 100 100 100 100 100 56 76 100 100 72 100 100 100 100 100 75 24 67 71 67 98 7 0
100 100 100 100 100 100 100 100 100 100 100 100 100 100 100 100 100 100 100 100 100 99 100 100 100 100 100 100 92 80 96 100 100 100 100 90 100 100 100 100 100 100 100 100 100 100 79 5 0
100 100 100 100 100 100 100 100 100 100 100 100 100 100 100 100 100 100 97 100 100 100 100 100 100 100 82 94 65 76 100 100 100 100 100 100 100 100 100 100 100 100 100 100 100 100 19 9 0
100 100 87 100 100 100 100 100 100 98 100 98 100 100 97 100 100 100 100 100 100 100 100 77 87 86 99 94 100 100 100 100 100 100 100 100 100 100 100 100 100 100 100 100 100 64 0 0 0
100 100 100 100 100 99 100 100 100 100 100 100 100 100 100 100 100 100 100 73 50 29 38 53 99 100 80 100 100 100 100 100 100 100 100 100 100 100 100 99 100 100 100 25 98 6 4 5 5
100 100 100 100 100 100 100 100 100 100 100 100 100 100 100 100 96 46 74 76 79 95 100 100 61 65 80 96 100 100 100 100 100 100 100 100 100 8 5 5 60 7 26 5 0 0 0 0 2
100 100 100 100 100 100 100 100 100 100 100 100 86 84 93 96 100 99 97 72 58 93 99 72 28 7 16 5 5 67 52 79 100 93 52 64 85 100 100 24 5 5 5 0 0 0 1 5 5
100 100 100 100 100 100 100 98 71 14 10 66 94 92 97 77 57 73 81 74 40 48 40 28 15 5 5 11 26 89 100 98 98 100 100 100 100 100 6 2 5 4 2 2 5 20 55 62 93
100 67 78 74 90 100 91 84 100 100 99 99 99 100 91 96 83 28 8 5 5 5 5 5 5 5 35 12 8 38 66 85 100 54 5 5 6 1 0 5 5 5 16 90 100 100 82 11 5
100 100 86 62 44 15 14 12 25 94 72 68 40 57 85 35 5 4 5 5 5 5 5 32 59 5 5 7 55 91 82 98 88 64 58 5 2 3 5 5 56 41 70 74 35 6 5 5 5
90 91 96 72 32 30 42 6 84 38 33 10 3 1 0 0 0 5 5 5 5 5 8 11 5 5 12 71 82 75 64 78 78 70 5 5 1 5 5 5 5 5 5 6 20 8 10 7 26
76 45 14 5 6 8 2 0 0 0 0 0 0 0 0 0 0 1 5 5 5 34 9 4 5 7 30 56 63 59 9 5 5 5 18 5 5 5 5 5 6 51 23 6 16 56 91 69 87
5 5 5 5 3 0 0 0 0 0 0 0 0 0 0 0 0 5 5 14 62 4 0 5 5 5 5 5 21 54 5 33 75 85 36 5 5 17 28 5 5 5 6 83 93 54 49 84 83
29 6 5 5 0 0 0 0 0 0 0 0 0 0 0 0 0 5 5 5 0 1 5 5 9 35 14 85 80 88 100 74 26 5 20 53 19 5 5 6 87 5 23 48 65 66 75 99 59
5 4 0 0 0 0 0 0 0 0 0 0 0 0 0 0 1 5 0 0 0 4 5 5 15 69 79 99 88 96 99 14 5 5 6 5 5 5 6 21 5 5 5 55 55 68 76 93 82
0 0 0 0 0 0 0 0 0 0 0 0 1 4 5 5 5 5 5 5 4 5 5 16 54 49 67 96 100 94 94 13 57 54 6 5 5 5 40 4 5 5 5 25 14 51 76 66 99
0 0 0 0 0 0 0 0 0 0 0 3 5 5 5 5 5 5 5 5 5 5 5 18 100 64 89 100 68 7 68 79 53 5 5 5 5 5 5 5 5 5 5 28 17 57 44 79 100

GFSSGP_prec_cloud_051.txt.gz
Cloud_Cover
0 0 0 0 0 0 0 6 89 23 98 41 97 100 100 99 100 100 99 100 100 100 92 100 89 40 99 100 100 100 100 76 52 93 90 34 25 92 97 2 1 6 10 0 0 0 2 5 5
0 0 0 0 0 0 5 29 49 19 100 100 58 100 85 84 100 100 100 100 100 100 100 100 100 93 80 96 100 100 100 72 100 53 100 99 5 21 5 2 3 2 2 4 3 5 5 36 100
0 0 2 0 0 0 92 100 31 44 12 22 5 92 91 100 93 100 100 100 100 100 100 100 100 99 100 75 40 100 100 100 100 100 50 5 6 6 4 2 5 5 5 5 5 14 100 100 100
5 2 2 0 0 10 18 39 98 0 63 16 99 78 75 56 74 100 100 100 100 100 100 100 100 100 100 100 100 100 100 100 61 6 17 5 5 5 16 5 5 27 43 100 99 100 97 100 46
5 60 27 12 4 22 8 78 97 55 77 19 2 100 75 100 100 100 100 100 100 100 100 100 100 100 100 100 80 69 47 84 100 100 90 97 26 45 88 23 100 100 92 100 100 99 100 78 100
0 15 90 92 99 25 27 17 0 94 33 73 77 49 95 100 100 100 100 100 100 100 100 100 100 100 84 54 93 100 90 100 100 100 100 100 69 98 94 81 100 100 89 98 100 43 79 87 63
5 11 45 100 100 76 25 41 98 95 20 92 71 46 66 38 100 100 100 100 100 100 100 100 100 100 100 100 100 100 100 100 100 100 100 100 100 100 92 100 52 100 97 100 100 20 99 8 5
6 62 75 91 40 63 87 99 100 98 9 50 100 65 38 92 100 100 100 100 100 100 100 100 100 100 100 100 100 100 100 100 100 100 99 100 100 100 100 100 100 100 100 100 50 50 95 39 5
92 84 91 100 65 69 91 4 42 85 86 97 64 69 37 15 91 100 100 100 100 100 100 100 100 100 100 100 100 100 100 100 100 100 100 100 100 100 100 100 100 100 100 93 33 11 10 5 4
100 100 95 54 91 100 100 81 18 65 54 100 84 96 91 6 36 100 100 100 100 100 100 100 100 100 100 100 100 100 100 100 100 100 100 100 100 100 100 100 100 100 66 6 36 6 5 5 43
100 100 60 75 100 100 100 21 5 81 100 100 99 78 82 15 41 54 100 100 100 100 100 100 100 100 100 100 100 100 100 100 100 100 100 100 100 100 100 100 100 100 44 46 29 5 8 0 0
98 100 100 76 100 100 5 5 12 100 100 99 100 99 34 73 88 75 100 96 100 100 100 100 100 100 100 100 100 100 100 100 100 100 100 100 100 100 100 100 92 100 99 74 79 61 7 6 2
100 100 100 100 100 82 23 61 100 100 100 91 53 71 96 70 92 100 78 14 72 100 100 100 100 100 100 100 100 100 100 100 100 100 100 100 100 100 100 100 90 100 39 100 100 100 88 74 14
100 100 100 100 100 100 99 100 100 100 100 100 66 85 93 100 93 100 100 95 96 100 100 100 100 100 100 100 100 100 100 100 100 100 100 100 100 100 42 57 95 100 81 81 96 98 94 100 100
100 100 100 100 89 63 100 100 100 100 100 100 100 100 94 100 95 100 98 100 100 100 100 100 100 100 92 100 100 100 100 100 100 100 99 100 100 100 100 99 100 100 100 100 100 100 100 100 67
100 100 100 100 94 91 100 100 100 100 100 100 100 100 100 100 100 100 100 100 100 100 100 100 100 100 100 100 100 100 100 100 100 100 100 99 100 100 100 100 100 100 100 100 100 100 100 100 95
100 100 100 100 100 100 100 100 100 100 100 100 100 100 100 100 100 98 98 100 100 82 83 99 100 100 100 100 100 100 100 100 100 100 100 100 100 100 100 100 100 100 100 100 77 99 56 5 5
100 100 100 100 100 100 100 100 100 100 100 100 66 100 99 100 100 87 100 100 100 100 100 100 100 100 100 100 100 100 99 99 100 100 100 100 96 100 100 93 84 98 100 100 100 100 23 10 7
100 100 100 100 100 100 100 100 100 100 100 100 100 100 100 100 100 100 100 100 100 100 89 100 100 100 81 22 29 5 5 5 43 100 100 100 80 82 100 90 99 100 0 3 4 3 5 3 0
100 100 100 100 100 100 100 100 100 100 100 100 100 100 100 100 100 100 100 100 99 87 100 99 91 88 72 74 90 30 5 54 11 67 61 45 70 99 71 99 47 5 3 0 4 5 5 10 24
100 100 100 100 100 100 100 100 100 100 100 100 100 100 100 100 94 71 78 80 100 94 92 89 44 33 5 5 5 5 63 76 67 92 98 100 100 100 100 41 2 0 0 1 5 5 45 96 90
100 100 100 100 100 100 100 100 100 100 100 100 100 64 57 77 91 60 92 98 98 65 7 5 5 5 5 5 5 18 57 93 98 100 70 55 41 42 12 5 2 5 5 5 5 5 5 5 5
100 100 100 100 100 100 100 100 100 100 100 100 100 100 99 86 72 54 38 5 5 3 4 5 5 5 5 5 5 9 61 93 95 90 19 5 6 6 4 4 5 5 5 5 5 9 93 86 90
100 100 100 99 99 98 98 100 100 100 88 66 65 44 56 50 17 5 4 1 0 0 1 5 5 4 1 5 5 6 33 84 93 63 5 5 5 5 5 5 5 5 6 82 86 64 98 68 67
100 99 100 99 100 84 99 96 100 43 22 7 5 8 5 2 0 0 0 0 0 0 5 5 1 2 5 5 5 5 31 84 95 50 55 9 5 2 5 5 5 5 5 6 33 65 96 74 98
68 97 100 51 99 100 15 5 5 5 4 5 0 0 0 0 0 0 0 0 0 5 5 0 22 33 15 5 5 5 89 75 29 86 100 63 13 4 5 5 5 5 5 9 60 5 95 70 58
10 5 5 5 5 5 16 17 5 1 0 0 0 0 2 0 0 0 0 0 5 4 17 6 50 79 11 13 15 18 97 89 97 97 100 88 5 5 8 5 5 5 5 5 11 54 81 77 94
1 4 5 5 5 1 35 1 29 0 0 0 0 0 0 0 0 8 11 17 27 71 78 72 60 25 26 46 77 100 100 94 94 76 36 5 5 5 8 5 5 5 5 5 5 91 99 90 89
5 5 5 3 2 0 0 2 0 0 0 0 0 0 3 3 6 11 36 51 53 88 70 8 5 6 32 99 100 73 95 96 17 17 14 5 5 5 5 5 5 5 5 5 76 100 100 99 94
5 1 0 0 0 0 0 0 0 0 0 0 0 0 5 5 3 25 40 32 15 0 1 5 5 17 81 96 100 99 98 49 6 66 8 5 5 5 5 5 5 5 5 5 53 97 94 46 99

GFSSGP_prec_cloud_054.txt.gz
Cloud_Cover
0 0 0 5 3 0 0 0 0 10 2 32 5 19 22 96 100 90 100 100 77 100 100 100 58 67 64 20 29 98 99 90 100 96 92 100 100 100 100 100 100 7 5 3 0 0 0 0 0
0 0 0 3 2 0 0 30 100 59 59 2 4 100 23 67 100 82 76 94 100 90 100 100 100 100 98 92 21 76 35 25 100 100 100 100 100 72 74 81 64 5 5 3 3 5 4 5 5
0 0 0 3 0 0 2 81 97 13 5 44 4 77 100 100 100 89 78 77 100 100 100 100 100 100 92 100 99 98 89 90 100 99 100 100 100 100 89 85 61 5 4 5 8 58 12 26 77
0 0 0 0 2 5 92 18 0 64 100 99 30 100 100 100 100 98 92 99 100 100 100 100 100 100 100 100 100 100 100 100 100 100 98 98 76 100 100 100 100 100 82 100 52 99 100 100 100
4 4 0 0 5 100 94 2 0 91 100 100 29 14 97 100 100 94 72 87 100 100 100 100 100 100 100 100 100 100 100 100 100 100 100 96 92 100 100 100 100 96 100 100 100 98 100 100 100
4 19 5 4 72 100 75 5 8 94 84 97 3 15 2 16 42 71 88 96 100 100 100 100 100 100 100 100 100 100 100 100 100 100 100 100 100 100 100 100 100 100 100 99 99 100 100 100 100
4 5 8 62 100 100 71 0 95 100 96 68 38 61 90 17 38 100 100 100 100 100 100 100 100 100 100 100 100 100 100 100 100 100 98 100 100 100 100 100 100 100 100 100 100 100 100 100 39
58 5 5 52 90 100 21 7 5 5 59 9 100 99 48 8 5 88 100 100 100 100 100 100 100 100 100 100 100 100 100 100 100 100 100 100 100 100 100 100 100 100 100 100 100 100 100 98 96
5 4 6 94 69 92 7 56 100 100 100 96 100 53 38 100 100 75 99 100 100 100 100 100 100 100 100 100 100 100 100 100 100 100 100 100 100 100 100 100 100 100 100 100 100 100 8 57 88
5 28 95 69 85 81 87 100 100 100 100 100 85 69 93 100 100 100 100 100 100 100 100 100 100 100 100 100 100 100 100 100 100 100 100 100 100 100 100 100 100 100 100 100 100 69 23 5 3
96 97 100 42 64 79 100 100 100 100 100 100 100 98 100 95 100 100 100 100 100 100 100 100 100 100 100 100 100 100 100 100 100 100 100 100 99 100 100 100 100 100 100 97 24 6 98 20 67
100 100 100 55 11 41 100 100 100 100 79 96 99 89 10 21 11 100 100 100 100 100 100 100 100 100 100 100 100 100 100 100 100 100 100 100 100 100 100 100 100 100 100 99 96 25 81 11 92
100 100 100 100 14 92 100 100 100 100 98 88 54 99 87 37 59 48 98 100 64 100 100 100 100 100 100 100 100 100 100 100 100 100 100 100 100 100 100 100 100 100 100 95 82 37 11 2 5
100 100 99 100 100 45 100 100 100 92 86 100 45 60 97 100 100 100 89 49 26 25 41 72 97 96 100 100 100 80 100 100 100 100 100 100 100 100 100 99 100 73 100 55 26 82 100 100 100
100 100 93 100 100 100 100 98 50 5 100 100 51 100 64 100 100 90 100 100 99 100 100 100 100 100 100 100 100 100 100 100 100 100 100 100 100 100 100 100 93 69 100 98 99 100 100 100 100
100 100 97 100 100 100 100 99 94 88 100 100 73 100 100 100 100 100 100 100 100 100 100 100 99 100 100 100 100 100 100 100 100 100 97 100 100 100 100 100 96 36 99 100 98 98 99 88 5
100 100 98 100 100 100 100 71 100 97 70 45 100 100 100 91 100 100 100 100 100 100 100 100 100 100 100 100 100 100 100 100 100 98 94 62 99 100 100 99 100 100 71 100 100 99 55 99 50
100 100 100 99 98 100 100 100 100 100 100 98 100 100 98 99 100 100 100 100 100 98 72 91 100 100 100 100 100 69 59 99 88 12 5 8 5 32 87 58 53 71 74 86 100 79 42 1 0
100 100 100 80 97 100 100 100 100 100 100 100 100 100 100 100 72 100 100 88 77 40 100 100 100 100 100 100 100 68 81 4 4 4 5 5 5 5 5 5 5 5 5 0 0 0 0 2 5
100 100 100 94 97 100 100 100 100 100 100 100 100 100 100 98 97 87 96 100 100 100 100 100 100 100 100 51 17 5 5 18 5 5 5 5 5 6 6 28 4 5 5 4 0 0 4 3 0
100 100 100 100 100 100 100 100 100 100 92 98 99 100 100 100 100 100 100 100 100 100 100 100 69 17 6 100 30 5 4 5 5 5 5 13 17 5 5 5 5 5 5 0 0 0 2 0 4
100 100 98 100 100 100 100 100 100 100 100 100 100 100 100 100 100 100 100 100 87 81 86 51 83 38 73 30 5 3 5 5 5 12 99 34 9 6 5 5 5 5 0 0 3 1 0 0 5
100 96 100 100 100 100 100 100 100 100 80 44 92 61 78 97 66 90 93 74 64 42 48 50 2 82 5 7 6 5 73 100 98 54 89 84 72 8 5 4 5 5 5 5 5 82 79 7 5
100 99 100 100 100 100 100 100 100 100 100 100 99 100 100 97 86 82 56 76 64 7 5 0 11 0 1 0 0 5 5 5 5 13 5 9 31 80 70 11 5 5 5 4 4 10 2 5 5
100 100 100 100 100 100 100 100 100 100 100 100 34 35 24 66 67 29 5 1 0 0 0 0 0 0 0 0 1 5 5 5 13 96 97 28 96 100 100 54 54 5 5 5 5 4 81 18 5
100 100 100 100 100 100 100 100 17 94 81 81 78 31 7 2 0 0 0 0 0 0 0 0 0 0 0 0 3 5 11 28 77 100 62 88 100 46 8 41 7 5 5 5 5 6 40 9 4
100 95 98 73 32 72 56 66 47 23 13 5 5 1 0 12 2 0 0 0 0 0 0 5 23 78 57 0 5 5 40 100 100 86 100 95 100 95 5 5 5 5 5 5 5 5 10 86 8
64 84 45 90 64 76 52 29 76 78 2 0 0 0 0 0 0 0 0 0 64 32 16 0 73 100 32 1 6 61 100 98 100 100 86 84 48 5 5 5 5 5 5 5 5 5 5 12 5
5 5 3 1 32 86 4 96 5 0 0 0 0 0 0 0 0 0 23 89 43 96 87 3 64 78 6 50 63 78 100 100 95 74 38 60 6 5 5 5 5 5 5 5 5 31 89 22 5
0 31 30 7 0 3 0 0 2 0 0 0 0 0 0 0 0 1 42 100 100 77 68 19 5 5 21 86 100 100 100 98 7 86 45 5 5 5 5 5 5 5 5 6 5 5 5 5 5

GFSSGP_prec_cloud_057.txt.gz
Cloud_Cover
4 5 14 4 1 0 0 0 84 81 95 2 3 3 19 60 66 30 84 92 96 100 100 100 100 100 96 90 100 88 100 92 100 38 95 5 5 5 93 39 89 44 81 5 5 25 81 21 6
0 3 0 0 4 4 1 4 2 1 1 8 4 13 100 100 100 100 100 98 100 76 100 100 100 100 100 99 100 100 100 100 99 56 100 42 68 95 100 63 84 88 46 51 5 17 32 5 6
4 0 3 4 5 32 92 50 5 10 0 2 2 21 32 99 100 99 100 90 66 98 100 100 100 100 100 100 100 98 100 100 100 100 100 100 99 100 100 100 98 100 93 6 76 78 5 61 82
4 5 5 5 2 94 100 26 0 0 0 5 85 92 99 19 84 100 100 100 100 99 100 100 96 100 100 100 100 100 100 100 100 100 100 100 89 98 100 100 54 100 42 100 88 100 99 69 5
4 5 1 0 35 100 100 64 1 0 0 0 100 100 92 58 10 59 100 88 100 100 100 100 100 100 100 100 100 100 100 100 100 100 100 100 100 100 100 100 100 100 100 100 98 98 99 29 32
5 1 4 5 20 13 32 1 5 2 0 2 84 97 75 99 85 99 100 100 100 100 100 100 100 100 100 100 100 100 100 100 100 100 100 100 100 100 100 100 100 100 100 100 35 98 53 14 76
5 5 5 5 93 65 14 31 94 97 5 100 100 100 100 100 74 100 100 100 100 100 100 100 100 100 100 100 100 100 100 100 100 100 100 100 100 100 97 100 100 100 100 31 100 100 41 92 100
5 3 33 70 100 5 11 94 68 81 63 100 100 100 100 100 93 50 99 100 100 100 100 100 100 100 100 100 100 100 100 100 100 100 100 100 100 100 100 100 99 100 100 100 100 100 100 100 100
5 11 93 97 19 88 98 93 100 100 100 100 100 100 100 100 99 81 34 95 100 100 100 100 100 100 100 100 100 100 100 100 100 100 100 100 100 100 100 78 98 100 100 100 100 82 100 100 96
5 66 6 3 4 23 27 8 67 100 100 100 100 100 100 92 92 76 96 100 100 100 100 100 100 100 100 100 100 100 100 100 100 100 100 100 100 93 100 100 99 100 100 100 100 100 100 100 93
48 15 58 4 5 2 4 16 100 100 100 100 100 100 100 100 100 100 98 100 100 100 100 100 100 100 100 100 100 100 100 100 100 100 100 100 100 100 100 100 100 100 100 100 100 100 100 100 100
87 5 98 64 89 5 97 16 100 98 60 99 100 100 100 100 100 100 100 100 100 100 100 100 100 100 100 100 100 100 100 100 100 100 100 100 100 100 100 100 100 100 100 100 100 100 100 100 98
16 33 74 100 63 13 100 68 100 82 100 74 83 100 100 100 100 100 100 100 100 100 100 100 100 100 95 100 100 100 100 100 100 100 100 100 100 100 100 100 100 100 100 100 100 100 85 31 58
58 92 100 100 22 68 68 100 100 45 100 100 100 100 100 100 100 100 100 96 100 100 100 100 100 100 100 100 100 100 100 100 100 100 100 100 100 100 100 100 100 100 100 99 68 96 66 100 85
100 100 97 93 100 100 100 100 99 47 100 100 100 100 100 100 100 100 100 100 100 100 100 100 100 100 100 100 100 100 100 100 100 100 100 100 100 100 100 100 100 99 83 36 97 52 95 100 57
95 100 100 87 100 85 79 100 100 100 13 100 100 99 79 40 14 100 100 100 100 100 100 100 100 100 100 100 100 100 100 100 100 100 100 100 100 100 100 100 95 30 5 3 4 16 15 1 0
100 100 100 100 100 100 27 89 100 100 88 24 97 100 100 100 100 100 91 100 100 100 100 100 100 98 100 100 100 100 100 100 100 100 96 100 96 46 38 42 9 5 5 4 0 0 0 0 0
100 100 98 98 100 100 42 91 78 49 73 100 100 100 100 100 100 100 99 100 100 100 91 100 100 100 100 99 78 100 100 99 78 92 99 99 95 40 5 5 5 4 5 2 0 0 0 0 0
100 94 100 100 100 97 100 100 100 96 100 100 100 99 100 100 100 100 100 100 100 100 71 92 100 100 100 100 100 100 100 100 100 100 100 26 3 5 5 5 5 0 0 0 0 0 0 0 0
97 100 59 100 94 100 100 100 100 100 100 100 100 100 100 100 100 100 100 99 100 100 100 100 100 100 100 100 100 100 100 86 75 6 7 5 4 5 5 5 4 0 0 2 3 1 0 0 0
70 100 100 100 100 100 100 100 88 100 100 100 100 100 100 100 100 100 98 100 100 100 100 100 100 100 100 100 100 100 59 74 34 22 2 4 5 5 5 5 5 4 5 5 5 4 0 0 0
70 98 100 100 100 100 100 100 100 100 100 100 100 100 98 97 100 100 100 100 100 100 100 100 100 99 18 9 8 13 14 8 0 0 0 4 1 4 0 5 5 5 50 84 96 1 0 0 0
100 98 100 100 100 86 92 100 100 100 100 100 100 100 100 100 100 100 100 100 53 67 65 86 12 5 8 6 24 2 0 0 2 27 45 45 95 90 62 6 5 57 15 4 0 0 0 5 5
100 100 100 100 100 100 98 94 100 45 97 100 47 92 48 69 70 52 5 7 7 39 47 10 5 5 25 17 0 0 0 4 5 14 100 94 84 97 69 10 5 5 4 4 1 0 1 0 5
98 78 76 100 94 94 71 100 100 77 92 97 100 28 8 9 19 12 5 5 5 5 4 4 0 0 0 0 0 0 2 5 5 55 100 100 74 75 98 38 5 5 5 5 5 5 5 5 6
100 55 100 100 100 94 100 78 96 99 34 100 88 9 4 5 5 5 6 0 0 0 1 4 0 0 0 0 0 1 5 17 98 100 100 91 100 81 81 7 5 5 5 5 5 5 5 4 1
68 92 55 94 100 100 94 59 9 61 10 69 26 60 8 5 5 0 0 0 0 0 0 0 0 0 0 0 0 10 92 90 100 96 100 100 100 99 5 33 5 5 5 5 5 5 5 5 5
100 88 90 100 100 100 58 5 47 5 18 6 7 10 5 0 0 0 0 0 0 0 0 0 3 32 33 0 4 74 90 100 100 100 100 100 38 6 97 6 24 12 6 69 5 5 5 5 5
27 51 65 11 40 46 5 26 17 6 78 32 0 0 0 0 0 0 0 0 6 17 72 74 21 92 100 100 74 100 100 100 100 96 100 92 5 25 41 69 55 64 92 90 7 5 5 6 26
5 3 67 5 3 5 5 2 44 5 9 0 0 0 0 0 0 0 0 6 87 97 100 100 100 100 96 98 100 100 100 100 98 99 99 6 5 5 5 46 69 87 93 94 45 31 62 93 86

GFSSGP_prec_cloud_060.txt.gz
Cloud_Cover
0 2 72 90 45 55 7 7 5 6 29 62 5 61 100 88 7 8 44 6 58 100 80 73 99 100 100 100 97 86 100 100 100 100 97 98 89 100 100 100 32 62 26 77 15 5 98 3 5
0 0 7 100 95 100 100 96 89 15 6 12 100 33 96 99 100 100 56 56 76 100 93 96 100 100 99 100 100 100 100 100 100 100 100 96 98 100 100 100 100 100 95 100 94 12 5 5 4
0 1 64 100 100 100 100 100 100 5 0 0 17 6 22 95 99 98 23 69 100 100 68 89 86 99 100 100 100 100 100 100 100 100 100 100 100 100 100 100 99 100 100 98 46 66 15 4 1
0 2 84 100 100 100 100 83 5 4 0 3 3 25 36 100 100 92 72 62 38 100 92 100 100 100 100 100 100 100 100 100 100 100 100 100 100 100 100 100 100 100 100 73 99 46 44 5 5
0 0 12 100 100 100 76 46 5 2 4 3 1 1 60 100 99 100 100 89 60 100 99 100 100 100 100 100 100 100 100 100 100 100 100 100 100 100 100 100 100 100 100 89 31 6 5 53 93
0 0 45 100 12 92 5 12 48 46 81 10 3 0 44 100 100 100 100 100 94 100 100 100 100 100 100 100 100 100 100 100 100 100 100 100 100 100 100 68 100 100 99 93 86 97 89 100 5
0 0 74 82 5 8 3 33 5 100 100 97 94 6 87 100 100 100 100 100 100 100 100 100 100 100 100 100 100 100 100 100 100 100 100 100 100 100 100 100 100 95 100 99 100 100 100 79 6
0 11 100 100 17 4 5 19 8 86 100 100 99 21 94 100 100 100 100 100 100 100 100 100 100 100 100 100 100 100 100 100 100 100 100 100 100 100 100 92 96 100 100 100 100 56 100 100 100
5 88 99 55 5 1 5 4 5 100 100 100 100 100 84 99 100 100 100 100 100 100 100 100 100 100 100 100 100 100 100 100 100 100 100 100 100 96 74 100 100 100 100 100 100 93 100 100 100
48 6 79 32 21 4 5 2 0 100 99 100 100 100 100 100 100 100 100 100 100 100 100 100 100 100 100 100 100 100 100 100 100 100 100 100 78 100 100 100 100 100 100 100 100 96 100 100 100
98 69 4 11 4 0 0 0 0 100 60 100 100 100 100 100 100 57 89 96 100 100 100 100 100 100 100 100 100 100 100 100 100 100 100 100 100 100 100 100 100 100 100 100 100 100 100 100 100
4 2 0 0 4 0 0 1 0 100 100 100 100 93 100 100 100 100 100 100 100 100 100 100 100 95 100 100 100 100 100 100 100 100 100 100 100 100 100 100 100 100 100 100 100 100 100 100 100
5 5 5 1 3 54 2 47 100 100 96 95 100 100 100 100 100 100 100 100 100 100 100 100 100 100 100 100 100 100 100 100 100 100 100 100 100 100 100 100 100 100 100 100 100 100 100 100 100
93 96 80 100 98 93 4 91 100 100 87 100 100 100 100 100 100 100 100 100 100 100 100 100 100 100 100 100 100 100 100 100 100 100 100 100 100 100 100 100 100 100 100 100 100 100 100 70 20
100 100 100 100 100 100 85 31 100 78 73 100 100 100 100 100 100 100 100 100 100 100 100 100 100 100 100 100 100 100 100 100 100 100 100 100 100 100 100 100 100 100 100 100 100 73 19 22 5
60 90 100 100 100 100 100 100 100 83 64 100 100 100 100 100 100 100 100 100 100 100 100 100 100 100 100 100 100 100 100 100 100 100 100 100 100 100 100 100 100 100 22 14 6 5 5 5 4
56 94 100 100 100 92 91 100 100 100 90 100 100 100 100 100 100 100 100 100 100 100 100 100 100 100 100 100 100 100 100 100 100 100 100 100 100 100 94 95 77 99 56 50 20 5 3 0 0
98 66 84 84 50 100 97 99 100 100 100 100 100 100 100 100 100 100 100 100 100 100 100 100 100 100 100 100 100 100 100 100 100 98 98 100 100 100 100 100 100 93 13 5 4 0 0 0 0
99 42 8 16 41 77 98 96 100 100 100 100 100 100 100 100 100 100 100 100 68 100 100 100 100 100 100 100 100 100 100 63 100 100 100 100 100 14 5 2 5 19 4 0 0 0 0 0 5
7 77 38 45 12 96 52 100 100 100 100 100 100 100 100 100 100 100 100 19 24 94 100 98 100 100 97 100 100 98 97 98 100 100 100 100 98 87 23 52 6 5 4 1 3 5 5 21 3
59 69 95 87 79 91 100 100 100 100 100 100 100 100 69 46 74 78 80 97 96 100 78 95 58 99 100 100 100 100 100 100 98 76 6 7 15 15 2 5 1 1 0 5 5 5 3 0 1
98 92 100 98 100 100 100 100 100 100 100 100 100 91 62 46 53 88 100 100 96 96 94 99 100 100 100 100 100 100 100 99 74 24 34 6 1 4 0 1 2 4 5 5 5 5 4 0 0
56 96 100 100 100 100 28 54 100 100 100 100 100 100 77 98 100 100 100 100 100 100 100 100 100 70 34 7 10 14 39 32 41 3 0 1 5 5 5 5 5 5 5 5 3 0 0 0 0
34 93 94 87 71 91 63 40 96 95 78 100 100 100 100 100 100 100 100 100 100 98 28 18 10 19 36 13 58 67 8 0 0 1 5 40 65 90 99 79 73 27 22 5 0 0 1 5 0
81 5 30 56 33 90 8 51 84 56 68 100 100 100 99 100 98 5 5 81 48 32 5 29 70 58 14 2 0 0 0 0 5 5 24 96 87 83 56 100 100 69 5 5 5 5 5 3 1
5 24 5 7 5 5 76 52 98 100 94 70 47 87 100 100 86 29 4 6 5 5 3 4 1 0 0 0 0 0 0 5 41 18 100 100 98 100 64 100 99 86 5 5 5 67 5 5 5
40 16 24 37 16 6 85 6 93 64 76 100 8 4 31 5 48 71 8 5 5 4 0 0 0 0 2 1 5 5 9 95 92 93 93 100 100 100 100 98 100 6 5 5 56 61 5 5 5
90 83 25 26 57 12 75 22 89 28 5 6 5 4 5 4 5 5 2 0 0 0 0 0 10 39 1 1 23 35 100 95 99 83 21 77 95 98 94 99 30 6 10 78 97 12 15 5 6
100 97 99 81 87 21 5 66 5 1 5 42 82 5 5 5 2 0 0 0 0 0 0 0 0 4 33 12 4 64 76 21 100 95 100 33 77 88 100 61 54 76 98 100 78 76 46 55 69
87 30 5 5 100 96 0 0 0 0 1 5 5 5 2 0 0 0 0 0 0 0 0 0 2 21 32 100 100 100 100 100 100 100 78 100 80 86 100 5 8 86 35 42 33 65 100 100 99

GFSSGP_prec_cloud_063.txt.gz
Cloud_Cover
0 0 0 0 1 5 82 59 100 84 100 100 52 99 70 77 90 55 74 10 100 100 99 52 78 82 17 100 100 100 100 96 73 82 18 75 26 64 5 5 42 7 80 100 10 5 5 5 5
0 0 0 0 28 68 100 100 100 52 9 17 63 100 85 74 76 100 64 98 92 100 99 76 36 5 34 43 99 100 100 100 100 97 98 100 71 69 39 91 84 92 38 12 28 13 12 9 6
0 0 0 2 100 100 100 100 99 85 3 2 5 98 53 94 90 100 55 46 100 100 97 61 5 47 5 99 100 100 100 100 100 100 100 100 96 100 100 91 100 100 14 18 5 7 6 33 30
0 2 0 61 100 100 100 100 100 100 5 5 1 9 82 100 84 81 43 97 100 100 78 18 23 23 100 92 100 100 100 100 100 100 100 100 100 100 100 100 100 74 11 52 32 93 19 23 8
4 10 7 30 82 100 100 100 98 96 5 11 5 29 29 100 100 79 74 100 100 96 79 100 100 100 100 100 100 100 100 100 100 100 100 100 100 100 100 95 92 78 57 100 68 56 87 7 22
4 7 14 7 96 100 72 28 5 5 5 4 5 10 92 100 100 97 100 72 98 90 85 100 100 100 100 100 100 100 100 100 100 100 100 100 100 100 100 100 100 100 100 98 90 87 5 94 12
0 5 12 52 100 100 15 5 4 5 59 100 93 75 67 100 100 100 100 100 100 100 100 100 100 100 100 100 100 100 100 100 100 100 100 100 100 100 100 100 99 96 100 100 100 100 92 15 54
5 5 3 100 5 5 3 4 5 99 69 100 100 100 100 100 100 100 96 100 100 100 100 100 100 100 100 100 100 100 100 100 100 100 100 100 100 100 100 100 82 100 98 48 100 90 10 100 100
5 40 59 100 86 16 5 4 5 71 100 100 100 100 99 100 100 100 98 100 100 100 100 100 100 100 100 100 100 100 100 100 100 100 100 100 97 100 100 100 100 100 100 94 100 100 100 100 100
5 9 49 78 100 79 5 0 0 66 100 100 100 100 100 100 100 100 100 96 99 100 100 100 100 100 100 100 100 100 100 100 100 100 100 100 100 100 100 99 100 100 100 100 100 100 100 100 100
9 4 5 89 100 97 78 4 0 0 92 100 100 100 100 100 100 100 100 100 100 100 100 100 100 100 100 100 100 100 100 100 100 100 100 94 91 99 100 100 100 100 100 100 99 100 100 100 100
49 6 25 99 40 80 79 5 1 1 76 100 100 100 100 100 100 98 100 100 100 100 100 100 100 100 100 100 100 100 100 100 100 100 100 100 100 100 100 100 100 100 100 99 100 100 88 100 100
71 61 5 73 73 70 10 0 0 13 100 100 100 100 100 100 100 100 100 100 100 100 100 100 100 100 100 100 100 100 100 100 100 100 100 100 100 100 44 100 100 100 100 100 100 100 100 100 100
6 47 83 21 8 34 33 4 1 98 100 100 100 100 100 100 100 100 100 100 70 100 100 100 100 100 100 100 100 100 100 100 100 100 100 100 100 100 100 89 66 80 99 100 100 100 100 98 67
80 100 100 100 100 99 6 98 92 98 100 100 100 100 100 100 100 100 100 100 100 100 100 100 100 100 100 100 100 100 100 100 100 100 100 100 100 62 96 97 100 100 100 100 100 94 99 100 93
64 58 92 29 76 100 100 79 100 100 100 100 100 100 100 100 100 100 100 100 100 100 100 100 100 100 100 100 100 100 100 100 100 100 100 99 100 100 100 98 100 100 100 100 100 100 82 35 60
94 94 60 100 95 99 97 94 100 100 100 100 100 100 100 100 100 100 100 100 98 100 100 100 100 100 100 100 100 100 100 86 100 100 68 100 100 100 100 93 100 100 100 100 74 56 26 56 51
96 100 98 100 87 96 55 41 100 100 100 100 100 100 100 100 100 96 94 98 100 100 100 100 100 100 67 100 90 96 98 100 100 100 95 96 100 100 95 96 100 100 100 100 99 27 5 3 0
100 65 100 100 81 97 56 35 95 100 100 100 100 100 100 100 100 100 100 100 100 100 100 100 100 100 100 100 81 100 100 72 100 90 100 100 97 100 100 100 100 60 5 5 5 2 0 0 0
97 49 100 100 60 65 100 100 100 100 100 100 100 100 100 100 100 100 100 100 100 100 100 100 100 100 100 100 100 100 100 100 100 100 100 100 100 100 100 62 5 28 5 2 0 0 0 0 0
70 59 92 81 100 100 100 43 100 100 100 100 100 100 100 100 100 100 100 100 100 100 99 100 100 80 100 95 95 100 100 100 100 100 100 100 100 44 5 22 4 0 0 1 1 4 31 12 3
71 96 93 100 100 100 100 100 100 100 100 100 94 100 100 100 100 100 100 20 77 69 10 85 99 21 66 56 100 100 100 99 82 76 14 25 80 46 4 5 1 4 3 6 74 78 77 5 0
77 65 65 100 100 98 100 100 100 100 100 100 100 100 100 100 100 100 100 100 96 62 88 100 100 100 100 98 100 100 97 91 22 6 24 38 5 2 1 6 12 7 7 82 92 74 73 3 5
59 40 47 80 91 51 82 100 100 86 100 100 99 94 97 100 100 100 100 100 100 100 100 100 100 100 84 66 70 6 12 32 36 6 3 5 5 14 79 97 100 100 100 82 5 9 61 6 5
81 99 75 90 52 50 82 91 100 72 95 37 62 8 59 77 66 79 100 100 98 100 100 100 100 100 96 51 21 56 18 2 2 5 5 12 5 89 98 70 100 100 99 40 5 42 5 5 5
5 5 32 44 86 49 81 11 99 100 96 73 7 5 5 3 6 9 28 55 95 100 99 97 100 60 19 47 8 3 5 4 5 5 8 81 44 100 99 100 100 72 29 89 62 100 19 5 38
23 10 66 83 99 62 91 95 100 12 79 100 99 10 9 6 94 26 10 24 64 94 29 69 34 8 6 1 3 4 6 84 100 100 100 59 100 100 100 100 100 87 79 88 52 71 85 42 5
83 66 50 26 16 25 77 78 64 19 6 48 28 30 74 60 20 5 22 5 12 5 5 4 0 0 0 0 4 65 100 97 96 100 100 100 79 100 100 100 100 93 12 85 88 61 62 69 78
79 20 5 17 10 5 8 42 5 5 42 69 82 98 75 86 72 15 5 5 5 0 0 0 0 0 0 0 49 90 100 35 46 21 98 100 100 100 100 100 90 8 92 90 93 98 49 61 93
53 67 66 24 9 15 5 70 6 74 35 5 5 24 36 5 0 0 0 0 0 0 0 0 0 0 0 3 5 95 94 100 55 95 100 100 100 46 100 74 48 6 85 100 89 80 48 89 99

GFSSGP_prec_cloud_066.txt.gz
Cloud_Cover
0 0 0 0 0 0 2 6 100 100 100 80 94 29 51 46 56 99 91 41 80 100 98 74 21 5 5 5 5 28 10 94 100 90 90 99 100 100 86 15 5 5 5 5 6 5 5 0 0
0 0 0 0 0 34 57 0 3 8 99 85 56 100 81 100 88 100 69 100 100 100 93 97 100 33 15 5 5 72 45 99 100 88 100 97 99 100 73 43 31 12 30 99 25 4 4 1 0
0 0 0 0 19 27 83 4 0 0 98 100 27 68 100 99 96 100 74 80 49 100 93 100 40 45 20 5 100 100 100 100 98 100 100 99 93 98 82 80 74 92 82 50 5 4 5 5 6
0 0 0 5 58 99 97 100 5 5 4 24 2 26 38 60 100 88 24 85 100 100 100 47 45 15 11 98 100 96 100 100 100 100 94 74 96 99 100 100 100 8 75 94 60 100 94 96 97
0 0 19 5 5 100 100 100 100 11 5 5 0 22 8 73 88 100 96 66 31 99 39 9 3 72 89 100 100 100 100 99 100 100 100 100 100 100 100 97 100 100 100 100 100 81 10 35 5
0 5 96 20 5 100 100 99 79 100 92 64 5 4 59 100 100 100 92 86 85 44 70 47 90 100 100 100 100 100 100 100 100 100 100 100 100 100 100 100 100 100 55 92 100 5 6 49 10
0 12 87 80 87 34 83 99 100 81 100 100 98 22 90 100 100 100 100 100 100 99 100 100 100 100 100 100 100 100 100 100 100 100 100 100 100 100 100 100 100 100 71 16 24 94 15 100 95
1 87 11 63 97 100 100 100 100 100 100 98 36 99 100 100 100 100 98 88 100 100 100 100 100 100 100 100 100 100 100 100 100 100 100 100 100 100 100 100 99 100 100 72 86 26 8 90 62
14 95 5 30 100 97 100 100 100 92 68 34 28 100 100 100 100 100 100 100 100 100 100 100 100 100 100 100 100 100 100 100 100 100 100 100 100 100 100 100 100 100 100 89 47 44 100 95 100
6 8 38 56 96 99 99 100 78 9 8 50 100 100 100 100 100 100 100 100 100 100 100 100 100 100 100 100 100 100 100 100 100 100 100 100 100 100 100 100 100 100 94 96 98 100 98 54 55
57 6 12 6 63 100 100 48 6 4 3 94 100 100 100 100 100 100 100 99 100 100 100 100 100 100 100 100 100 100 100 100 100 100 100 100 99 100 100 98 99 100 100 100 100 100 43 52 12
84 46 87 54 88 100 100 100 99 21 9 100 100 99 100 100 100 100 100 100 100 100 100 100 100 100 100 100 100 100 100 100 100 100 100 100 100 100 100 100 100 100 100 98 19 52 100 95 5
7 42 67 89 100 100 87 50 5 7 13 76 100 100 100 99 100 100 100 100 100 100 100 100 100 100 100 100 100 100 100 100 100 100 100 100 100 100 100 100 100 86 82 100 100 94 6 5 5
26 9 15 40 93 100 95 11 5 97 96 100 100 84 94 91 100 100 100 100 100 100 100 100 100 100 100 100 100 100 100 100 100 100 100 100 100 100 100 100 100 100 100 100 86 75 60 97 6
96 2 5 5 2 6 6 33 6 98 7 96 100 100 100 100 100 100 100 100 100 100 100 100 100 97 100 100 100 100 100 100 100 100 100 100 100 100 88 57 98 25 24 97 100 93 98 64 8
5 11 32 14 34 99 60 83 100 93 100 100 100 100 100 100 100 100 100 100 100 100 100 100 100 100 100 100 100 100 100 100 100 100 98 66 89 86 61 70 95 61 100 100 97 60 82 65 57
89 97 91 36 83 87 79 89 99 77 99 100 100 100 100 100 100 100 100 100 100 100 100 100 100 100 100 100 100 100 100 100 100 100 100 98 55 13 76 73 74 99 73 62 100 100 100 36 5
91 77 46 99 95 100 100 100 100 100 100 100 100 100 100 100 100 100 100 100 100 71 98 96 100 100 100 100 98 100 100 100 100 90 98 100 90 84 5 81 100 100 43 74 100 74 14 6 5
30 93 96 42 88 93 100 100 100 100 100 100 100 100 100 100 100 100 97 100 87 100 97 67 100 100 100 100 100 100 100 97 100 100 100 97 100 100 100 100 100 100 71 99 53 42 5 1 0
66 97 100 90 100 100 100 100 100 100 100 100 100 100 100 100 100 100 100 72 6 100 100 100 100 100 100 100 100 100 100 100 100 100 100 100 100 100 100 96 84 90 46 71 66 4 1 0 4
5 64 94 38 96 87 100 100 100 100 100 100 100 100 100 100 100 100 100 100 100 100 100 100 100 100 100 100 100 100 100 100 100 100 100 100 100 100 97 60 72 80 67 5 5 4 5 5 5
11 81 98 7 5 34 58 100 100 100 100 98 100 100 100 100 100 98 100 100 100 100 100 100 100 100 100 100 100 100 100 100 100 100 98 37 62 88 72 99 75 8 18 5 5 4 5 36 4
54 46 58 89 98 50 92 97 100 100 100 100 100 100 98 100 100 84 83 100 100 100 100 100 100 100 100 100 100 100 100 100 100 100 81 45 15 83 36 26 66 18 6 32 22 44 5 5 5
23 29 94 85 100 100 78 80 100 97 100 100 100 99 94 31 88 100 100 100 100 100 100 92 100 100 86 42 100 100 100 100 95 77 69 46 16 34 90 69 99 85 60 81 99 67 5 49 5
16 53 69 70 52 98 70 47 84 100 100 100 100 90 68 91 100 100 100 99 96 99 98 100 98 98 100 100 100 100 100 64 85 38 6 4 14 94 92 58 93 100 100 100 87 57 47 5 5
5 47 71 79 94 83 100 72 94 97 64 98 100 100 100 100 99 100 100 99 100 100 100 100 100 82 98 99 100 100 100 46 15 5 5 2 5 9 100 100 100 100 100 100 100 76 8 5 5
5 5 66 100 88 80 97 84 23 100 98 99 96 100 100 100 49 28 33 89 98 100 100 100 100 100 100 100 100 87 39 5 0 5 37 98 5 76 76 100 99 100 100 99 94 29 64 5 5
5 5 5 41 93 85 43 52 64 50 72 49 91 88 91 100 96 91 14 5 5 48 66 88 100 100 100 100 50 7 1 0 3 40 5 17 92 100 100 91 100 90 94 22 98 100 96 55 38
35 6 5 5 27 80 55 33 16 5 5 14 14 19 20 37 42 7 5 5 14 48 88 100 87 54 56 7 0 0 0 59 100 95 95 73 64 100 100 97 16 100 100 86 83 31 63 72 98
0 0 5 5 5 100 60 74 19 82 75 68 60 42 7 11 6 5 5 4 29 49 78 29 8 0 0 0 1 5 70 45 39 98 100 100 100 100 14 30 99 38 66 63 84 92 100 71 84

GFSSGP_prec_cloud_069.txt.gz
Cloud_Cover
0 0 0 0 0 0 0 0 5 71 100 100 5 2 58 82 44 83 72 48 100 71 46 6 3 5 5 5 5 5 5 9 5 5 98 25 5 59 35 25 5 60 29 5 5 5 5 2 2
0 0 0 0 0 0 0 0 5 57 98 100 75 19 49 98 42 96 100 75 100 90 52 75 72 74 5 5 5 5 64 65 5 64 46 7 5 74 74 100 100 95 14 5 8 75 21 12 5
0 0 0 0 0 0 0 0 0 0 59 100 100 100 100 93 98 100 75 87 100 98 69 84 100 73 55 92 20 81 98 80 7 92 90 70 51 91 100 100 100 70 27 96 23 58 5 24 36
0 2 1 0 0 0 0 60 91 13 100 100 100 87 100 100 100 98 100 100 100 98 49 90 46 5 90 100 100 63 5 20 32 99 100 29 59 100 100 100 100 97 75 98 52 99 25 99 100
0 2 4 0 2 8 22 100 100 9 16 100 100 100 96 92 100 97 90 100 100 96 44 17 6 36 90 37 100 100 15 71 100 98 79 96 82 100 100 100 97 86 94 99 55 19 11 90 84
2 4 5 5 37 61 90 100 100 86 6 3 21 97 100 100 100 100 100 99 81 100 74 50 60 98 100 100 100 100 95 100 100 100 100 100 100 100 100 98 82 85 82 84 100 42 7 38 4
0 3 71 100 98 98 100 100 97 100 100 97 84 94 68 100 100 100 100 94 100 97 95 100 100 100 100 100 100 100 100 100 100 100 100 100 100 100 100 100 100 100 100 19 5 5 5 5 5
1 48 100 75 91 100 100 100 100 100 100 100 100 100 69 100 100 100 100 89 100 100 100 100 100 100 100 100 100 100 100 100 100 100 100 100 100 100 100 100 100 100 100 100 100 48 86 56 5
60 69 98 94 84 100 100 99 100 99 44 94 100 100 69 100 100 100 100 100 100 100 100 100 100 100 100 100 100 100 100 100 100 100 100 100 100 100 100 100 100 100 100 93 100 100 94 100 17
88 10 100 62 6 100 84 100 100 98 84 94 84 45 100 100 100 100 100 100 100 100 100 100 100 100 100 100 100 100 100 100 100 100 100 100 100 100 100 99 91 81 100 99 75 100 97 50 66
97 66 99 94 20 83 100 71 60 23 16 4 5 65 100 100 100 99 100 100 100 100 100 100 100 100 100 100 100 100 100 100 100 100 100 96 80 100 97 100 100 90 68 94 45 100 6 42 6
69 97 84 100 32 78 8 58 58 5 5 0 2 67 100 100 100 100 100 100 100 100 100 100 100 100 100 100 100 100 100 100 100 100 100 100 100 100 100 100 100 100 100 100 77 56 100 79 37
0 50 57 20 100 99 36 57 14 7 37 5 66 100 100 100 100 100 100 100 100 100 100 100 100 100 100 100 100 100 100 100 100 100 100 100 100 100 100 100 100 95 100 30 97 100 84 16 13
6 9 18 5 5 39 81 36 61 23 100 100 100 99 100 100 100 100 100 100 100 100 100 100 100 100 100 100 100 100 100 100 100 100 98 100 100 100 100 83 100 90 10 84 100 98 50 99 10
33 8 5 5 5 7 5 40 5 5 99 13 60 98 100 100 100 100 100 100 100 100 100 100 100 100 100 100 100 100 100 100 100 100 100 100 65 100 78 8 61 27 70 39 35 5 77 22 35
5 16 79 6 5 35 18 4 5 5 23 0 83 100 100 100 100 100 100 100 100 100 100 100 100 100 100 100 95 100 100 100 100 100 100 100 100 100 100 100 94 90 87 5 44 17 28 100 99
5 100 98 73 14 41 42 60 61 91 4 61 100 100 89 100 100 100 92 89 100 100 100 100 100 100 100 100 100 100 100 100 100 100 100 100 100 100 100 100 98 6 5 39 62 97 100 98 91
3 86 100 85 97 70 87 100 100 100 29 100 100 100 98 97 100 100 100 100 100 100 100 100 100 100 100 100 99 97 100 100 100 100 100 100 100 100 93 58 8 81 100 100 99 52 14 18 25
5 6 100 60 35 89 98 98 100 100 100 100 100 100 100 100 99 100 100 100 100 100 100 100 100 100 100 100 100 100 100 100 100 100 100 100 100 100 66 86 42 76 100 100 96 6 29 55 34
5 11 100 98 55 87 54 100 92 100 100 100 100 100 100 39 100 88 90 100 100 23 78 100 94 100 100 97 100 100 100 100 100 100 100 100 100 100 100 89 100 95 43 65 42 24 59 5 3
5 5 54 59 99 100 76 99 100 100 100 100 100 97 100 100 100 99 89 93 100 95 33 43 99 62 76 82 96 81 100 100 100 100 100 100 100 52 65 100 100 58 35 40 47 23 5 5 5
5 5 5 32 64 26 100 100 100 98 100 100 100 100 100 100 100 100 100 88 88 95 68 81 36 51 75 90 88 100 100 100 100 100 100 100 100 73 76 55 34 38 9 5 33 8 5 5 5
5 5 71 62 82 87 57 93 76 100 100 100 99 100 98 98 100 100 100 100 100 100 100 100 100 100 100 98 81 98 99 100 100 100 100 100 95 21 51 26 5 42 92 100 100 31 70 39 6
5 5 5 5 55 100 69 51 98 100 100 100 98 95 73 100 92 98 100 100 100 100 100 100 100 100 100 100 100 100 100 100 100 100 100 100 100 61 6 5 19 77 68 100 100 100 71 67 50
0 5 5 5 100 88 98 75 61 77 100 100 98 96 72 93 100 100 100 100 100 100 100 100 100 100 100 100 100 100 100 100 100 100 100 100 94 6 5 5 29 52 72 100 100 87 71 40 28
1 3 5 5 30 56 100 100 79 100 100 99 78 95 100 100 98 65 100 100 100 100 100 100 100 100 100 100 100 100 100 100 100 100 100 100 26 5 23 76 16 100 100 99 83 47 6 8 5
2 1 1 5 31 38 81 100 100 99 44 39 27 8 31 10 6 53 93 98 100 100 100 100 100 99 100 100 100 100 100 100 100 100 100 8 41 81 72 66 100 100 100 51 5 24 5 5 6
0 4 5 5 71 93 77 99 92 46 98 14 6 52 97 71 49 41 35 60 62 63 100 14 90 100 100 100 100 100 100 100 97 91 12 44 97 91 99 100 100 100 95 6 5 5 5 40 42
4 0 0 0 8 98 66 96 47 13 26 96 72 92 68 69 100 75 5 5 5 5 5 44 88 100 100 100 100 100 100 75 84 100 61 95 91 100 100 100 100 76 18 86 16 5 39 61 6
1 4 1 0 3 70 99 100 42 12 71 74 76 55 28 20 40 9 79 26 11 5 9 74 94 100 98 100 95 99 90 100 100 94 100 100 100 100 100 100 100 26 59 5 57 39 5 5 5

GFSSGP_prec_cloud_072.txt.gz
Cloud_Cover
0 0 0 0 0 0 0 6 0 0 11 99 100 21 48 16 24 100 100 100 100 78 44 96 100 100 100 96 11 5 5 5 17 6 5 5 5 9 19 90 84 96 71 87 15 5 5 5 5
0 0 0 0 0 9 66 10 5 1 1 96 100 84 52 94 100 43 92 100 94 77 12 5 5 18 3 5 5 5 13 5 5 5 5 12 27 56 100 80 32 88 25 8 4 5 81 85 5
0 0 0 0 0 4 81 4 5 0 62 100 100 100 46 32 98 53 96 97 97 99 80 100 30 3 0 0 5 5 5 5 5 5 5 72 100 100 92 98 31 26 5 5 5 5 84 13 30
0 0 0 0 5 4 0 0 0 0 59 53 100 100 90 100 91 65 89 73 71 93 100 37 49 5 5 5 5 5 40 61 5 5 5 81 100 100 100 100 92 72 98 64 100 71 47 57 15
0 0 0 0 2 5 0 41 5 2 24 99 100 100 100 72 100 86 82 93 100 100 100 8 5 5 59 94 43 77 100 91 7 74 57 100 100 100 91 80 52 89 71 92 98 70 60 100 76
0 0 10 61 20 5 76 100 30 42 100 100 100 98 100 100 100 100 100 64 97 63 78 56 94 63 100 100 100 100 100 100 96 96 100 100 100 100 99 100 100 84 100 100 98 100 99 6 41
0 0 30 68 100 92 85 88 100 28 100 100 100 100 100 100 100 100 100 100 100 100 80 98 100 100 100 100 100 100 100 100 100 100 100 100 100 100 100 100 100 100 100 100 100 65 81 32 99
0 4 36 100 100 99 99 100 98 96 12 100 100 100 100 100 100 100 100 100 91 100 100 100 100 100 100 100 100 100 100 100 100 100 100 100 100 100 100 100 100 100 100 100 100 100 100 96 100
0 3 87 99 100 100 100 100 100 95 98 51 100 100 100 100 100 100 100 100 100 100 100 100 100 100 100 100 100 100 100 100 100 100 100 100 100 100 100 100 100 100 100 100 100 100 100 90 100
5 5 58 75 100 90 98 84 94 100 43 67 61 98 73 100 100 100 100 100 100 100 100 100 100 100 100 100 100 100 100 100 100 100 100 100 100 100 100 90 100 100 100 100 97 97 100 88 14
5 6 3 16 21 82 24 100 100 57 78 96 97 100 73 99 100 100 100 100 100 100 100 100 100 100 100 100 100 100 100 100 100 100 100 100 100 100 100 100 98 99 100 100 100 100 100 100 76
3 4 5 5 5 5 83 80 13 27 3 31 3 95 100 98 100 100 100 100 100 100 100 100 100 100 100 100 100 100 100 100 100 100 100 100 100 88 100 100 100 98 100 100 100 96 14 5 58
0 4 5 5 5 18 5 0 0 0 0 4 17 80 100 100 100 100 100 100 100 100 100 100 100 100 100 100 100 100 100 100 100 100 100 100 99 83 100 100 100 100 92 82 53 38 8 6 5
0 5 5 5 66 13 13 82 16 35 14 34 100 84 100 100 100 100 100 100 100 100 100 100 100 100 100 100 100 100 100 100 100 100 100 100 100 100 100 99 100 65 44 98 63 48 5 14 55
0 5 2 1 5 5 5 18 96 99 12 8 84 100 100 100 100 100 100 100 100 100 100 100 100 100 100 100 100 100 100 100 100 100 100 100 100 100 100 100 70 76 96 95 99 99 100 100 100
0 18 100 6 59 27 5 98 37 92 5 1 6 100 100 100 100 100 100 100 100 100 100 100 100 100 100 100 100 100 100 100 100 100 100 100 100 73 58 51 71 76 45 100 100 100 67 84 25
11 100 58 100 42 100 100 46 53 34 6 6 18 100 100 100 100 100 100 100 100 100 85 77 100 100 100 100 100 100 100 100 100 100 100 100 52 88 100 86 100 100 100 96 90 78 64 97 82
100 69 12 27 42 5 44 100 100 100 50 24 89 100 100 100 100 100 100 100 100 100 100 100 100 100 100 100 100 100 100 100 100 100 100 100 100 97 86 93 100 80 74 92 100 100 51 74 100
1 22 44 96 15 9 57 99 87 100 98 100 100 100 100 87 100 100 100 100 100 100 100 100 100 100 100 100 100 100 100 100 83 100 100 100 100 100 94 100 100 100 100 100 100 9 9 90 22
22 99 89 63 48 92 98 78 64 30 52 100 100 100 100 100 100 83 100 100 100 94 100 100 100 100 100 100 100 100 100 100 100 100 100 100 100 100 85 86 100 100 100 86 25 20 17 12 5
20 42 13 38 50 100 71 8 45 22 5 98 100 100 100 64 100 100 100 100 100 100 91 100 77 85 100 100 100 100 100 100 100 100 100 100 100 100 100 100 100 100 72 66 6 11 29 5 14
97 12 2 26 100 99 19 100 6 5 5 61 99 53 100 78 36 100 100 100 100 99 100 100 54 43 56 75 26 57 99 100 100 100 100 100 100 91 92 100 100 100 94 53 5 56 40 96 25
65 5 5 5 38 68 7 76 100 5 56 47 99 100 65 96 95 5 91 100 6 39 43 82 41 58 91 84 97 74 90 100 100 100 100 100 100 99 100 100 100 100 97 13 54 5 18 100 77
5 5 5 5 5 100 94 6 100 100 86 72 63 90 85 100 86 100 100 91 100 100 97 98 100 100 100 100 100 100 100 98 100 100 100 100 96 100 100 100 100 100 100 69 86 100 100 90 15
5 8 88 78 67 79 77 10 93 38 78 98 97 90 90 91 100 97 100 100 100 100 100 100 100 100 46 76 93 100 100 100 100 100 100 100 95 100 100 100 100 100 60 99 100 100 100 79 8
0 24 100 97 71 95 27 11 14 20 100 100 68 83 73 58 32 29 50 79 100 100 100 100 100 100 100 100 100 100 100 100 100 100 100 100 100 100 100 100 99 8 29 100 100 100 100 99 7
3 1 3 2 3 70 19 5 5 10 5 6 5 5 34 54 86 98 100 100 100 31 95 100 98 99 100 100 100 100 100 100 100 100 100 100 100 100 100 95 12 74 95 100 100 93 60 88 7
5 17 6 3 20 15 42 73 19 5 5 5 25 71 14 53 54 27 27 17 13 5 5 5 6 21 69 74 100 100 100 100 100 100 100 100 100 90 73 99 100 100 100 100 73 8 5 5 5
5 5 4 24 18 5 12 67 100 24 65 12 10 10 12 17 31 60 43 96 100 95 6 5 5 5 5 27 95 100 100 100 100 100 100 100 94 98 100 100 100 100 100 73 24 9 5 5 5
82 93 70 33 87 1 35 100 8 27 94 28 5 7 70 100 100 70 5 5 6 5 7 50 7 6 5 34 100 100 100 100 100 100 100 100 100 100 100 100 100 100 99 69 69 78 5 5 5

GFSSGP_prec_cloud_075.txt.gz
Cloud_Cover
0 0 0 0 0 5 1 66 100 19 0 70 14 13 93 54 100 100 100 36 69 35 100 100 100 100 100 100 100 100 100 97 100 100 76 5 5 5 5 5 15 5 5 21 22 5 95 9 10
0 0 0 0 2 44 100 100 100 33 11 0 1 0 64 100 100 100 100 100 100 82 74 100 95 100 58 84 59 41 41 25 5 19 5 5 5 5 6 65 69 31 12 22 38 6 7 4 14
0 0 0 60 92 100 100 37 53 95 46 0 0 2 100 100 100 100 100 100 100 98 68 70 100 89 13 34 33 88 87 5 5 5 5 5 74 33 71 85 6 25 16 6 83 12 22 5 5
0 0 0 0 69 100 14 93 64 56 3 0 0 37 20 100 100 100 100 100 100 100 17 40 100 71 5 0 0 5 3 3 5 5 25 42 66 79 64 38 15 90 5 99 98 99 14 5 20
0 0 29 100 100 100 69 17 6 5 100 87 3 27 0 100 98 100 100 25 96 100 100 28 97 59 3 6 5 5 5 17 54 100 84 100 92 98 100 90 76 57 100 100 100 96 78 23 77
0 0 48 100 100 19 53 100 14 69 100 100 49 67 28 70 55 57 97 36 31 100 88 57 97 89 36 23 8 72 97 100 98 100 100 100 100 99 100 100 100 100 99 100 100 100 93 100 54
0 84 100 94 94 71 100 95 99 58 99 98 100 100 100 100 100 100 100 100 100 100 100 100 100 100 100 99 84 92 100 100 100 100 100 100 100 100 100 100 100 100 100 100 100 100 100 100 100
0 5 68 100 100 90 89 7 98 82 92 100 100 100 100 100 100 100 100 100 100 100 100 100 100 100 100 100 100 100 100 100 100 100 99 100 100 100 100 100 100 100 100 100 100 100 100 100 100
0 7 100 99 100 100 95 91 74 100 75 6 100 100 100 100 100 100 94 100 100 100 100 100 100 100 100 100 100 100 100 100 100 100 100 100 100 100 100 100 100 100 100 97 100 100 100 97 88
0 78 100 49 30 38 90 65 98 95 100 100 100 100 100 100 100 100 100 100 100 100 100 100 100 100 100 100 100 100 100 100 100 100 100 100 100 100 100 100 100 100 100 100 96 100 82 95 100
57 67 98 5 3 28 92 70 100 84 100 100 100 100 100 100 100 100 100 100 100 100 100 100 100 100 100 100 100 100 100 100 100 100 100 100 100 100 100 100 100 100 100 100 100 82 93 100 96
0 68 0 5 0 1 97 10 5 85 24 80 78 88 96 97 95 100 100 100 100 100 100 100 100 100 100 100 100 100 100 100 100 100 100 100 100 100 100 100 100 100 100 100 100 98 89 97 100
5 7 17 0 5 1 0 70 60 97 2 4 7 18 65 66 97 100 100 100 100 100 100 100 100 100 100 100 100 100 100 100 100 100 100 100 100 100 100 98 80 91 91 99 100 100 82 13 62
41 0 61 0 34 3 24 88 1 32 1 0 2 47 86 100 100 100 100 100 100 100 100 100 100 100 100 100 100 100 100 100 100 100 100 100 100 100 100 100 100 100 100 100 100 95 25 11 39
4 2 100 3 49 68 27 100 100 22 5 6 31 12 91 100 100 100 100 100 100 100 100 100 100 100 100 100 100 100 100 100 100 100 100 100 100 100 100 100 100 100 100 100 100 100 57 24 69
5 55 98 100 94 37 70 100 100 30 100 98 20 7 90 100 100 100 100 100 79 100 100 100 100 100 100 100 100 100 100 100 100 100 100 100 100 100 100 100 100 100 99 98 96 74 65 71 100
100 95 99 94 50 35 44 96 100 5 18 2 42 23 35 99 100 100 100 100 100 100 100 100 100 100 100 100 100 100 100 100 100 100 100 100 100 100 100 100 100 79 52 90 88 39 100 90 95
99 89 97 18 74 82 51 71 100 16 6 5 5 94 99 74 100 100 100 100 100 100 100 100 100 100 100 100 100 100 100 100 100 100 100 100 100 100 100 100 99 11 44 89 77 70 95 100 100
99 59 100 89 100 5 41 99 54 95 40 66 71 100 100 100 100 100 100 100 100 100 100 100 100 100 100 100 92 100 100 100 100 100 100 100 100 100 100 100 100 98 69 100 97 89 100 100 100
9 96 99 92 70 5 26 98 100 84 19 96 100 100 100 79 98 100 100 100 100 100 100 100 100 100 100 100 99 100 100 100 100 100 100 100 100 100 100 91 84 100 100 100 93 49 42 34 14
86 100 98 83 96 59 62 56 100 85 6 88 100 99 100 98 92 92 100 100 100 100 100 100 100 100 100 100 100 100 100 100 100 100 100 96 92 93 100 100 100 100 100 95 99 96 91 94 55
100 90 6 66 22 100 83 100 100 100 11 15 99 100 100 100 100 100 100 89 100 100 100 100 100 100 100 100 100 100 100 100 100 95 100 100 100 100 100 100 98 100 61 45 93 100 100 100 100
95 21 0 36 88 99 87 11 50 74 12 68 97 100 96 100 100 100 100 100 8 48 88 61 77 99 100 100 85 74 49 100 100 100 64 100 99 100 100 100 100 100 100 100 100 100 100 100 100
45 1 2 21 76 81 98 33 100 98 98 100 99 100 78 23 97 10 100 100 82 87 5 4 5 42 53 74 71 88 86 100 100 100 100 98 100 100 100 100 100 100 100 100 100 100 100 100 100
5 44 91 100 100 55 90 17 38 98 72 82 25 50 96 100 85 72 62 39 42 91 57 24 76 38 51 79 100 94 86 100 98 100 100 100 100 100 100 100 100 100 100 100 100 100 100 100 100
14 92 96 100 99 100 92 33 50 13 5 6 5 5 5 10 27 38 83 100 100 100 100 100 14 55 94 71 59 100 100 100 100 100 100 100 100 100 100 100 100 100 100 100 100 100 100 100 100
99 90 77 99 26 1 61 84 8 92 22 14 29 5 15 19 16 19 13 21 22 50 21 64 94 49 79 96 100 100 100 100 100 100 100 100 100 100 100 96 100 100 100 100 100 100 100 100 99
70 71 88 82 94 77 96 100 100 73 4 5 49 6 5 5 5 9 34 74 88 100 100 100 100 73 67 88 90 100 100 100 100 100 100 100 100 100 100 100 100 100 100 100 100 100 99 100 100
6 18 75 100 97 93 80 97 94 64 78 52 12 5 5 5 5 5 5 5 5 5 5 15 21 32 67 92 99 100 100 100 100 100 100 100 100 100 100 100 98 100 100 100 100 100 100 100 100
95 80 83 100 100 97 70 9 100 14 16 16 63 5 5 5 5 5 5 5 5 5 5 12 19 5 7 27 96 100 100 88 100 100 100 100 100 100 100 100 100 100 100 100 100 100 98 98 93

GFSSGP_prec_cloud_078.txt.gz
Cloud_Cover
0 0 0 0 0 0 0 10 100 79 92 26 32 20 97 0 0 7 100 100 100 100 95 53 10 13 79 10 100 100 92 92 100 100 100 100 100 91 56 5 5 6 17 13 5 24 100 33 3
0 0 0 0 0 1 95 57 99 65 51 0 0 80 1 1 10 100 100 100 100 100 100 100 6 14 20 100 100 100 100 100 100 100 100 100 83 35 3 5 5 5 5 71 17 37 49 46 5
0 0 0 0 4 0 70 33 0 88 18 3 1 3 0 76 100 100 100 100 100 100 100 100 100 63 4 1 47 100 100 100 99 37 13 5 5 5 5 5 5 39 50 100 92 100 83 5 7
0 0 0 0 4 5 23 6 0 15 83 92 100 89 89 98 100 100 100 100 100 100 100 100 100 67 4 0 0 2 5 5 5 5 5 5 5 5 5 5 5 75 77 58 44 99 6 100 37
0 0 4 100 56 23 97 0 2 94 98 100 100 89 100 100 100 100 100 100 100 100 100 100 100 63 1 1 5 96 5 5 37 66 59 76 93 100 6 6 40 90 78 29 19 42 100 100 33
0 1 52 98 90 6 9 13 75 100 100 100 100 100 100 100 100 100 100 23 99 100 100 100 100 100 94 5 79 90 67 95 100 93 100 100 85 95 63 65 98 98 88 84 96 91 70 96 98
0 8 38 82 48 5 34 66 100 100 100 100 100 86 68 100 96 100 100 89 100 100 100 100 100 100 100 100 71 72 42 82 96 100 100 100 58 100 93 100 100 100 100 98 100 100 98 100 84
0 0 0 64 96 0 14 69 91 100 100 100 100 97 100 100 100 100 99 100 100 100 100 100 100 100 100 100 91 100 100 100 100 100 100 100 98 100 100 100 100 100 100 100 100 80 62 99 89
0 0 83 100 99 3 5 5 3 100 100 100 100 100 100 100 100 100 100 100 100 100 100 100 100 100 100 100 100 100 100 100 100 100 100 100 100 100 100 100 100 100 100 100 100 100 99 100 91
0 26 71 81 56 4 0 1 5 89 100 100 100 100 100 100 100 100 100 100 100 100 100 100 100 100 100 100 100 100 100 100 100 100 100 100 100 100 100 100 100 100 100 100 100 100 100 100 63
3 4 100 61 71 1 5 4 96 56 76 100 100 100 75 94 100 100 100 100 100 100 100 100 100 100 100 100 100 100 100 100 100 100 100 100 100 100 100 100 100 100 100 100 100 95 100 100 66
84 1 14 44 5 0 1 95 91 68 54 100 100 100 100 100 100 100 100 100 100 100 100 100 100 100 100 100 100 100 100 100 100 100 98 100 100 100 100 100 100 100 100 92 100 100 90 94 56
5 16 3 37 2 0 0 0 46 8 6 89 100 100 100 98 100 100 100 100 100 100 100 100 100 100 100 100 100 100 100 100 100 100 100 100 100 100 100 100 100 100 100 97 99 79 100 67 99
11 18 7 89 52 95 36 27 95 100 100 10 12 30 100 100 100 100 100 100 100 100 100 100 100 100 100 100 100 100 100 100 100 100 100 100 100 100 100 100 100 100 100 100 100 99 73 100 99
4 0 79 60 48 100 39 100 100 100 100 46 0 25 85 99 90 100 100 100 100 100 100 100 100 100 100 100 100 100 100 100 100 100 100 100 100 100 100 100 100 100 100 100 100 100 100 100 100
0 25 86 88 67 60 100 100 100 100 100 95 7 0 55 88 100 100 100 100 100 100 100 100 100 100 100 100 100 100 100 100 100 100 100 100 100 100 100 100 100 100 100 88 95 71 97 62 61
12 63 33 70 78 2 100 88 100 100 88 43 0 0 50 100 100 100 100 100 98 100 100 100 100 100 100 100 100 100 100 100 100 100 100 100 100 100 100 100 99 99 100 100 100 100 92 95 41
98 91 99 98 82 2 6 51 72 82 14 51 58 2 9 11 95 98 97 94 100 100 100 100 100 100 100 100 100 100 100 100 100 100 100 100 100 100 100 100 100 100 100 100 97 94 78 74 99
56 76 92 100 100 46 69 18 100 80 92 23 100 33 98 99 36 95 98 100 55 54 96 100 100 100 100 100 100 100 100 100 100 100 100 100 100 100 100 100 100 100 100 100 72 44 100 79 98
8 23 1 54 95 53 0 2 87 27 57 64 100 96 92 98 100 100 100 78 100 100 100 100 100 100 100 100 84 100 100 100 100 100 100 100 100 100 100 100 100 100 95 96 100 97 61 95 100
5 2 98 90 71 42 22 6 72 60 100 64 100 100 91 100 100 95 100 100 100 96 100 100 100 100 100 72 47 100 100 100 100 100 100 100 100 100 100 96 100 100 98 69 68 100 100 84 59
46 74 92 5 42 74 76 23 7 28 34 24 100 100 100 100 100 100 100 70 87 100 100 100 100 100 100 100 100 100 100 100 100 99 100 100 100 100 100 100 100 75 100 100 100 100 100 100 81
29 98 5 4 15 96 44 65 100 69 14 98 32 66 100 100 100 100 100 85 67 83 12 79 90 100 100 100 100 100 100 100 100 100 100 99 100 98 100 100 100 100 99 100 100 100 100 100 100
28 16 5 0 4 23 89 66 74 91 100 98 13 71 100 99 58 100 100 100 100 100 84 51 96 100 100 100 100 100 100 90 98 93 96 88 100 100 100 100 100 100 88 100 100 100 100 100 100
8 5 11 60 87 43 79 96 100 65 97 48 10 25 46 100 69 66 100 100 100 100 100 100 86 66 97 56 100 100 100 100 100 100 100 100 100 100 100 100 100 100 100 100 100 100 100 100 100
99 5 12 8 99 100 94 100 83 99 72 5 5 5 8 5 86 100 72 3 58 100 100 18 11 77 20 6 84 97 100 100 100 100 100 100 100 100 100 100 98 100 100 100 100 100 100 100 100
100 9 5 98 91 70 53 86 100 51 39 58 4 5 5 5 5 5 83 63 64 6 56 30 4 44 94 99 75 9 5 38 97 100 100 100 100 100 100 100 100 100 100 100 100 100 100 100 100
100 100 95 39 48 79 4 89 63 41 100 51 3 36 50 13 1 4 5 5 24 51 20 39 43 10 5 34 42 67 51 54 73 99 90 95 82 94 100 100 100 100 100 100 100 100 100 100 100
36 39 40 5 77 64 8 43 5 100 100 76 78 63 12 5 5 5 5 5 13 61 97 5 12 16 14 6 5 5 5 68 100 96 93 94 100 100 100 100 100 100 100 100 100 100 100 100 100
58 78 91 7 99 100 21 100 100 99 100 16 83 0 1 2 5 4 5 0 3 96 23 15 5 4 5 56 86 12 39 80 100 100 99 100 99 91 100 100 100 100 100 100 100 100 100 100 100

GFSSGP_prec_cloud_081.txt.gz
Cloud_Cover
0 0 0 0 0 0 0 0 0 1 100 100 25 100 58 39 100 100 96 99 100 100 92 100 80 100 100 91 100 100 64 45 60 100 99 100 100 100 100 100 100 95 63 26 5 1 0 5 5
0 0 0 0 0 0 0 1 98 70 7 1 5 46 89 100 100 100 100 100 100 100 100 100 100 100 100 100 100 100 52 8 30 80 85 91 100 100 100 100 100 100 92 5 5 5 7 32 60
0 0 0 0 0 0 1 95 57 7 0 0 1 66 44 16 28 100 100 100 100 100 100 100 100 100 100 100 100 100 100 95 31 100 9 97 100 84 81 47 40 5 4 5 5 49 81 69 97
0 0 0 0 0 4 100 88 64 87 5 4 55 2 7 38 100 100 100 100 100 100 100 100 100 100 100 100 100 100 100 100 100 100 100 100 72 5 5 5 5 5 5 5 5 40 86 6 5
0 0 0 0 0 29 99 63 7 100 100 100 100 100 100 100 100 100 100 100 100 100 100 100 100 100 100 100 100 100 99 98 100 99 100 82 15 5 5 42 30 14 10 8 15 81 9 37 5
0 0 0 1 1 82 91 6 8 93 17 100 100 100 100 100 100 100 100 100 100 100 97 100 100 100 100 100 100 100 100 30 20 5 5 31 7 5 35 71 62 75 43 87 100 100 50 88 20
0 0 0 0 5 100 100 7 100 8 16 100 100 100 100 100 100 100 100 100 100 100 100 100 100 100 100 100 100 100 100 82 10 56 96 86 5 13 58 73 95 98 99 100 100 100 100 100 51
0 0 0 3 55 99 59 32 100 18 100 100 100 100 100 100 100 100 100 100 100 100 100 100 100 100 100 100 100 100 100 31 91 55 65 87 100 96 80 60 91 100 100 100 100 100 100 25 32
0 0 0 4 98 100 61 5 98 81 100 90 100 100 100 100 100 100 100 100 100 100 100 100 100 100 100 100 100 100 100 100 100 100 100 100 100 100 100 94 99 100 100 79 80 100 79 69 85
0 0 3 70 100 66 20 4 1 100 97 36 78 93 100 100 100 100 100 100 100 100 100 100 100 100 100 100 100 100 100 100 100 100 100 100 100 100 100 100 100 100 100 100 100 100 100 100 100
0 0 0 39 100 100 2 0 95 100 100 21 75 100 100 100 100 100 100 100 100 100 100 100 100 100 100 100 100 100 100 99 99 100 100 100 100 100 100 100 100 100 100 99 98 100 100 100 100
87 37 98 0 11 90 0 0 0 97 100 13 71 100 100 100 100 100 100 100 100 100 100 100 100 100 100 100 100 100 100 100 100 100 100 100 100 100 100 100 100 100 100 100 100 100 100 100 92
3 73 33 0 34 51 1 4 5 78 100 96 67 17 100 100 100 100 100 100 100 100 100 100 100 100 100 100 100 100 100 100 100 100 100 100 100 100 100 100 100 100 100 100 100 100 100 93 94
0 5 3 0 27 32 30 84 89 64 100 100 99 32 93 100 100 100 100 100 100 100 100 100 100 100 100 100 100 100 100 100 100 100 100 100 100 97 100 100 100 100 100 100 100 100 100 98 100
0 1 0 63 59 83 7 16 78 59 100 100 18 24 44 99 100 100 100 100 100 100 100 100 100 100 100 100 100 100 100 100 100 100 100 100 100 100 100 100 100 100 100 100 100 100 100 100 100
15 41 0 14 57 29 19 12 44 29 96 100 99 52 90 98 100 100 100 100 100 100 100 100 100 100 100 100 100 100 100 100 100 100 100 100 100 100 100 100 100 100 100 100 100 100 100 100 100
100 96 36 9 71 5 4 15 0 38 94 80 8 65 100 99 100 100 100 100 100 100 100 100 100 100 100 100 100 100 100 100 100 100 100 100 100 100 100 100 100 100 100 100 100 100 100 100 100
100 100 44 11 52 73 18 6 4 88 100 67 6 29 98 99 100 100 100 100 100 100 100 100 100 100 100 100 100 100 100 100 100 100 90 93 100 96 100 96 100 100 100 99 100 100 83 92 100
100 100 96 2 67 71 83 4 0 39 7 3 0 49 76 73 100 100 100 100 100 100 100 100 100 100 100 100 100 100 100 100 100 100 100 100 100 100 100 100 100 100 100 99 95 100 81 91 67
100 100 99 0 66 94 20 1 1 11 5 27 39 69 72 95 100 76 93 66 47 70 71 77 79 100 100 100 100 100 100 100 100 100 100 100 100 100 100 100 100 100 100 100 100 100 100 93 100
92 100 100 2 5 48 4 0 66 31 2 76 99 84 76 21 99 46 64 95 8 18 27 98 64 96 100 93 97 76 98 99 100 100 100 100 100 100 100 100 100 100 100 88 100 100 100 100 100
100 100 100 6 84 2 4 4 2 4 5 4 11 5 13 21 72 100 55 16 5 5 0 1 54 47 16 90 57 11 42 100 100 96 100 100 100 95 100 100 99 100 100 100 100 100 100 88 100
100 100 100 6 5 0 2 22 5 70 5 0 0 33 19 5 5 88 100 98 5 5 5 38 41 45 97 100 100 100 100 100 100 100 100 100 100 100 100 100 100 100 100 100 100 100 100 100 99
100 100 100 6 5 4 14 91 6 26 4 2 2 5 32 99 83 12 61 43 57 22 54 100 100 100 97 90 82 99 100 100 100 100 100 100 100 100 100 100 100 100 100 100 100 100 96 100 100
100 100 100 25 5 5 63 55 0 79 24 6 2 6 6 33 99 94 5 60 99 49 58 93 100 80 11 31 55 41 72 100 100 100 97 100 100 100 98 100 100 100 100 97 99 100 100 100 100
100 100 100 12 5 5 84 95 81 32 65 22 5 4 2 0 37 98 90 5 5 24 100 100 100 100 64 20 6 5 10 57 62 86 100 100 100 100 97 100 98 100 100 100 100 100 100 100 100
100 100 100 96 57 97 100 48 100 90 94 100 39 24 0 0 1 3 5 5 45 5 4 92 100 100 100 100 23 12 74 82 15 8 37 100 100 100 99 57 99 100 100 99 97 100 100 100 100
100 100 100 100 100 38 91 88 87 33 77 82 85 0 0 1 16 4 2 6 4 5 6 86 100 100 98 100 83 5 32 5 11 62 79 99 100 87 96 98 77 100 100 100 100 100 100 100 100
100 100 100 100 32 100 9 49 23 73 100 14 84 5 1 4 4 13 72 8 5 71 95 91 59 95 100 93 70 8 2 5 96 44 9 12 85 100 100 100 100 100 99 99 73 100 100 100 100
100 100 76 100 72 95 77 18 98 8 23 95 86 5 5 0 0 0 0 10 46 8 80 100 92 100 100 89 38 99 24 4 79 100 100 100 100 100 100 100 74 74 100 100 43 100 100 100 100

GFSSGP_prec_cloud_084.txt.gz
Cloud_Cover
5 5 0 0 0 0 0 0 0 26 18 4 12 3 4 0 84 80 85 5 98 5 47 99 27 100 100 74 74 100 100 80 5 5 6 1 5 81 67 31 99 99 92 100 100 45 97 73 1
1 0 0 0 0 0 0 0 0 0 3 16 98 93 62 61 96 100 100 84 69 24 87 100 100 100 100 100 100 100 100 100 93 100 100 100 58 95 100 100 100 100 99 100 83 100 100 50 35
0 0 0 0 0 0 0 0 0 0 0 0 9 1 10 21 19 83 96 70 82 95 100 46 100 100 100 100 100 86 100 100 100 100 100 100 83 100 71 93 100 53 88 100 64 11 67 29 100
0 0 0 0 0 2 0 0 0 31 5 5 91 91 100 100 0 0 2 19 7 47 100 100 100 100 100 100 100 100 100 100 100 99 100 90 35 100 100 100 100 56 97 63 5 5 5 5 88
0 0 0 0 0 0 2 0 26 46 92 80 71 100 100 100 100 100 100 53 38 100 100 79 86 100 100 100 100 100 100 100 100 100 34 22 90 100 99 100 64 31 19 9 8 18 33 5 85
0 0 0 0 0 0 8 78 97 97 93 54 98 100 100 100 100 100 100 100 100 100 100 96 100 100 100 100 100 100 100 100 100 54 28 100 100 100 100 100 100 100 100 100 100 79 31 5 90
0 0 0 0 0 0 36 5 4 100 100 71 100 100 100 100 100 100 100 100 100 100 100 100 100 100 100 100 100 100 100 100 99 83 71 19 100 82 100 100 100 100 100 100 100 56 93 47 100
0 0 0 0 5 4 64 86 31 95 100 67 88 100 100 100 100 100 100 100 100 100 100 100 100 100 100 100 100 100 100 100 100 100 88 43 100 69 99 78 23 76 100 100 100 100 100 98 100
0 0 0 0 0 0 5 3 2 100 38 13 97 100 100 100 100 100 100 100 100 100 100 100 100 100 100 100 100 100 100 100 100 100 74 46 100 99 95 100 100 100 94 100 100 100 100 37 100
0 0 0 2 1 4 43 0 0 100 89 24 100 100 100 100 100 100 100 100 100 100 100 100 100 100 100 100 100 100 100 100 100 100 50 100 100 100 98 98 100 100 100 100 100 100 66 56 78
0 0 0 3 17 5 6 0 0 100 90 94 100 98 100 100 100 100 100 100 100 100 100 100 100 100 100 100 100 100 100 100 100 100 94 100 100 100 100 100 100 100 100 99 100 78 6 54 73
65 5 3 6 44 2 0 0 0 99 95 72 100 100 100 100 100 100 100 100 100 100 100 100 100 100 100 100 100 100 100 100 99 98 100 100 100 100 100 100 98 84 100 95 93 73 100 100 100
6 46 0 5 4 4 0 1 5 10 98 25 100 100 100 100 100 100 100 100 100 100 100 100 100 100 100 100 100 100 100 100 100 100 100 99 100 100 100 100 99 98 100 100 75 73 99 100 100
0 6 2 2 1 5 2 3 20 0 100 41 48 100 100 100 100 100 100 100 100 100 100 100 100 100 100 100 100 100 100 100 100 100 98 100 100 73 92 100 78 89 96 86 94 100 100 95 80
0 1 5 5 5 1 1 0 5 1 100 68 5 95 100 100 100 100 100 100 100 100 100 100 100 100 100 100 100 100 100 100 100 100 100 98 100 100 100 98 99 97 99 100 100 100 100 100 100
2 34 9 36 21 80 2 0 0 4 66 100 5 26 65 100 100 100 100 100 100 100 100 100 100 100 100 100 100 100 100 100 100 100 100 100 100 97 100 100 100 100 100 100 100 100 100 100 100
8 38 98 33 16 13 0 0 5 2 5 99 53 100 93 57 98 100 100 100 100 100 100 100 100 100 100 100 100 100 100 100 100 100 100 100 100 95 88 64 100 99 87 99 98 78 86 99 94
5 4 34 100 51 42 13 1 15 0 0 7 98 92 52 69 97 100 100 100 100 100 100 100 100 100 100 100 100 100 100 100 100 100 100 99 95 99 80 9 84 48 52 76 96 100 100 29 22
5 5 2 100 100 99 63 0 30 2 0 28 98 54 34 100 100 100 100 100 100 100 100 100 100 100 100 100 100 100 100 100 100 100 100 100 97 95 52 50 67 43 81 99 100 100 100 100 98
10 5 5 100 100 99 48 1 87 2 5 5 29 100 56 100 100 100 100 100 100 100 100 100 100 100 100 100 100 100 100 100 100 100 100 100 100 100 100 100 99 100 96 100 100 100 100 61 96
7 5 5 99 100 99 52 0 4 3 2 5 5 1 42 41 56 88 65 95 63 100 100 100 100 100 100 100 100 100 100 100 100 100 100 100 100 100 100 100 100 100 100 96 100 95 100 100 100
16 5 83 64 100 100 3 0 0 1 0 0 0 5 7 48 5 10 52 12 100 54 100 100 100 100 100 100 100 100 100 100 100 100 100 100 100 100 100 100 100 100 100 100 100 100 100 100 100
98 9 68 22 100 72 12 0 0 0 0 0 0 0 1 22 5 5 38 100 92 36 100 100 100 100 100 100 100 100 100 100 100 100 100 100 100 100 100 100 100 100 94 100 77 54 100 99 100
100 99 5 5 100 97 58 4 2 3 1 0 0 0 0 50 66 63 36 48 98 89 58 16 93 100 100 100 100 100 100 100 100 100 100 100 100 100 100 100 100 100 100 100 100 100 100 100 100
86 94 5 5 66 100 69 4 5 38 2 0 5 58 4 2 36 5 5 6 26 40 3 4 0 3 9 48 95 80 5 4 85 53 51 77 100 100 100 100 98 77 80 82 91 97 73 93 100
87 98 5 51 17 100 69 4 5 4 0 0 4 5 82 5 0 0 4 0 0 4 24 96 86 62 5 22 39 5 5 5 6 8 5 19 18 42 73 93 88 100 100 97 100 100 100 98 100
57 71 12 8 5 100 63 10 5 5 5 2 5 5 3 0 0 0 0 2 61 2 0 5 14 98 65 100 100 11 7 22 5 3 0 5 62 56 60 54 100 99 100 100 100 100 93 99 96
73 21 5 64 92 100 100 75 3 5 15 5 10 5 5 41 2 0 0 0 0 4 74 100 98 99 35 5 5 34 92 78 7 6 2 5 16 13 97 100 100 100 100 97 100 83 100 81 100
25 23 83 73 29 100 100 88 5 0 11 8 5 5 0 4 0 0 0 0 0 4 35 90 100 100 95 98 29 5 12 60 100 74 6 6 60 100 100 100 100 100 100 48 100 93 100 100 100
37 23 43 40 11 100 100 100 9 5 0 0 50 5 5 2 2 5 0 3 0 0 0 1 43 100 100 100 100 31 4 5 89 90 100 100 100 100 100 100 100 100 84 97 98 100 100 58 94

GFSSGP_prec_cloud_087.txt.gz
Cloud_Cover
5 2 5 2 0 0 0 0 0 0 0 0 0 0 0 2 32 54 88 83 100 100 96 18 5 5 86 99 100 46 48 100 98 74 100 100 100 69 64 13 60 100 100 100 100 100 100 100 100
5 5 3 0 0 0 0 0 0 0 0 0 1 0 0 2 11 99 100 9 89 100 68 70 4 39 100 51 18 100 100 100 100 100 93 74 16 79 1 5 64 91 100 100 98 100 100 88 100
5 1 0 0 0 0 0 0 0 0 0 0 0 28 13 5 96 79 36 57 43 100 69 22 45 49 100 98 100 100 100 100 100 99 100 100 100 100 100 88 97 98 95 100 100 100 100 100 100
5 0 0 0 0 0 0 0 0 0 0 3 72 100 99 100 99 80 100 14 90 45 96 70 58 100 100 100 100 100 100 100 100 100 100 100 100 100 100 100 93 60 80 100 100 100 100 100 100
4 1 0 0 0 0 0 0 0 0 0 51 100 89 100 100 100 100 75 8 16 8 74 100 100 100 100 100 100 100 100 100 100 100 99 100 98 100 100 68 46 84 79 67 100 100 100 100 59
0 0 0 0 0 0 0 0 0 0 4 100 97 93 87 100 93 100 100 100 22 9 14 100 100 100 100 100 100 100 100 100 100 100 94 100 100 84 92 94 92 100 5 5 39 44 100 53 41
0 0 0 0 0 0 0 0 0 0 64 100 100 100 100 100 100 100 100 100 100 98 94 100 100 100 100 100 100 100 100 100 100 100 100 100 100 25 8 100 100 100 41 12 36 100 100 100 82
0 0 0 0 0 0 0 0 0 1 64 100 100 100 100 100 100 100 100 100 100 100 100 100 99 100 100 100 100 100 100 100 100 100 100 100 100 6 31 5 5 10 73 5 5 84 100 96 100
0 0 0 0 0 0 0 0 0 1 62 100 100 100 100 100 100 100 100 100 100 100 100 100 100 100 100 100 100 100 100 100 100 100 97 73 97 93 20 46 5 5 14 5 22 14 100 100 100
0 0 0 0 0 0 0 0 0 0 6 100 100 100 100 100 100 100 100 100 100 100 100 100 100 100 100 100 100 100 100 100 100 100 100 100 100 95 40 30 5 95 33 6 37 5 27 100 99
0 0 0 0 0 0 0 0 0 0 0 100 100 100 100 100 100 100 100 100 100 100 100 100 100 100 100 100 100 100 100 100 100 100 100 100 100 66 97 94 60 99 100 62 16 5 88 100 71
0 0 0 0 0 0 1 0 0 0 2 49 100 100 100 100 100 100 100 100 100 100 100 100 100 100 100 100 100 100 100 100 100 100 100 100 100 88 100 100 79 99 100 82 99 96 92 99 69
0 0 0 0 0 0 0 0 0 0 3 31 100 100 100 100 100 100 100 100 100 100 100 100 100 100 100 100 100 100 100 100 100 100 100 100 100 100 100 100 99 100 100 44 34 31 88 100 96
0 0 3 0 0 0 4 0 0 0 0 9 100 100 100 100 100 100 100 100 100 100 100 100 100 100 100 100 100 100 100 100 100 100 100 100 100 100 100 100 99 100 100 93 15 9 18 79 99
0 0 5 5 1 0 4 1 0 0 0 7 9 100 100 100 100 100 100 100 100 100 100 100 100 100 100 100 100 100 100 100 100 100 100 100 100 100 100 100 100 98 98 100 93 12 52 90 100
5 5 5 15 19 5 4 4 0 0 0 11 45 99 100 100 100 100 100 100 100 100 100 100 100 100 100 100 100 100 100 100 100 100 100 100 100 100 100 100 94 100 100 100 100 96 100 100 100
5 0 5 3 5 3 2 4 0 0 0 3 26 89 100 100 100 100 100 100 100 100 100 100 100 100 100 100 100 100 100 100 100 100 100 100 100 100 100 100 100 100 100 69 94 100 100 100 95
18 2 5 3 3 3 2 11 0 0 0 0 37 93 76 96 100 100 100 100 100 100 100 100 100 100 100 100 100 100 100 100 100 100 100 100 100 100 100 100 99 94 83 58 87 100 100 100 100
27 5 13 6 3 5 6 24 0 1 0 10 69 39 14 46 100 100 100 100 100 100 100 100 100 100 100 100 100 100 100 100 100 100 100 100 100 96 77 96 65 86 74 100 100 100 100 100 100
16 8 45 5 5 5 5 68 14 0 0 1 17 48 0 0 36 100 100 100 100 100 100 100 100 100 100 100 100 100 100 100 100 100 100 100 100 100 100 92 100 100 100 100 100 100 100 100 100
95 80 76 5 38 83 42 27 96 0 0 1 2 0 0 0 8 80 100 100 100 100 100 100 100 100 100 100 100 100 100 100 100 100 100 100 100 100 100 100 100 100 100 100 100 100 100 100 100
84 44 54 8 21 50 40 77 88 0 0 0 0 4 0 0 0 80 100 100 100 100 100 100 100 100 100 100 100 100 100 100 100 100 100 100 100 100 100 100 100 100 100 100 100 100 98 100 93
94 91 18 5 5 88 32 78 52 2 0 0 0 0 0 1 4 16 90 92 100 100 100 100 100 100 100 100 100 100 100 100 100 100 100 100 100 100 100 100 100 100 100 100 100 99 100 100 100
81 58 5 3 5 67 2 84 86 26 0 0 0 0 0 0 0 1 1 11 86 93 100 100 100 100 100 100 100 100 100 100 100 100 100 100 100 100 100 100 100 100 100 100 100 100 100 100 100
100 18 3 4 5 5 3 91 54 15 0 0 0 1 0 0 0 3 5 4 20 64 73 70 100 98 79 100 100 100 100 100 100 100 100 100 100 100 100 100 100 100 100 20 22 32 95 100 100
20 29 5 48 21 0 1 98 10 90 2 2 0 5 56 0 0 0 0 0 5 5 90 54 9 99 92 88 70 30 12 100 100 89 18 19 41 72 61 67 84 82 33 37 100 97 100 100 100
84 4 39 22 10 0 5 70 100 91 8 3 2 1 4 0 0 0 0 0 2 100 65 7 33 5 6 26 11 25 8 17 5 7 5 5 28 85 81 56 23 62 100 100 98 45 43 94 51
8 93 98 13 5 6 28 14 100 100 25 2 2 0 0 0 5 5 0 3 3 94 100 100 100 100 98 64 25 22 5 5 13 3 5 5 5 5 66 81 98 87 100 86 100 59 68 96 95
80 54 84 61 5 66 8 31 96 100 24 5 5 3 0 0 0 1 0 0 0 17 90 100 100 100 100 100 32 19 5 5 5 5 4 8 8 5 67 81 100 100 100 100 100 92 100 96 100
100 80 99 27 5 95 25 5 84 100 100 8 5 4 5 0 0 0 0 0 0 0 0 1 12 86 100 100 100 96 5 2 5 16 20 34 22 52 100 100 100 100 100 100 100 100 100 100 100

GFSSGP_prec_cloud_090.txt.gz
Cloud_Cover
6 6 5 2 1 0 0 0 0 0 0 0 0 0 0 0 0 0 0 0 3 66 97 27 5 1 27 99 75 5 100 100 100 100 100 100 93 100 30 3 69 100 100 100 100 99 100 100 100
90 100 21 5 5 0 0 0 0 0 0 0 0 0 0 0 0 7 6 6 57 94 47 88 43 16 5 50 89 8 94 100 100 88 100 88 100 100 100 53 60 62 94 100 100 100 100 100 100
99 29 5 5 1 0 0 0 0 0 0 0 0 0 0 5 94 100 100 90 70 98 78 55 19 6 0 5 35 96 96 96 100 100 100 100 100 100 100 95 58 97 48 79 38 94 95 100 75
56 7 4 5 1 0 0 0 0 0 0 0 0 0 2 100 99 26 75 100 100 100 78 45 40 16 3 0 5 79 100 100 100 100 100 100 100 100 100 100 100 100 100 73 99 93 84 100 100
7 5 0 0 0 0 0 0 0 0 0 0 0 1 100 100 100 77 59 49 93 96 100 68 100 98 11 8 80 100 100 100 100 100 100 100 100 100 100 100 100 100 100 93 43 32 54 82 75
0 1 0 0 0 0 0 0 0 0 0 0 0 52 100 100 100 100 91 100 100 84 100 100 100 100 40 54 100 100 100 100 100 100 100 100 100 100 100 83 89 92 92 90 88 49 18 5 8
0 0 0 0 0 0 0 0 0 0 0 0 0 100 74 100 100 100 100 100 97 85 82 100 100 100 100 100 100 100 100 100 100 100 100 100 98 100 100 99 100 78 100 100 100 95 97 5 5
0 0 0 0 0 0 0 0 0 0 0 0 1 100 98 100 100 100 100 100 100 100 80 37 100 91 65 100 100 100 100 100 100 100 100 100 100 83 100 85 60 24 64 61 64 47 58 19 5
0 0 0 0 0 0 0 0 0 0 0 0 0 93 98 100 100 97 100 78 100 100 100 100 96 100 98 100 100 100 100 100 100 96 100 95 100 100 100 70 48 27 83 77 100 100 100 95 42
0 0 0 0 0 0 0 0 0 0 0 0 0 88 100 100 100 100 100 100 100 100 100 100 100 100 100 100 100 100 100 100 93 100 100 100 100 96 95 75 13 64 94 100 100 100 100 100 82
0 0 0 0 0 0 0 0 0 0 0 3 5 9 100 100 100 100 100 100 98 100 100 100 100 100 100 100 100 100 100 100 100 100 100 100 96 53 23 31 18 77 100 99 100 100 99 93 100
0 1 0 0 0 0 0 0 0 0 0 0 3 2 100 100 100 100 100 100 100 100 100 100 100 100 100 100 100 100 100 100 100 100 100 100 80 98 90 96 69 96 96 97 98 100 100 86 100
0 0 0 0 0 0 0 0 0 0 0 0 2 12 87 100 100 100 100 100 100 100 100 100 100 100 100 100 100 100 100 100 100 100 100 100 100 97 100 96 80 95 44 58 98 100 100 95 99
0 0 0 0 0 0 0 0 0 8 0 0 5 74 84 100 100 100 100 100 100 100 100 100 100 100 100 100 100 100 100 100 100 100 100 100 100 100 100 100 100 100 70 99 100 98 100 96 94
0 5 0 0 2 0 0 0 5 23 6 10 3 78 100 100 100 100 100 100 100 100 100 100 100 100 100 100 100 100 100 100 100 100 100 100 100 100 100 100 100 100 100 56 99 83 80 100 88
4 0 2 0 4 0 0 0 5 5 9 39 25 100 100 100 100 100 100 100 100 100 100 100 100 100 100 100 100 100 100 100 100 100 100 100 100 100 94 100 100 100 96 99 100 84 100 98 87
1 5 5 4 2 0 3 0 0 5 2 23 59 100 100 98 97 100 100 100 100 100 100 100 100 100 100 100 100 100 100 100 100 100 100 100 100 100 98 95 100 100 100 100 99 100 100 100 100
5 4 5 2 5 5 0 2 0 1 5 0 34 100 100 98 75 100 100 100 100 100 100 100 100 100 100 100 100 100 100 100 100 100 100 100 100 100 100 100 100 100 100 96 96 100 100 100 100
8 18 5 5 5 5 0 5 5 5 5 5 29 86 100 39 20 99 100 100 100 100 100 100 100 100 100 100 100 100 100 100 100 100 100 100 100 100 100 100 100 100 100 99 100 100 100 100 100
50 4 89 15 3 4 5 1 2 5 7 8 0 48 70 54 94 95 100 100 100 100 100 100 100 100 100 100 100 100 100 100 100 100 100 100 100 100 100 100 100 100 100 100 100 100 96 100 100
100 48 9 36 3 6 5 2 4 5 5 63 5 1 0 24 59 89 99 97 100 100 100 100 100 100 100 100 100 100 100 100 100 100 100 100 100 100 100 100 100 100 100 100 100 100 100 100 100
100 31 3 6 36 86 8 74 2 5 4 36 0 0 1 0 3 8 100 100 100 100 100 100 100 100 100 100 100 100 100 100 100 100 100 100 100 100 100 100 100 100 100 100 100 100 100 100 100
100 31 5 12 41 6 36 65 1 0 0 48 0 0 0 0 0 0 32 100 100 100 100 100 100 100 100 100 100 100 100 100 100 100 100 100 100 100 100 100 100 100 100 100 100 100 100 100 100
100 42 92 8 5 74 15 64 61 0 9 57 3 0 0 0 0 0 9 100 100 100 100 100 100 100 100 100 100 100 100 100 100 100 100 100 100 100 100 100 100 100 100 100 100 100 100 100 100
100 100 82 5 70 100 29 99 100 3 71 96 4 0 0 0 0 14 52 100 100 100 100 100 100 100 100 100 100 100 100 100 100 100 100 100 100 100 100 100 100 100 100 100 100 100 100 100 100
100 98 3 5 100 21 95 100 100 5 98 100 5 0 0 4 2 1 8 29 80 100 100 100 100 100 100 100 100 100 100 100 100 100 100 100 100 100 100 100 100 100 100 89 92 92 100 100 100
46 99 89 31 6 59 100 100 100 8 54 100 18 0 0 5 4 5 0 3 9 47 84 100 96 83 100 100 81 99 100 100 100 100 100 100 100 100 100 100 100 100 98 99 58 100 100 100 91
100 100 100 54 37 99 100 100 100 10 93 98 99 4 0 0 0 1 0 0 0 4 18 48 18 32 68 94 28 40 11 50 91 100 100 93 100 67 64 60 38 69 88 100 96 100 100 100 100
100 100 100 97 95 63 97 100 100 4 100 100 100 7 1 0 4 2 0 0 0 0 0 94 91 22 30 94 93 17 5 5 5 5 12 9 5 5 5 43 74 70 100 98 100 100 100 100 100
100 100 99 93 5 29 54 100 100 1 100 100 100 80 36 5 3 0 0 0 0 0 0 0 4 88 62 5 78 100 31 5 17 88 95 5 68 35 95 95 85 100 100 100 100 100 100 100 100

GFSSGP_prec_cloud_093.txt.gz
Cloud_Cover
14 16 19 94 96 95 12 1 0 0 0 0 0 0 0 0 0 0 0 0 0 5 18 0 3 4 100 59 31 14 100 93 45 100 100 100 100 100 100 100 99 86 99 100 100 100 100 100 100
1 5 11 92 4 8 0 0 0 0 0 0 0 0 0 0 0 1 0 2 0 20 9 1 0 0 78 99 100 100 100 44 100 100 100 100 98 100 100 100 100 100 100 100 94 100 100 100 100
0 0 4 82 59 5 1 0 0 0 0 0 0 0 0 0 0 0 4 5 28 74 44 10 8 0 18 75 44 100 100 100 54 100 100 100 93 100 100 100 98 98 100 100 96 95 100 100 90
0 0 0 3 11 2 0 0 0 0 0 0 0 0 0 0 0 18 100 6 44 90 92 22 0 0 3 54 63 100 100 100 88 94 100 100 100 100 100 100 100 100 100 100 88 33 63 5 74
0 0 0 0 0 0 0 0 0 0 0 0 0 0 0 0 5 100 100 7 8 27 100 100 98 88 61 5 20 36 100 100 96 99 100 100 100 100 100 100 100 100 100 94 70 99 94 79 78
0 0 0 0 0 0 0 0 0 0 0 0 0 0 0 3 62 89 100 100 5 32 97 100 100 100 100 100 88 99 32 90 56 99 100 100 100 100 100 100 100 77 99 100 100 98 8 66 65
0 0 0 0 0 0 0 0 0 0 0 0 0 0 0 4 100 100 100 100 49 26 41 100 100 100 100 100 100 71 98 100 100 95 100 100 100 100 100 100 100 100 100 96 100 94 96 72 24
1 0 0 0 0 0 0 0 0 0 0 0 0 0 0 6 99 100 100 100 92 100 91 100 100 100 100 100 100 100 100 100 100 100 100 100 100 100 100 100 100 100 100 100 100 78 49 5 5
3 0 0 0 0 0 0 0 0 0 0 0 0 0 0 14 100 100 100 100 100 87 100 100 100 100 100 100 99 97 100 100 100 100 100 100 100 100 100 100 100 100 100 74 20 5 48 5 5
0 0 0 0 0 0 0 0 0 0 0 0 0 0 0 25 100 100 100 100 100 30 98 100 100 95 90 100 78 100 100 100 100 100 100 100 98 100 100 100 100 26 95 29 84 5 44 5 5
0 0 0 0 0 0 0 0 0 0 0 0 0 0 0 89 100 100 100 100 100 77 100 100 100 100 93 100 100 100 100 100 100 100 70 99 74 83 100 7 11 28 47 94 100 65 94 99 97
0 0 0 0 0 0 0 0 0 0 0 0 0 0 0 0 79 100 100 100 100 99 100 100 100 100 100 100 100 100 100 100 100 100 67 100 100 100 100 34 99 62 100 76 100 100 98 100 100
0 2 0 0 0 0 0 0 0 0 0 0 4 0 0 0 51 99 100 100 100 92 100 100 100 100 100 100 100 100 100 100 100 100 99 100 100 100 100 98 98 84 96 84 100 100 94 98 76
0 0 0 0 0 0 0 0 0 0 0 0 5 0 0 0 2 47 100 100 100 100 100 100 100 100 100 100 100 100 100 100 100 100 100 100 99 100 100 99 100 100 96 99 100 98 92 82 60
0 0 0 0 0 5 0 0 0 0 0 0 5 86 35 35 0 3 85 100 100 100 100 100 100 100 100 100 100 100 100 100 100 100 100 100 63 98 100 100 100 100 99 90 100 100 98 88 60
6 4 5 0 5 7 5 1 5 4 0 0 1 30 39 93 6 90 97 100 100 100 100 100 100 100 100 100 100 100 100 100 100 100 100 100 100 100 100 100 100 100 100 97 94 100 98 86 81
83 5 25 0 5 66 51 1 5 5 0 0 0 0 6 62 89 95 100 100 100 100 100 100 100 100 100 100 100 100 100 100 100 100 100 100 100 100 100 100 100 100 100 98 100 100 100 99 49
61 5 89 6 31 64 72 5 4 5 2 0 0 0 0 19 59 49 100 100 100 100 100 100 100 100 100 100 100 100 100 100 100 100 100 100 100 100 100 100 100 100 95 100 89 99 100 78 68
100 5 67 6 16 46 11 13 0 38 5 0 0 0 2 9 18 83 100 100 100 100 100 100 100 100 100 100 100 100 100 100 100 100 100 100 100 100 100 100 100 100 100 100 95 94 90 91 100
99 12 94 6 32 82 36 98 5 20 10 2 0 0 0 2 28 82 100 100 100 100 100 100 100 100 100 100 100 100 100 100 100 100 100 100 100 100 100 100 100 99 99 100 100 100 100 100 100
100 92 100 5 18 13 100 100 5 34 16 2 0 4 0 0 1 21 90 100 100 100 100 100 100 100 100 100 100 100 100 100 100 100 100 100 100 100 100 100 100 100 100 100 100 100 100 100 100
100 100 73 2 5 5 95 100 6 63 20 5 3 5 1 0 0 0 19 100 100 100 100 100 100 100 100 100 100 100 100 100 100 100 100 100 100 100 100 100 100 100 100 100 100 100 100 100 100
100 100 56 0 52 36 100 96 87 70 99 33 0 5 1 0 0 0 0 41 100 100 100 100 100 100 100 100 100 100 100 100 100 100 100 100 100 100 100 100 100 100 100 100 100 100 100 100 100
100 100 43 35 76 74 100 98 100 100 100 49 3 5 2 0 0 0 0 38 100 100 100 100 100 100 100 100 100 100 100 100 100 100 100 100 100 100 100 100 100 100 100 100 100 100 100 100 100
100 100 80 100 51 100 96 100 100 100 100 70 3 1 4 0 0 0 0 4 95 100 100 100 100 100 100 100 100 100 100 100 100 100 100 100 100 100 100 100 100 100 100 100 100 100 100 100 100
100 100 75 8 82 100 90 100 100 100 27 98 13 5 5 5 1 0 0 0 6 100 100 100 100 100 100 100 100 100 100 100 100 100 100 100 100 100 100 100 100 100 100 100 100 100 99 100 79
92 100 98 61 58 5 83 98 100 100 70 99 90 5 5 5 5 0 0 0 0 94 100 100 100 100 100 100 100 100 100 100 100 100 100 100 100 100 100 100 100 100 100 98 98 100 100 100 97
100 96 99 14 12 81 96 100 100 100 96 12 100 5 46 5 5 4 0 5 5 8 96 100 100 100 100 100 100 100 99 100 100 100 100 100 100 100 100 100 100 100 100 100 100 100 100 95 100
100 100 100 88 84 86 97 100 100 100 46 94 100 10 31 26 46 5 2 5 5 5 3 82 100 82 47 37 40 40 66 67 89 99 100 100 78 98 68 9 6 44 37 80 95 93 91 100 100
100 100 84 2 2 6 82 100 100 100 100 100 100 81 42 100 97 35 86 5 2 1 0 0 22 60 84 25 23 12 6 100 100 87 7 19 98 98 64 16 14 80 100 100 100 100 100 100 100

GFSSGP_prec_cloud_096.txt.gz
Cloud_Cover
0 0 0 0 0 0 0 3 5 2 0 0 0 0 0 0 0 0 0 0 0 0 0 1 0 12 22 4 1 93 100 100 100 100 100 100 100 100 100 100 100 35 75 5 80 100 100 100 100
0 0 0 0 0 0 0 0 5 5 3 0 0 0 0 0 0 0 0 0 0 1 5 2 1 2 18 15 50 4 34 100 88 99 100 100 100 100 100 100 100 100 94 90 100 92 100 100 100
0 0 0 0 0 0 0 0 0 0 0 0 0 0 0 0 0 0 0 0 5 2 15 18 61 62 68 4 42 60 4 95 100 75 64 100 100 100 100 100 100 85 100 98 87 92 100 100 100
0 0 0 0 0 0 0 0 0 0 0 0 0 0 0 0 0 0 1 5 5 7 89 100 100 100 100 93 32 60 51 86 100 44 83 100 100 100 100 100 100 100 100 100 58 100 100 100 100
0 0 0 0 0 0 0 0 0 0 0 0 0 0 0 0 0 0 5 71 3 28 100 100 100 100 100 100 94 100 91 36 68 8 50 100 100 100 100 71 100 100 100 100 100 100 100 100 87
0 0 0 0 0 0 0 0 0 0 0 0 0 0 0 0 0 0 55 6 5 82 100 100 100 100 100 100 100 94 55 51 10 81 97 100 100 100 100 100 100 100 100 100 100 60 80 100 75
0 0 0 0 0 0 0 0 0 0 0 0 0 0 0 0 0 5 97 69 60 90 100 100 100 100 100 100 100 100 100 94 65 43 82 100 100 100 100 100 100 100 42 23 97 100 66 100 67
0 0 0 0 0 0 0 0 0 0 0 0 0 0 0 0 0 3 56 45 94 100 100 100 100 100 100 100 100 100 100 100 24 6 100 100 100 100 100 100 99 100 87 100 100 100 100 100 98
0 0 0 0 0 0 0 0 0 0 0 0 0 0 0 0 42 54 4 26 96 100 100 100 100 100 100 100 100 100 100 100 97 94 99 100 100 100 100 100 96 100 100 100 100 100 100 100 100
2 0 0 0 0 0 0 0 0 0 0 0 0 0 0 0 5 60 76 100 54 100 100 100 100 100 100 100 100 97 100 100 86 100 100 100 100 100 100 100 100 100 100 100 100 100 72 97 94
77 4 0 0 0 0 0 0 0 0 0 1 0 0 0 0 0 6 54 100 20 37 100 100 100 100 100 63 100 97 93 100 99 99 100 100 100 100 100 100 100 100 100 100 100 85 7 10 96
100 12 3 0 0 0 0 0 0 0 0 0 0 0 0 0 0 4 7 100 49 100 100 100 100 100 100 100 100 100 100 100 100 100 100 100 100 100 100 100 100 100 100 98 61 31 48 93 100
100 8 32 0 0 0 0 0 0 0 0 0 0 0 0 0 0 15 84 100 97 91 99 100 100 100 100 100 100 100 100 100 100 100 100 100 100 100 100 100 97 100 34 92 36 100 100 100 100
100 100 17 4 0 0 0 1 5 0 0 0 0 0 0 0 0 2 91 100 100 93 100 100 100 100 100 100 100 96 100 100 100 100 100 100 100 100 100 100 100 100 86 100 53 44 100 100 100
100 100 58 5 1 50 0 1 5 5 5 0 0 0 0 0 0 0 11 100 100 100 100 100 100 100 100 100 100 100 100 100 100 100 100 100 100 100 100 100 99 98 87 81 100 100 96 100 100
100 100 100 42 36 69 5 4 5 5 5 5 0 0 0 0 0 0 1 100 100 100 100 100 100 100 100 100 100 100 100 100 100 100 100 100 100 100 100 100 100 98 90 100 72 100 91 81 79
100 100 100 28 67 71 5 6 9 4 32 32 2 0 0 0 0 0 0 77 100 100 100 100 100 100 100 100 100 100 100 100 100 100 100 100 100 100 100 100 96 86 100 100 100 100 86 78 92
100 96 100 96 100 85 5 27 63 4 5 95 4 0 0 0 0 0 0 27 100 100 100 100 100 100 100 100 100 100 100 100 100 100 100 100 100 100 100 96 100 100 100 100 100 90 78 92 81
100 100 100 100 96 15 5 81 6 4 6 80 5 4 0 0 0 0 6 33 92 100 100 100 100 100 100 100 100 100 100 100 100 100 100 100 100 100 100 100 100 100 100 100 100 97 84 71 92
100 100 100 100 9 13 56 100 99 4 5 95 5 5 0 0 0 0 0 23 78 100 100 100 100 100 100 100 100 100 100 100 100 100 100 100 100 100 100 100 100 100 75 100 100 100 100 100 99
100 100 100 100 24 5 60 90 100 4 8 34 5 48 0 0 0 0 4 46 76 84 100 100 100 100 100 100 100 100 100 100 100 100 100 100 100 100 100 100 100 100 100 98 100 100 93 93 100
100 100 100 100 71 5 55 100 100 2 8 48 5 5 4 0 5 0 0 6 83 73 100 100 100 100 100 100 100 100 100 100 100 100 100 100 100 100 100 100 100 100 100 100 100 100 99 100 100
100 100 100 100 100 13 12 57 100 33 16 88 3 37 5 0 4 0 0 0 56 99 96 93 100 100 100 100 100 100 100 100 100 100 100 100 100 100 100 100 100 100 100 100 100 100 100 100 100
100 100 100 100 100 4 46 74 100 87 48 99 5 88 10 1 1 4 0 0 1 99 100 100 100 100 100 100 100 100 100 100 100 100 100 100 100 100 100 100 100 100 100 100 100 100 100 100 100
100 100 100 100 7 11 98 76 100 99 43 97 5 99 17 5 5 5 0 0 0 28 96 100 100 100 100 100 100 100 100 100 100 100 100 100 100 100 100 100 100 100 100 100 100 100 100 100 100
100 100 98 100 100 100 100 22 96 100 97 6 14 98 9 5 42 11 1 0 0 0 74 87 83 100 100 100 100 100 100 100 100 100 100 100 100 100 100 100 100 100 100 100 100 100 100 100 100
100 52 100 100 92 5 96 67 54 100 100 7 50 99 83 15 2 93 7 0 0 0 1 77 62 100 100 100 100 100 100 100 100 100 100 100 100 100 100 100 100 100 100 100 100 100 100 100 100
100 100 100 100 100 47 47 60 100 100 100 9 40 73 83 28 5 56 65 1 0 0 0 14 3 8 84 100 100 100 100 100 100 100 100 100 100 100 100 100 100 100 100 100 100 100 100 96 98
100 100 100 100 92 61 66 100 100 100 100 91 10 35 83 94 5 19 100 6 0 0 0 6 24 1 1 86 100 100 100 100 100 100 100 100 100 100 100 100 100 100 100 100 86 22 90 96 94
100 100 60 27 6 9 43 83 98 100 100 100 5 5 91 100 5 5 66 96 5 0 0 0 69 16 0 5 9 7 31 61 27 92 100 100 99 100 59 99 30 27 7 9 21 86 88 100 100

GFSSGP_prec_cloud_099.txt.gz
Cloud_Cover
0 0 0 0 0 0 0 0 0 0 0 0 0 0 2 0 0 2 0 0 0 0 0 0 0 0 6 1 1 11 5 56 100 100 81 100 74 81 55 100 67 100 100 100 100 100 100 87 100
0 0 0 0 0 2 25 0 0 0 0 0 0 0 0 1 0 0 0 0 0 0 0 7 3 0 2 31 9 9 7 93 100 100 100 100 100 99 81 92 100 100 100 100 93 99 100 100 100
0 0 0 0 0 0 2 0 0 0 0 0 0 0 0 0 1 0 0 0 0 0 0 0 0 44 3 70 63 5 5 89 100 100 100 100 100 100 100 96 100 100 92 85 33 98 100 100 100
0 0 0 0 0 2 0 0 0 0 0 0 0 0 7 1 0 0 0 0 0 5 3 61 100 100 100 92 98 75 2 13 100 100 99 20 100 100 100 100 100 100 100 100 100 100 100 100 100
0 0 0 0 0 0 0 0 0 0 0 0 0 0 0 2 0 0 0 0 1 4 13 100 100 100 86 100 100 100 28 98 95 97 100 13 100 100 100 100 100 100 100 100 100 100 100 100 100
0 2 0 0 0 0 0 0 0 0 0 0 0 0 0 2 0 0 0 0 4 5 100 100 98 80 90 100 100 100 100 100 78 38 100 98 85 100 100 100 100 100 100 100 100 100 100 100 90
0 4 11 0 0 0 0 0 0 0 0 0 3 2 2 66 3 0 0 4 38 45 100 100 43 24 26 100 100 100 100 100 98 85 100 100 87 100 100 100 100 100 100 100 100 100 100 95 37
0 4 89 9 0 0 0 0 0 0 0 0 0 0 4 2 2 0 0 0 5 100 98 100 57 22 27 100 100 100 100 100 100 100 100 96 100 91 100 100 98 98 100 100 100 100 100 100 100
0 0 43 100 2 0 0 0 0 0 0 0 1 1 0 0 0 0 4 8 66 100 85 100 87 32 96 100 100 100 100 100 100 100 99 96 51 100 100 84 100 100 100 100 92 78 100 100 83
0 0 19 100 48 0 0 0 0 0 0 0 5 5 54 0 0 0 0 5 100 100 100 100 100 100 100 100 100 100 100 100 100 100 100 83 42 100 100 100 100 100 100 100 100 100 100 100 100
0 0 5 64 100 64 0 0 0 0 0 0 5 10 8 5 0 0 0 0 33 100 100 100 100 100 100 100 100 100 100 100 100 100 100 44 53 100 100 100 100 100 100 100 100 100 100 100 100
0 4 1 5 100 99 5 1 0 0 0 0 0 0 0 0 0 0 0 2 6 80 100 100 100 100 100 100 100 100 100 100 100 100 100 100 100 100 100 100 100 100 100 100 100 100 100 100 100
0 4 5 5 99 100 95 4 0 0 0 0 2 3 0 0 0 0 0 0 5 81 100 100 100 100 100 100 100 100 100 100 100 100 100 100 100 100 100 100 100 100 100 100 100 100 100 100 87
0 0 44 7 97 100 100 38 0 0 4 0 0 13 0 0 0 0 0 3 10 32 100 100 100 100 100 80 100 42 97 100 100 100 100 100 100 100 100 100 100 100 100 100 100 100 100 96 100
0 4 100 45 97 100 100 77 0 38 5 2 0 21 4 0 0 0 0 0 56 81 100 100 100 100 97 94 91 98 100 100 100 100 100 100 100 100 100 100 100 100 100 100 100 76 86 99 100
86 67 72 100 99 100 100 99 0 37 4 1 5 5 5 0 0 0 0 0 30 100 100 100 100 100 100 100 100 100 100 100 100 100 100 100 100 100 100 100 100 100 100 100 100 91 100 100 100
100 100 100 100 58 79 100 100 20 74 5 5 5 1 5 0 0 0 0 0 56 100 100 100 100 100 100 100 100 100 100 100 100 100 100 100 100 100 100 100 97 100 100 100 99 100 99 97 100
100 100 100 100 40 85 100 100 68 91 14 5 5 1 5 1 0 0 0 2 62 100 98 100 100 100 100 100 100 100 100 100 100 100 100 100 100 100 100 100 100 100 100 100 100 100 100 100 98
100 100 100 100 100 99 100 100 100 100 51 31 5 5 4 4 0 0 0 1 65 100 90 100 100 100 100 100 91 100 100 100 100 100 100 100 100 100 100 100 100 100 100 100 100 100 100 100 98
100 100 100 100 94 68 100 100 100 100 45 5 5 5 5 5 0 0 0 0 83 100 100 84 100 100 100 100 100 100 100 100 100 100 100 100 100 100 100 100 100 100 100 100 100 100 100 75 100
100 100 100 100 100 58 98 62 100 100 95 5 5 13 5 5 1 0 0 0 37 100 100 100 100 100 100 100 100 100 100 100 100 100 100 100 100 100 100 100 100 100 100 100 100 100 98 100 96
100 100 100 100 100 16 97 97 99 100 95 5 5 5 4 57 1 0 0 0 2 100 100 100 100 100 100 100 100 100 100 100 100 100 100 100 100 100 100 100 100 100 100 100 100 100 100 100 100
100 100 100 100 100 68 5 61 100 100 48 5 5 8 5 86 5 0 0 0 0 36 100 98 100 100 100 100 100 100 100 100 100 100 100 100 100 100 100 100 100 100 100 100 100 100 100 100 100
100 100 100 100 100 60 98 100 100 100 100 9 5 11 5 5 66 0 0 0 0 31 100 100 100 100 100 100 100 100 100 100 100 100 100 100 100 100 100 100 100 100 100 100 100 100 100 100 100
100 100 100 100 100 62 98 100 100 100 100 9 24 79 84 5 48 5 0 3 0 10 97 95 100 100 100 100 100 100 100 100 100 100 100 100 100 100 100 100 100 100 100 100 100 100 100 100 100
100 100 100 100 100 100 100 100 100 100 100 46 41 100 91 17 4 33 0 2 5 0 12 35 100 100 100 100 100 100 100 100 100 100 100 100 100 100 100 100 100 100 100 100 100 100 100 100 100
100 88 93 100 100 100 100 90 96 74 100 100 15 94 99 21 7 82 0 2 5 0 0 0 10 27 98 100 100 100 100 100 100 100 100 100 100 100 100 100 100 100 100 100 100 100 100 100 100
100 100 100 100 100 100 100 100 100 100 100 100 68 38 76 62 5 96 7 0 73 4 0 0 0 0 12 96 100 100 100 100 100 100 100 100 100 100 100 100 100 100 100 100 100 100 100 100 100
100 100 100 100 100 100 100 100 100 100 100 100 96 51 100 5 42 60 97 0 1 8 2 0 0 0 0 2 96 100 100 100 100 100 100 100 100 100 100 100 100 100 100 100 100 100 100 100 100
100 100 100 100 100 100 100 100 100 100 93 100 100 68 12 5 31 32 100 2 3 23 17 0 0 0 0 0 1 32 100 100 100 100 100 100 100 100 100 100 100 100 100 100 100 100 100 100 98

GFSSGP_prec_cloud_102.txt.gz
Cloud_Cover
0 0 0 0 0 0 1 92 0 0 0 0 0 0 0 0 0 0 0 0 0 0 0 0 0 0 0 51 38 41 94 5 5 10 32 93 5 4 5 5 11 98 99 100 100 100 100 100 100
0 0 0 0 0 0 52 85 0 0 0 0 0 0 0 0 0 0 0 0 0 0 0 0 0 0 0 22 60 2 4 5 5 50 83 100 55 18 5 5 5 38 44 99 100 100 100 100 100
0 0 0 0 0 0 0 6 0 0 0 0 0 0 0 0 0 0 0 0 0 0 0 0 0 0 0 8 90 8 7 5 66 81 92 100 93 100 91 68 32 74 98 100 100 100 100 100 100
0 0 0 0 0 0 3 0 0 0 0 0 0 0 0 0 0 0 0 0 0 0 0 30 0 0 4 4 6 78 41 99 65 98 100 100 100 100 100 93 100 98 23 30 100 100 100 100 100
0 0 0 0 0 4 0 0 0 0 0 0 0 0 0 0 0 0 0 0 0 0 0 0 8 100 100 100 100 100 100 100 100 100 98 100 96 100 100 100 100 100 100 47 100 100 100 100 97
0 0 0 0 0 5 5 0 0 0 0 0 0 0 0 1 1 0 0 0 0 0 1 2 100 100 100 100 100 100 100 100 100 100 96 46 100 100 100 100 100 100 100 100 100 100 86 100 100
0 0 0 0 0 2 3 4 0 0 0 0 0 0 1 1 4 5 2 0 0 0 21 69 100 100 100 100 100 100 100 100 100 100 100 100 100 100 99 100 100 100 100 100 100 100 100 100 100
0 0 0 0 0 0 5 28 5 0 0 0 0 0 0 0 1 0 0 0 0 0 0 76 100 57 5 32 73 98 100 100 100 100 100 99 100 74 100 100 100 100 100 100 100 100 100 100 100
0 0 0 0 0 0 2 74 93 3 0 0 0 0 0 40 1 2 0 0 0 3 2 1 100 92 66 64 100 97 100 100 100 100 100 100 99 96 100 94 84 100 100 100 100 100 100 100 100
0 0 0 0 0 0 1 8 100 100 5 0 0 0 46 44 5 3 0 0 0 4 7 5 100 99 100 91 100 100 100 100 100 100 100 100 73 80 70 28 58 100 100 100 100 100 100 100 100
0 0 0 0 0 0 4 8 100 100 35 0 0 0 15 1 0 0 0 0 0 50 2 11 76 100 100 100 100 100 100 100 100 100 100 100 100 47 8 54 80 100 100 100 100 100 100 100 100
0 0 0 0 0 0 1 4 96 100 95 2 0 0 0 0 0 0 0 0 0 27 5 15 100 99 100 100 100 100 100 100 100 100 100 100 100 79 51 49 58 64 100 100 100 100 100 100 100
0 0 0 0 0 0 0 4 46 100 100 43 5 0 0 0 0 0 0 0 0 2 23 51 100 100 100 100 100 100 100 100 100 100 100 100 100 78 63 74 99 76 100 100 100 100 100 100 100
0 0 0 0 0 0 0 2 15 100 100 90 5 2 5 0 0 0 0 0 0 0 87 99 100 98 100 100 100 100 100 100 100 100 100 100 61 99 100 99 96 98 52 100 100 100 100 100 100
4 5 0 0 11 8 0 1 100 100 100 100 5 4 5 3 0 0 0 0 0 1 41 100 100 100 100 100 100 100 100 100 100 100 100 100 100 100 99 100 100 100 85 100 100 100 100 100 100
6 5 4 3 100 99 44 0 100 92 92 100 61 4 5 5 0 0 0 0 0 0 51 100 100 100 100 100 100 100 100 100 100 100 100 100 100 94 100 100 96 100 100 100 100 100 100 100 100
2 3 5 100 100 87 64 4 98 90 70 100 91 100 14 5 0 0 0 0 0 0 76 100 97 100 100 100 100 100 93 100 100 100 100 100 100 100 100 100 100 100 100 97 99 100 100 100 100
4 52 5 12 100 100 100 64 98 89 64 100 100 100 91 9 5 0 0 0 0 0 58 100 100 100 100 100 100 100 91 100 100 100 100 100 100 100 100 100 100 100 100 100 100 100 100 100 100
4 20 5 33 100 100 100 96 98 95 9 100 100 100 100 51 5 0 0 0 0 0 39 100 100 100 100 100 100 100 100 100 100 100 100 100 100 100 100 100 100 100 100 100 100 100 100 100 87
0 5 2 6 100 100 100 100 100 100 51 100 100 100 86 100 28 0 0 0 0 0 100 100 96 100 55 100 100 100 82 100 98 100 100 100 100 100 100 100 100 100 100 100 100 100 98 100 100
0 5 40 22 100 98 99 68 100 100 9 100 100 100 29 5 12 0 0 0 0 2 100 100 100 100 99 100 100 100 100 100 100 100 100 100 100 100 100 100 100 100 100 100 100 94 100 100 100
0 0 76 100 100 87 100 73 98 100 97 100 86 73 73 5 0 3 0 0 0 20 100 100 99 100 100 100 100 100 100 100 100 100 100 100 100 100 100 100 100 100 100 100 100 100 100 100 100
5 46 100 100 100 100 100 98 100 100 100 100 100 100 44 5 2 0 3 0 0 10 99 100 100 100 100 100 100 100 100 100 100 100 100 100 100 100 100 100 100 100 100 100 100 100 100 100 100
26 80 100 100 100 65 100 47 95 100 100 100 100 100 41 6 1 4 5 0 0 0 79 100 100 100 100 100 100 100 100 100 100 100 100 100 100 100 100 100 100 100 100 100 100 100 100 100 100
0 32 92 92 71 83 100 77 96 100 100 100 100 100 86 5 5 5 5 2 0 0 35 99 100 100 100 100 100 100 100 100 100 100 100 100 100 100 100 100 100 100 100 100 100 100 100 100 100
0 26 42 100 95 100 100 76 52 100 100 100 100 100 100 45 5 18 5 3 0 0 38 100 100 100 100 100 100 100 100 100 100 100 100 100 100 100 100 100 100 100 100 100 100 100 100 100 100
0 80 100 93 100 100 100 100 100 100 100 100 100 100 100 100 20 39 5 5 0 0 1 53 100 100 100 100 100 100 100 100 100 100 100 100 100 100 100 100 100 100 100 100 100 100 100 100 100
0 14 100 100 100 100 100 100 100 100 100 100 100 100 100 99 32 45 26 5 2 2 0 0 3 15 97 100 100 100 100 100 100 100 100 100 100 100 100 100 100 100 100 100 100 100 100 100 100
0 11 100 100 99 100 100 100 100 100 100 100 100 100 90 100 100 89 22 5 5 4 0 0 0 0 12 100 100 100 100 100 100 100 100 100 100 100 100 100 100 100 100 100 100 100 100 100 100
24 81 100 100 80 100 100 100 100 100 100 100 100 100 100 58 100 96 5 31 18 59 1 0 3 0 0 1 100 100 100 100 100 100 100 100 100 100 100 100 100 100 100 100 100 100 100 100 100

GFSSGP_prec_cloud_105.txt.gz
Cloud_Cover
0 0 0 0 0 0 0 0 0 5 0 0 0 0 0 0 0 0 0 0 0 0 0 0 0 0 0 0 29 12 3 35 27 6 5 5 90 32 14 5 5 5 4 6 88 86 74 100 100
0 0 0 0 0 0 0 1 5 3 0 0 0 0 0 0 0 0 0 0 0 0 0 3 0 0 0 0 64 3 74 18 4 28 17 5 17 26 92 37 72 87 5 100 94 98 100 100 98
0 0 0 0 0 0 0 0 0 0 0 0 0 0 0 0 0 0 0 0 0 0 0 0 0 0 0 0 12 94 100 6 67 5 7 63 99 80 6 6 6 82 95 100 100 99 99 86 65
0 0 0 0 0 0 0 0 0 0 0 0 0 0 0 0 0 0 0 0 0 0 0 0 0 0 0 1 0 5 93 87 100 100 30 100 60 96 98 99 100 100 100 100 69 96 88 100 100
0 0 0 0 0 0 0 0 0 0 0 0 0 0 0 0 0 0 0 0 0 0 0 0 0 0 0 0 0 100 100 100 100 100 100 91 100 100 100 100 100 100 94 71 5 45 92 100 100
0 0 0 0 0 0 0 0 0 0 1 3 0 0 0 0 0 0 0 0 0 0 0 0 0 0 15 60 100 100 100 100 100 100 100 100 100 100 100 100 97 94 100 100 87 15 100 100 100
0 0 0 0 0 0 0 0 0 0 4 6 0 0 0 0 0 0 0 0 0 0 0 0 0 0 100 100 100 100 100 100 100 100 100 100 100 100 100 100 98 99 100 100 100 100 100 100 100
0 0 0 0 0 0 0 0 0 0 3 94 3 5 0 0 0 0 0 0 0 0 0 0 0 99 100 100 100 100 100 100 100 100 100 100 100 100 100 100 100 98 99 100 100 100 100 100 100
0 0 0 0 0 0 0 2 3 0 0 89 72 5 0 0 0 0 0 0 0 0 0 0 0 100 100 100 100 92 100 100 100 100 100 100 100 42 100 97 54 99 100 100 100 100 100 100 100
0 0 0 0 0 0 0 0 1 0 0 59 100 98 2 0 0 0 0 0 0 0 0 0 2 100 100 100 100 76 100 100 100 100 100 100 100 100 100 100 96 100 100 100 100 100 100 100 100
0 0 0 0 0 0 0 0 0 0 0 3 100 100 15 0 0 0 0 0 0 0 0 0 3 10 100 97 100 100 100 100 100 100 100 100 100 100 100 100 81 99 100 100 100 94 98 100 100
0 0 0 0 0 0 0 0 0 0 0 0 49 100 67 1 0 0 0 0 0 0 0 0 0 100 83 100 100 100 100 100 100 100 100 100 100 100 100 100 57 29 96 100 36 42 100 100 100
0 0 80 51 75 69 0 0 0 0 0 0 19 100 100 8 0 5 0 0 0 0 0 0 0 72 100 100 100 100 100 100 100 100 100 100 100 100 100 71 92 11 72 100 100 99 100 100 100
0 41 22 90 100 6 3 0 0 0 0 0 3 100 100 95 0 5 0 0 0 0 0 0 0 60 100 100 100 100 100 100 100 100 100 100 100 100 100 98 100 66 68 76 84 100 100 100 100
8 43 14 100 100 41 62 0 0 72 5 0 0 100 100 94 1 28 5 0 0 0 0 0 0 87 100 100 100 100 100 100 100 100 100 100 100 100 98 86 85 98 74 100 100 100 100 100 100
1 0 0 16 5 5 85 1 5 100 8 2 2 96 100 100 35 100 7 0 0 0 0 0 0 65 100 100 100 100 100 100 100 100 100 100 100 100 89 41 72 100 83 100 48 100 100 95 100
0 0 0 0 0 0 79 17 0 69 5 3 5 98 45 99 100 100 7 0 0 0 0 0 0 100 100 100 100 100 100 100 100 100 100 100 100 100 100 82 76 100 100 100 100 100 100 100 100
0 0 0 0 0 0 0 1 91 23 37 54 13 100 5 100 100 100 100 0 0 0 0 0 4 62 82 100 100 100 100 100 100 100 100 100 100 98 96 80 88 95 99 100 100 100 100 100 99
0 0 0 0 0 0 0 0 5 99 100 96 89 99 82 100 100 100 100 0 0 0 0 0 40 94 71 100 100 100 100 100 100 100 100 100 100 100 100 100 100 78 100 100 100 100 100 100 100
0 0 0 0 0 0 0 0 5 44 60 76 100 92 99 49 100 100 37 0 0 0 0 15 100 100 92 95 100 100 100 100 100 100 100 100 100 100 100 100 100 100 100 100 100 100 100 100 100
0 0 0 0 0 0 0 0 1 93 92 71 100 100 36 94 100 100 3 0 0 0 0 83 100 100 56 100 97 100 100 100 100 100 100 100 100 100 100 100 100 100 100 100 100 100 100 100 100
0 0 0 0 0 0 0 0 5 99 72 89 100 66 67 100 100 99 4 3 0 0 0 80 100 99 80 100 100 100 100 100 100 100 100 100 100 100 100 100 100 100 100 100 100 100 100 100 97
0 0 36 58 1 0 0 3 5 100 99 100 100 100 100 100 100 100 4 3 0 0 0 27 100 100 99 100 100 100 100 100 100 100 100 100 100 100 100 100 100 100 100 100 100 100 100 100 100
0 0 0 37 26 4 3 76 0 100 95 100 100 100 100 100 100 100 3 4 0 0 0 28 100 100 100 100 100 99 100 100 100 100 100 100 100 100 100 100 100 100 100 100 100 100 100 100 100
0 0 3 32 5 0 13 98 0 94 100 100 100 100 100 100 100 100 6 9 0 0 0 0 100 100 100 100 100 100 100 100 100 100 100 100 100 100 100 100 100 100 100 100 100 100 100 100 100
0 0 3 19 5 0 2 100 7 100 100 100 100 100 100 100 100 99 6 25 5 2 0 0 94 100 100 100 100 100 100 100 100 100 100 100 100 100 100 100 100 100 100 100 100 100 100 100 100
2 0 0 92 5 0 22 96 100 69 100 100 100 100 100 92 100 99 5 5 5 4 0 0 9 100 100 100 100 100 100 100 100 100 100 100 100 100 100 100 100 100 100 100 100 100 100 100 100
41 20 0 60 100 57 100 100 100 100 100 100 100 100 100 100 99 100 100 98 20 5 0 7 0 100 96 100 100 100 100 100 100 100 100 100 100 100 100 100 100 100 100 100 100 100 100 100 100
61 5 0 39 68 76 100 100 100 100 100 100 100 100 100 98 79 100 100 100 49 5 5 5 2 45 99 84 81 92 100 100 100 100 100 100 100 100 100 100 100 100 100 100 100 100 100 100 100
89 100 60 97 1 0 98 100 100 100 100 100 100 100 100 100 98 100 100 100 98 5 5 5 5 0 1 62 55 3 100 100 100 100 100 100 100 100 100 100 100 100 100 100 100 100 100 100 100

GFSSGP_prec_cloud_111.txt.gz
Cloud_Cover
0 0 0 0 0 0 0 0 0 0 0 0 0 0 0 0 0 0 0 0 0 8 47 30 24 5 0 0 10 0 0 34 100 100 92 23 0 5 0 0 0 0 85 100 69 98 100 100 73
0 0 0 0 0 0 0 0 0 0 0 0 0 0 0 0 0 0 0 0 0 9 30 38 19 3 0 0 4 30 8 0 19 25 33 54 44 31 5 1 0 4 82 47 100 100 100 100 100
0 0 0 0 0 0 0 0 0 0 0 0 0 0 0 0 0 0 0 0 0 0 18 30 14 1 9 3 3 13 18 66 66 49 25 40 29 13 73 59 5 2 68 100 100 100 100 66 44
0 0 0 0 0 0 0 0 0 0 0 0 0 0 0 0 0 0 0 0 0 1 20 1 0 2 17 20 5 9 4 60 90 100 43 22 44 100 100 36 5 5 82 100 100 99 32 68 5
0 0 0 0 0 0 0 0 0 0 0 0 0 0 0 0 0 0 0 0 0 0 20 5 0 2 16 20 5 9 18 16 65 100 92 91 80 100 100 45 7 8 28 92 100 100 89 0 5
0 0 0 0 0 0 0 0 0 0 0 0 0 0 0 0 0 0 0 0 0 0 0 25 8 0 13 25 24 23 1 11 100 100 100 100 100 100 100 45 98 99 99 98 63 74 26 71 48
0 0 0 0 0 0 0 0 0 0 0 0 0 0 0 0 0 0 0 0 0 2 18 42 38 28 0 19 36 24 2 0 100 100 100 100 100 100 100 87 79 82 100 99 97 55 86 100 13
0 0 0 0 0 0 0 0 0 0 0 0 0 0 0 0 0 0 3 27 0 8 20 45 62 64 68 100 77 17 2 89 100 100 100 99 100 100 100 100 100 100 100 76 16 94 100 25 97
0 0 3 0 0 0 0 0 0 0 0 0 0 0 0 0 0 0 0 98 24 33 18 26 32 33 44 65 95 92 71 100 100 100 100 100 100 100 100 100 99 100 81 86 100 93 100 68 99
0 0 5 0 0 0 0 0 0 0 0 0 0 0 0 0 0 0 0 44 99 8 17 28 24 14 9 21 55 52 99 100 100 100 100 100 97 100 100 100 100 83 88 66 100 100 100 92 34
3 1 5 5 2 0 0 0 0 0 0 0 0 0 0 0 0 2 0 9 100 44 5 34 14 7 10 26 30 38 100 100 100 100 100 100 100 99 97 99 100 100 94 20 99 100 100 100 99
16 9 88 29 64 41 0 0 0 0 0 0 0 0 0 4 5 25 6 0 4 88 5 0 3 2 13 31 46 82 98 100 100 100 100 100 100 100 100 100 100 99 98 48 96 100 100 98 100
100 100 100 100 100 84 5 4 2 16 0 0 0 0 0 0 2 0 5 0 0 100 5 5 3 7 21 39 46 100 100 100 100 100 100 100 100 100 100 100 100 64 93 87 92 100 99 85 100
100 100 100 100 100 100 14 50 70 56 3 0 0 0 0 0 0 0 0 1 0 100 5 5 2 2 34 50 51 74 100 100 100 100 100 100 100 100 100 100 100 70 40 31 100 99 99 100 97
100 100 100 100 100 26 9 92 86 32 5 5 3 0 0 0 0 0 0 0 0 6 5 8 3 7 24 56 19 40 100 100 100 100 100 100 100 100 100 100 100 83 74 5 48 23 77 88 95
100 100 100 100 61 100 12 30 100 5 5 60 5 5 0 0 0 4 0 2 0 3 98 10 0 22 11 47 30 81 100 100 100 100 100 100 100 100 100 100 100 73 57 66 35 56 88 99 38
100 100 100 91 83 69 5 5 100 10 20 45 22 4 0 0 0 5 29 5 4 1 100 11 7 36 28 28 57 100 100 100 100 100 100 100 100 100 100 100 96 56 72 58 59 44 100 94 84
100 100 46 95 100 99 36 50 16 28 85 92 5 5 3 0 0 5 11 55 5 0 100 98 10 26 22 89 100 100 100 100 100 100 100 100 100 100 100 100 100 73 100 100 100 20 100 100 89
83 96 100 100 100 69 36 4 5 84 95 62 5 17 1 0 0 5 59 99 94 6 100 100 29 34 61 100 100 100 100 100 100 100 100 100 100 100 100 100 100 94 100 100 100 93 82 90 100
98 100 100 100 100 12 43 5 100 99 100 11 2 3 0 0 5 6 68 92 100 5 100 100 15 60 41 53 100 100 100 100 100 100 100 100 100 100 100 100 100 100 98 97 57 30 96 62 100
100 100 99 100 100 66 82 15 100 77 82 0 0 0 0 0 11 76 100 92 100 4 96 100 38 79 22 14 79 91 100 100 100 100 100 100 100 100 100 100 100 100 100 97 74 76 75 100 100
100 100 100 100 87 100 96 4 78 100 20 0 2 0 0 0 8 85 100 100 100 4 91 100 41 56 22 18 19 62 100 100 100 100 100 100 100 100 100 100 92 100 100 100 92 100 100 100 100
100 100 100 96 34 13 99 19 94 92 5 2 4 0 0 0 10 50 100 100 92 18 90 93 53 43 12 37 36 10 37 100 100 100 100 100 100 100 100 100 100 100 100 100 100 100 100 99 100
100 100 100 100 100 8 100 12 5 3 20 1 2 0 0 5 5 77 100 84 12 77 100 57 56 26 45 100 52 0 0 50 100 100 100 100 100 100 100 100 100 100 100 100 100 98 100 100 100
100 100 100 99 100 76 86 0 3 31 1 0 0 0 0 91 97 100 100 100 82 79 98 68 77 20 96 100 95 1 0 7 68 100 100 100 100 100 100 100 100 100 100 100 100 100 100 100 100
100 100 100 92 84 34 4 0 4 0 0 0 0 0 0 70 90 100 100 100 92 80 100 100 84 83 100 100 100 99 99 100 98 92 100 100 100 100 100 100 100 100 100 100 100 100 100 100 100
100 100 100 100 25 10 4 1 5 0 0 0 0 1 6 10 94 100 100 100 100 100 100 100 60 94 88 100 100 100 100 100 100 100 100 100 100 100 100 100 100 100 100 100 100 100 100 100 100
100 100 100 100 79 10 4 1 0 0 0 30 34 81 40 62 88 100 100 100 98 88 100 100 37 97 70 100 99 90 100 100 100 100 100 100 100 100 100 100 100 100 100 100 100 100 100 100 100
100 100 98 95 96 5 2 0 0 5 5 5 2 27 30 100 100 100 98 100 93 100 94 85 57 70 48 96 100 58 100 100 100 100 100 100 100 100 100 100 100 100 100 100 100 100 100 100 100
99 100 60 98 100 48 94 12 0 0 0 5 5 4 39 100 100 100 100 100 100 50 100 100 56 52 28 2 71 71 56 100 100 100 100 100 100 100 100 100 100 100 100 100 100 100 100 100 100

GFSSGP_prec_cloud_114.txt.gz
Cloud_Cover
0 0 0 0 0 0 0 0 0 0 0 0 0 0 0 0 0 0 0 0 0 2 11 16 100 100 39 0 10 96 100 100 23 27 20 5 1 9 5 1 1 0 0 94 8 4 5 13 36
0 0 0 0 0 0 0 0 0 0 0 0 0 0 0 0 0 0 0 0 0 7 62 76 100 74 14 0 0 23 100 100 100 86 18 22 9 99 49 76 55 5 100 100 2 0 79 91 35
0 0 0 0 0 0 0 0 0 0 0 0 0 0 0 0 0 0 0 0 0 4 30 72 93 13 19 12 0 10 100 100 100 100 66 75 97 100 46 7 5 18 100 100 94 4 98 100 100
0 0 0 0 0 0 0 0 0 0 0 0 0 0 0 0 0 0 0 0 0 7 19 20 73 23 14 16 0 0 12 74 100 100 97 84 99 98 58 91 100 88 31 74 90 100 99 100 98
0 0 0 0 0 0 0 0 0 0 0 0 0 0 0 0 0 0 0 0 0 8 18 21 58 46 22 26 4 0 0 24 26 0 100 100 100 100 100 100 100 100 98 5 8 99 94 96 96
0 0 0 0 0 0 0 0 0 0 0 0 0 0 0 0 0 0 0 0 0 7 36 26 44 56 8 29 30 36 15 0 0 0 100 100 100 100 100 100 100 51 5 5 34 64 99 39 40
5 0 0 0 0 0 0 0 0 0 0 0 0 0 0 0 0 0 0 0 0 3 35 47 48 75 30 4 27 49 47 12 0 0 100 100 100 100 100 100 100 40 5 41 27 43 8 99 2
5 0 8 51 8 0 0 0 0 0 0 0 0 0 0 0 0 0 0 0 0 1 18 90 81 96 86 60 53 54 59 26 0 20 100 100 100 100 100 100 100 100 100 82 14 44 100 28 5
5 5 100 100 28 0 0 0 0 0 0 0 0 0 0 0 0 0 0 0 2 17 28 81 100 100 100 100 100 44 59 19 0 90 100 100 100 100 100 100 100 100 100 100 90 44 99 33 27
6 7 76 100 72 14 2 0 0 4 2 0 0 0 0 0 0 2 1 5 7 13 28 52 98 100 100 100 100 100 100 92 48 100 100 100 97 100 100 47 100 100 100 100 46 1 45 52 72
100 71 100 100 100 100 39 0 3 62 14 0 4 5 0 0 5 5 4 5 5 5 5 51 46 56 88 100 100 98 100 100 99 100 100 100 100 100 100 100 100 100 100 100 59 100 31 54 77
86 100 100 100 100 100 60 9 100 19 53 38 24 1 0 0 5 0 13 5 5 0 0 32 27 29 24 31 83 100 100 100 100 100 100 100 100 100 100 92 95 94 100 99 100 100 98 99 100
100 100 100 100 100 100 100 100 88 33 78 38 31 6 4 3 4 3 20 7 0 0 0 0 36 24 17 23 41 66 89 100 100 100 100 100 100 100 100 100 100 97 100 100 100 98 50 71 73
100 100 100 100 100 100 100 100 100 100 34 23 95 5 4 0 0 5 32 7 0 0 0 0 24 18 11 30 63 99 89 75 100 100 100 100 100 100 100 100 100 100 100 100 100 99 100 83 66
100 100 100 100 100 100 100 100 100 100 79 100 7 5 4 3 5 5 31 5 0 0 0 1 10 22 8 19 35 99 100 100 100 100 100 100 100 100 100 100 100 100 100 97 99 98 100 100 100
100 100 100 100 100 100 99 89 100 100 100 100 76 47 20 70 5 4 6 5 0 0 1 3 3 32 17 42 43 79 100 100 100 100 100 100 100 100 100 100 100 100 100 100 100 40 100 100 69
100 100 100 100 100 46 79 100 100 100 56 16 94 100 98 82 5 5 44 3 0 1 5 15 30 38 29 43 48 62 86 100 100 100 100 100 100 100 100 100 100 100 100 92 100 94 100 85 14
100 95 34 85 100 100 100 100 100 100 7 97 100 100 100 8 39 45 90 2 0 1 28 9 32 25 25 47 93 99 100 100 100 100 100 100 100 100 100 100 100 100 100 98 93 80 100 18 6
39 100 87 100 100 100 96 8 86 99 100 100 100 100 25 5 53 74 37 0 4 29 96 34 53 44 48 84 100 100 100 100 100 100 100 100 100 100 100 100 100 100 100 100 100 100 100 91 5
97 42 97 100 100 77 58 7 6 100 100 100 100 100 3 5 64 88 23 0 22 42 100 41 16 68 52 89 100 100 100 100 100 100 100 100 100 100 100 100 100 100 100 100 100 100 100 99 97
98 98 98 100 100 100 53 73 100 100 100 100 100 21 5 5 67 97 2 0 10 39 100 74 39 63 99 100 100 100 100 100 100 100 100 100 100 100 100 100 100 100 100 100 100 100 100 99 100
100 96 100 100 99 99 96 30 100 100 100 100 88 5 5 4 49 68 0 0 8 30 52 23 93 95 96 84 100 100 100 100 100 100 100 100 100 100 100 100 100 100 100 100 100 100 99 95 65
100 100 100 88 81 90 98 46 96 100 100 99 97 69 5 0 18 5 0 0 0 80 96 30 100 100 100 89 94 100 100 99 100 100 100 100 100 100 100 100 100 100 100 100 100 100 94 100 100
100 100 100 100 94 11 100 100 96 100 100 88 100 100 3 4 29 4 0 0 5 100 81 96 100 100 100 76 36 53 24 82 100 100 100 100 100 100 100 100 100 100 100 100 100 100 100 100 100
100 100 100 100 100 93 100 81 46 100 100 100 95 35 4 25 5 0 0 0 34 100 100 100 100 100 100 74 48 10 50 96 100 100 100 100 100 100 100 100 100 100 100 100 100 100 99 100 100
100 100 98 63 76 63 100 46 92 100 100 99 15 5 11 87 1 0 0 20 35 90 100 100 100 100 100 60 12 6 28 60 100 100 100 100 100 100 100 100 100 100 100 100 100 100 100 100 100
100 100 100 10 11 5 90 100 100 100 99 20 5 3 19 5 0 0 4 97 98 82 100 100 100 94 100 36 4 86 42 88 91 86 64 99 100 100 100 100 100 100 100 100 100 100 100 100 100
100 100 100 100 100 85 44 49 94 100 82 6 5 4 5 3 0 0 0 97 100 91 98 100 100 100 72 31 9 100 100 100 100 90 45 83 100 100 100 100 100 100 100 100 100 100 100 100 100
100 100 100 100 87 11 23 75 59 100 100 64 4 4 5 0 0 0 2 100 95 81 100 100 100 100 100 32 52 100 100 100 100 82 48 100 100 100 100 100 100 100 100 100 100 100 100 100 100
100 100 100 100 100 100 100 99 100 100 77 2 3 0 0 0 0 44 6 100 79 77 100 100 100 100 100 100 100 100 100 100 100 97 99 100 100 100 100 100 100 100 100 100 100 100 100 100 100

GFSSGP_prec_cloud_117.txt.gz
Cloud_Cover
0 0 0 0 0 0 0 0 0 0 0 0 0 0 0 0 0 0 0 0 0 0 0 0 20 100 58 18 4 83 100 0 1 74 13 3 0 38 37 44 5 2 40 0 0 5 84 18 0
0 0 0 0 0 0 0 0 0 0 0 0 0 0 0 0 0 0 0 0 0 0 0 0 6 100 78 14 23 84 100 94 0 12 2 0 0 0 0 21 53 84 7 1 6 21 39 100 67
0 0 0 0 0 0 0 0 0 0 0 0 0 0 0 0 0 0 0 0 0 0 0 0 0 99 68 14 9 82 100 100 3 0 2 2 5 94 39 91 39 5 6 5 0 2 25 94 100
0 0 0 0 0 0 0 0 0 0 0 0 0 0 0 0 0 0 0 0 0 0 0 17 0 85 83 0 15 100 99 100 66 0 0 41 83 100 100 100 100 100 100 60 3 1 27 54 100
4 1 0 0 0 0 0 0 0 0 0 0 0 0 0 0 0 0 0 0 0 0 0 48 41 19 73 1 11 66 100 100 80 2 0 95 100 100 100 100 100 100 72 99 100 8 4 79 43
5 5 0 0 0 0 0 0 0 0 0 0 0 0 0 0 0 0 0 0 0 0 6 32 100 12 31 0 0 25 84 100 55 1 0 100 100 100 100 100 100 100 100 96 9 100 83 31 8
18 5 5 4 2 0 0 0 0 0 0 0 0 0 0 0 0 0 0 0 0 0 0 23 100 100 17 1 1 0 33 78 5 0 0 1 100 100 100 100 100 100 100 34 5 5 91 19 4
12 4 6 51 16 5 0 0 0 0 0 0 0 1 0 0 0 0 0 0 0 0 1 30 100 100 63 84 20 26 4 11 0 0 0 0 78 100 100 100 100 100 100 100 67 53 3 23 2
38 5 5 88 25 5 1 0 3 2 2 0 0 1 2 0 0 0 1 0 1 0 5 57 100 100 100 95 95 75 75 0 3 0 0 47 100 64 100 53 100 99 100 100 100 97 3 0 4
68 34 97 99 74 24 5 4 5 5 99 39 0 5 6 0 1 4 5 5 4 5 5 90 100 100 100 100 100 84 100 66 11 43 0 100 100 100 98 98 100 93 97 100 100 100 22 0 4
99 36 100 100 100 100 100 99 8 5 87 58 5 5 5 0 5 0 5 6 92 18 5 23 100 100 100 100 100 100 100 98 85 64 43 100 100 100 100 83 100 81 94 100 100 100 86 58 61
36 100 100 100 100 100 100 98 100 33 100 100 100 100 16 1 5 5 5 25 82 76 5 5 74 100 100 100 100 100 100 100 100 100 58 100 100 100 96 100 100 90 100 95 100 85 75 74 35
100 100 100 100 100 99 100 100 100 77 100 100 96 98 96 5 5 4 5 23 100 29 13 5 7 65 100 100 100 100 100 100 100 100 97 100 100 100 100 100 100 97 100 99 100 95 97 91 90
100 100 100 100 100 100 100 100 98 100 100 38 100 100 98 21 5 5 53 17 89 5 39 5 0 25 60 88 100 100 100 100 100 100 100 100 100 100 100 100 100 100 100 100 90 100 100 100 100
1 1 6 66 100 100 100 100 100 100 100 100 100 100 92 16 5 1 5 5 78 38 72 11 0 10 34 48 46 94 100 100 97 97 100 100 100 100 100 100 100 100 100 100 100 98 95 100 98
5 5 23 73 100 100 100 98 100 100 100 100 100 99 92 100 5 4 0 28 100 63 49 5 0 6 21 35 26 100 100 97 92 40 100 100 100 100 100 100 100 100 100 100 100 99 100 100 100
8 96 90 38 100 84 55 100 100 100 100 100 100 100 100 100 8 1 2 64 100 69 34 1 0 4 10 36 36 94 100 100 99 96 100 100 100 100 100 100 100 100 100 100 100 100 99 100 100
100 100 44 6 24 9 5 32 48 100 100 100 100 100 100 100 13 2 9 48 6 86 57 0 0 7 20 52 72 100 100 100 100 100 100 100 100 100 100 100 100 100 100 100 100 100 48 100 100
100 44 5 5 55 73 66 32 5 58 100 100 100 100 100 58 1 5 13 5 35 72 62 0 7 54 73 100 100 100 100 100 100 100 100 100 100 100 100 100 100 100 100 100 100 93 98 100 100
100 100 97 39 98 70 52 73 5 89 90 100 100 100 100 13 4 21 15 24 95 84 12 10 31 100 63 81 100 81 100 100 100 100 100 84 100 100 100 100 100 100 100 100 100 99 92 100 83
100 100 100 100 100 94 12 12 5 96 100 100 100 100 100 11 8 5 34 7 78 15 5 32 51 100 96 79 92 62 36 90 100 100 100 94 100 100 100 100 100 100 100 100 100 100 100 100 86
100 100 100 100 100 68 4 5 42 100 100 100 100 100 98 13 5 5 22 56 40 80 4 26 95 100 100 70 45 43 37 91 100 100 100 100 100 100 100 100 100 100 100 100 100 100 100 100 100
100 100 100 96 25 94 18 3 95 100 100 100 100 100 100 100 38 5 4 16 100 57 1 45 100 100 100 57 100 39 21 100 100 93 100 100 100 100 100 100 100 100 100 100 100 100 100 100 100
100 100 100 100 100 5 78 12 10 68 100 100 100 100 69 4 1 4 4 53 40 41 75 92 100 100 100 100 100 70 38 100 97 98 100 100 100 100 100 100 100 100 100 100 100 100 100 100 100
100 100 100 100 62 19 79 60 87 100 100 100 100 100 22 78 5 4 4 14 18 20 99 100 100 100 100 100 100 100 100 94 67 99 100 100 100 100 100 100 100 100 100 100 100 100 100 100 100
100 100 100 100 100 100 100 95 41 97 100 100 100 100 100 100 35 5 5 95 8 2 12 100 100 100 100 100 100 100 77 52 65 59 93 100 100 100 100 100 100 100 100 100 100 100 100 100 100
100 99 98 100 100 66 92 94 100 100 100 100 100 100 98 100 30 5 5 46 5 1 0 9 100 100 100 100 100 90 96 85 100 86 100 100 100 100 100 100 100 100 100 100 100 100 100 100 100
100 100 100 100 100 44 62 79 100 100 100 100 100 100 100 100 100 18 5 5 5 0 0 11 100 100 100 100 100 75 84 74 100 100 100 100 100 100 100 100 100 100 100 100 100 100 100 100 100
100 100 100 100 100 94 23 97 99 100 76 81 100 41 5 5 5 7 5 7 5 39 55 100 100 100 100 100 100 86 54 95 100 100 100 98 58 100 100 100 100 100 100 100 100 100 100 100 100
100 100 100 100 100 99 10 36 100 84 67 61 56 9 5 6 60 81 76 92 5 97 100 100 100 100 100 100 100 80 99 100 100 100 100 100 100 100 100 100 100 100 100 100 100 100 100 100 100

GFSSGP_prec_cloud_120.txt.gz
Cloud_Cover
0 0 0 0 0 0 0 0 0 0 0 0 0 0 0 0 0 0 0 0 0 0 0 1 0 0 0 20 1 0 0 0 0 0 0 1 0 0 9 1 3 50 2 0 1 7 22 99 11
0 0 0 0 0 0 0 0 0 0 0 0 0 0 0 0 0 0 0 0 0 0 0 0 0 0 15 0 0 7 54 23 0 92 0 0 0 0 0 9 9 25 3 5 0 12 40 23 40
0 0 0 0 0 0 0 0 0 0 0 0 0 0 0 0 0 0 0 0 0 0 0 0 0 0 61 0 0 15 100 23 3 100 1 0 0 58 96 99 70 18 90 96 8 24 14 4 97
0 0 0 0 0 0 0 0 0 0 0 0 0 0 0 0 0 0 0 0 0 0 0 40 0 0 22 0 0 1 98 96 2 26 0 0 0 100 100 100 100 100 100 100 100 50 22 2 4
0 0 0 0 0 0 0 0 0 0 0 0 0 0 0 0 0 0 0 0 0 0 0 0 0 0 17 14 0 0 91 100 57 1 0 0 0 24 100 100 100 100 100 100 90 97 19 1 0
0 0 0 0 0 0 1 0 0 0 0 0 0 0 0 0 0 0 0 0 0 0 0 0 2 0 1 10 6 56 85 78 81 0 0 3 0 53 100 100 100 100 100 100 90 38 5 14 5
0 0 0 0 5 5 4 0 0 0 0 0 0 0 0 0 0 0 0 0 0 0 0 0 1 22 49 0 14 18 97 60 32 0 0 0 5 82 100 100 100 100 100 100 98 57 5 66 2
0 0 0 8 100 84 5 0 0 0 0 3 5 0 0 0 0 9 6 3 0 0 0 0 10 96 46 42 11 18 39 3 0 0 0 0 2 22 100 100 100 100 100 100 100 56 7 99 82
5 2 6 82 100 98 5 0 0 0 0 4 6 5 4 66 1 49 46 1 0 0 0 0 0 98 33 100 92 53 30 1 9 8 1 66 0 0 8 100 100 100 100 73 89 84 5 68 82
5 17 89 100 100 74 5 2 0 0 0 5 6 5 5 3 2 7 49 36 0 4 1 0 0 6 61 100 100 80 90 3 6 14 16 0 0 43 31 77 100 100 100 100 96 99 14 71 85
99 39 100 70 100 100 95 82 29 5 5 5 5 5 5 0 73 99 100 88 0 5 5 0 5 4 68 99 91 100 100 23 42 90 48 21 41 51 100 100 100 100 100 79 100 100 96 95 34
100 100 100 100 100 100 100 100 28 100 100 88 5 5 5 5 100 100 100 100 66 5 5 5 11 22 36 100 100 99 33 64 28 44 58 4 17 100 100 100 99 100 63 87 100 100 100 95 5
100 100 100 100 100 100 100 100 100 54 80 100 64 5 5 44 16 30 100 100 7 5 20 5 5 77 82 100 100 100 27 26 44 43 48 20 45 100 100 100 72 100 100 100 100 100 99 71 81
93 100 85 100 100 100 100 100 100 100 100 25 5 48 19 5 5 100 100 100 36 5 5 5 5 5 56 100 100 100 100 47 58 83 68 67 59 96 100 100 98 100 100 100 100 100 98 50 65
52 62 68 6 12 14 100 100 54 100 100 100 100 99 60 14 99 100 100 86 47 5 33 5 5 5 5 60 100 100 100 99 82 100 99 99 65 82 100 100 100 100 100 100 100 100 100 100 99
5 23 33 71 96 100 7 2 2 29 5 55 72 96 100 100 100 57 16 96 6 80 100 5 6 5 5 0 28 98 100 100 100 92 97 89 75 92 98 100 100 100 100 100 100 97 97 100 100
100 95 76 100 10 40 5 5 5 5 76 96 100 100 97 88 66 52 75 45 82 100 20 5 53 39 5 0 4 96 50 100 100 69 90 100 98 100 100 100 100 100 100 100 100 100 100 100 100
100 100 100 100 70 34 5 8 43 53 6 97 100 100 100 100 100 100 100 92 30 42 5 5 76 78 0 0 73 100 94 100 100 54 52 96 100 100 100 100 100 100 100 100 100 100 100 100 100
100 100 100 100 100 100 100 92 76 5 5 48 100 100 89 20 71 98 74 96 97 50 5 51 100 10 0 3 99 100 100 100 100 100 78 45 69 100 100 100 100 100 100 100 100 100 100 100 94
100 100 100 100 100 100 100 100 21 25 82 89 90 100 100 98 20 6 85 53 17 56 5 5 76 5 0 74 100 100 100 100 100 95 89 87 100 95 93 100 100 100 100 100 100 100 100 100 100
98 100 100 100 100 100 99 100 100 43 78 49 89 100 100 100 70 99 100 100 100 82 45 5 5 3 14 16 100 100 100 100 100 100 75 65 50 99 100 100 100 100 100 100 100 100 100 100 100
100 100 100 100 100 100 95 92 100 100 100 100 99 100 96 90 61 99 100 98 100 39 5 51 20 0 99 82 100 100 47 53 30 57 91 100 100 84 98 100 100 100 100 100 100 100 100 97 90
100 100 100 100 100 100 51 29 100 100 100 100 100 100 91 22 41 100 100 61 100 100 18 56 51 40 100 100 100 100 70 32 36 51 92 100 100 72 100 100 100 100 100 100 100 100 100 100 100
100 100 100 100 100 100 100 90 100 100 100 100 100 100 95 49 82 78 72 99 100 100 77 36 78 100 100 100 100 100 98 59 59 99 92 98 100 100 100 100 100 100 100 100 100 100 100 100 100
100 100 100 100 100 100 100 100 100 99 100 100 100 100 100 57 96 99 95 36 51 97 100 100 47 100 100 100 100 100 100 94 78 89 93 91 100 100 100 100 100 100 100 100 100 100 100 100 100
100 100 100 100 100 100 100 100 100 100 100 100 100 100 79 13 50 86 53 96 80 100 100 100 8 99 100 100 100 100 73 100 68 92 100 89 100 100 100 100 100 100 100 100 100 100 100 100 100
100 100 100 100 100 100 100 91 100 100 100 100 100 100 100 100 100 100 32 5 5 5 98 100 8 93 100 100 100 100 100 100 100 81 100 100 90 100 100 100 100 100 100 100 100 100 100 100 100
100 100 100 100 100 100 100 100 100 58 100 100 100 100 100 100 100 98 8 47 23 84 100 100 97 100 100 77 100 100 100 97 87 79 77 83 75 100 100 100 100 100 100 100 100 100 100 100 100
100 100 100 100 100 100 100 100 100 100 100 100 100 100 100 100 100 100 91 62 100 100 100 24 58 100 100 100 100 100 100 100 96 60 84 93 72 98 100 100 100 100 100 100 100 100 100 100 100
100 100 100 100 100 100 100 100 100 100 88 48 74 55 100 100 100 100 100 100 100 45 21 13 25 100 100 100 100 100 100 100 100 80 100 100 100 67 100 100 100 100 100 100 100 100 100 100 100

GFSSGP_prec_cloud_123.txt.gz
Cloud_Cover
0 0 0 0 0 0 0 0 0 0 0 0 0 0 0 0 0 0 0 0 0 0 0 1 0 0 0 0 0 0 0 0 0 0 0 0 0 0 0 0 1 4 0 5 1 4 17 23 5
0 0 0 0 0 0 0 0 0 0 0 0 0 0 0 0 0 0 0 0 0 0 0 0 0 0 0 0 0 0 4 0 0 0 0 0 0 0 22 5 8 92 59 43 17 1 1 10 5
0 0 0 0 0 0 0 0 0 0 0 0 0 0 0 0 0 0 0 0 0 0 0 0 0 0 0 0 0 0 0 14 0 0 0 0 0 0 74 50 100 100 100 100 100 83 33 12 2
0 0 0 0 0 0 0 0 0 0 0 0 0 0 0 0 0 0 0 0 0 0 0 41 0 0 0 0 0 0 0 53 0 70 1 0 0 0 5 100 100 100 100 100 100 100 100 100 100
0 0 0 0 1 4 0 0 0 0 0 0 0 0 0 0 0 0 0 0 0 0 0 0 0 0 0 0 0 0 29 44 0 94 8 0 0 0 85 100 100 100 100 100 100 100 100 100 88
5 1 1 5 9 5 2 4 0 1 0 0 0 0 0 0 0 0 0 0 0 0 0 0 16 0 0 0 0 0 21 100 88 60 3 0 0 0 64 98 100 100 100 100 100 100 100 42 14
8 5 8 71 100 6 5 4 2 0 0 0 0 0 0 0 0 0 0 0 0 0 0 0 0 0 4 0 0 0 63 100 100 28 0 0 0 0 0 100 100 100 100 100 100 100 100 72 5
100 83 99 90 100 20 3 1 3 0 0 0 0 0 0 0 0 0 3 3 56 37 5 5 0 0 0 3 11 0 33 98 100 14 0 0 3 0 0 68 100 100 100 100 99 100 100 15 5
66 21 83 100 16 12 0 0 0 0 0 0 18 5 3 0 0 0 3 18 5 84 100 100 3 0 0 1 6 53 19 1 56 31 5 74 10 8 2 2 79 100 100 100 100 100 98 31 5
24 5 14 48 15 5 4 0 0 0 3 0 5 60 6 5 4 0 6 5 81 100 100 100 95 7 3 7 4 10 17 0 0 10 16 37 15 48 46 6 3 100 100 91 100 100 99 100 7
9 21 78 58 58 33 96 12 76 3 1 0 0 1 5 29 5 5 5 5 5 54 100 100 100 96 6 37 94 17 0 7 9 16 16 17 2 10 6 19 84 8 100 100 100 100 97 100 89
44 95 87 100 100 100 100 100 100 100 100 100 100 51 0 8 100 100 6 5 98 10 94 100 100 100 21 10 100 35 1 0 3 16 2 10 0 17 46 13 100 99 6 100 100 100 100 100 100
50 100 100 100 100 100 100 100 100 100 100 100 86 24 8 5 52 21 5 45 24 7 88 100 100 100 8 20 84 99 0 19 0 3 4 2 22 13 13 67 100 100 94 100 100 100 100 100 86
5 5 39 100 100 100 100 100 100 100 100 100 100 85 84 63 58 5 26 81 81 42 100 100 100 66 15 10 93 99 0 2 0 1 1 20 23 31 34 49 100 100 100 100 100 100 100 100 90
5 4 4 65 100 100 100 100 100 100 100 100 100 100 100 95 91 98 100 100 69 100 99 99 100 6 13 100 100 100 17 0 0 0 1 34 0 26 65 17 100 100 100 100 100 100 100 100 91
11 24 21 62 86 98 90 95 100 92 3 3 42 5 77 82 100 100 100 100 100 99 70 95 94 10 96 78 62 100 100 73 3 26 59 61 40 46 37 36 100 93 100 100 100 100 100 100 100
9 16 72 100 98 100 100 100 29 26 56 5 20 3 1 1 0 5 54 5 19 35 90 100 100 100 19 22 5 11 76 100 100 27 65 100 78 46 70 30 57 87 100 100 100 100 100 100 100
99 100 100 87 100 100 100 100 100 90 17 98 76 5 6 5 5 2 3 100 100 99 100 100 100 100 100 100 16 6 88 53 99 99 28 77 70 100 94 100 85 82 100 100 100 100 100 100 100
100 100 99 100 100 100 99 100 100 100 100 57 9 5 10 5 5 5 5 5 68 100 100 100 100 100 100 100 68 0 40 93 98 100 44 90 95 58 69 100 100 100 100 100 100 100 100 100 100
100 100 100 100 100 100 100 80 100 100 100 100 100 96 44 7 5 5 5 57 78 94 54 100 83 100 100 100 72 2 63 92 100 100 97 82 100 100 40 100 100 100 100 100 100 100 100 100 100
85 70 100 100 100 100 100 100 100 100 100 100 100 100 100 100 87 5 22 28 20 5 97 100 100 100 100 96 93 66 100 95 100 100 100 97 100 95 65 91 100 100 100 100 100 100 100 100 100
56 94 100 100 100 100 100 100 100 100 100 100 100 100 100 99 73 100 44 28 18 74 5 26 100 100 100 60 89 24 100 100 100 100 100 100 90 86 100 74 71 100 100 100 100 100 100 100 100
3 100 100 100 100 100 100 100 100 100 100 100 100 100 100 100 100 100 100 96 100 100 8 37 100 100 100 97 67 75 100 100 97 100 46 96 40 99 100 44 99 100 100 100 100 100 100 100 100
73 100 100 98 100 97 100 100 100 100 100 100 100 100 100 100 100 100 100 100 100 100 100 100 100 10 97 100 37 98 100 71 100 100 100 83 41 91 100 89 81 100 100 100 100 100 100 100 100
54 100 100 100 100 19 100 100 100 100 100 100 100 100 100 100 100 100 100 100 100 100 81 100 86 100 97 100 100 100 100 100 100 100 59 40 100 100 100 96 100 100 100 100 100 100 100 100 100
100 100 100 100 100 100 100 100 100 100 100 100 100 100 100 100 99 100 100 100 100 84 86 92 81 59 93 100 98 100 100 100 100 100 100 100 69 96 100 100 100 100 100 100 100 100 100 100 100
47 84 47 100 100 100 100 100 100 100 100 100 100 100 100 100 100 100 100 100 100 100 19 38 89 100 100 100 73 66 100 100 100 88 100 100 100 76 95 100 100 100 100 100 100 100 100 100 100
90 69 100 100 100 77 100 100 100 100 87 100 100 100 100 100 100 100 100 100 96 96 91 100 100 98 70 98 100 94 100 100 100 72 55 95 96 100 87 100 100 100 100 100 100 100 100 100 100
70 99 98 100 98 100 100 100 100 100 100 100 100 100 100 100 100 100 100 100 100 100 99 99 34 97 99 100 97 94 100 100 100 100 100 83 100 88 100 100 100 100 100 100 100 100 100 100 100
100 100 100 100 67 100 100 100 100 100 100 100 100 100 91 100 100 100 100 100 89 100 100 100 100 100 100 100 80 100 100 100 100 100 100 99 100 84 80 100 100 100 100 100 100 100 100 100 100

GFSSGP_prec_cloud_126.txt.gz
Cloud_Cover
0 0 0 0 0 0 0 0 0 1 0 0 0 0 3 3 0 3 0 0 0 0 0 0 0 0 0 0 0 0 0 0 0 0 0 0 0 0 0 0 0 2 5 88 96 33 0 4 1
0 0 0 0 0 0 0 0 0 0 0 0 0 0 0 0 0 0 0 0 0 0 0 0 0 0 0 0 0 0 0 0 0 0 0 0 0 0 0 0 10 100 100 100 100 100 100 98 78
0 0 0 0 0 0 0 1 66 0 0 0 0 0 0 0 0 0 0 0 0 0 0 0 0 0 0 0 0 0 0 0 0 0 0 0 0 0 0 0 88 100 100 100 100 100 100 100 100
0 0 0 0 0 0 0 0 0 0 0 0 0 0 0 0 0 0 0 0 0 0 0 0 0 0 0 0 0 0 10 12 0 0 0 0 0 0 0 0 100 100 100 100 100 100 100 100 100
0 0 0 0 0 0 0 0 0 1 0 0 0 0 0 0 0 0 0 0 0 0 0 0 0 0 0 0 0 0 0 91 0 0 0 0 0 0 0 0 100 100 100 100 100 100 100 100 100
5 8 4 5 3 0 0 0 5 6 5 4 2 1 2 0 0 0 0 0 0 0 0 0 0 0 0 0 0 0 0 39 0 94 83 0 0 0 0 0 94 100 100 100 100 100 100 100 100
1 13 5 12 32 46 23 4 5 6 19 9 5 19 6 0 0 2 0 0 0 0 0 0 4 2 32 5 5 1 0 76 0 46 100 0 0 0 0 0 65 100 100 100 100 100 100 100 100
0 5 53 100 100 94 63 4 0 9 49 5 36 85 4 0 5 81 0 0 0 0 0 0 13 97 100 9 100 5 0 79 92 100 25 0 0 0 0 0 36 100 100 100 100 100 100 100 100
0 0 4 94 98 100 31 4 0 8 44 6 10 100 2 0 1 63 0 3 0 0 0 0 19 39 46 100 100 58 1 51 100 100 69 75 0 0 0 0 0 100 100 100 100 100 100 100 100
0 0 0 23 17 11 14 4 2 3 34 10 5 50 84 4 1 0 5 0 0 0 0 0 5 2 77 100 100 9 9 8 79 92 98 48 8 0 0 1 0 68 84 100 100 100 100 100 100
0 1 0 0 0 32 47 9 5 21 2 24 4 59 81 48 0 5 6 3 1 90 100 27 5 1 43 100 80 44 94 5 0 0 9 2 0 13 0 2 5 5 5 100 100 100 100 100 100
1 3 3 5 3 0 1 5 87 88 78 86 100 100 100 100 100 100 100 24 0 45 82 30 7 8 13 100 100 100 32 0 0 0 0 0 0 0 0 1 100 24 80 100 100 100 100 100 100
2 5 5 11 18 3 0 7 100 80 85 79 53 67 74 100 100 100 100 100 39 8 3 1 100 78 68 100 100 70 5 1 2 0 0 0 0 0 0 22 82 100 90 77 93 97 100 100 100
5 5 5 5 17 5 5 3 4 99 100 100 100 40 95 10 17 72 99 76 100 92 34 0 88 100 100 100 100 97 26 5 2 0 0 0 0 0 0 0 12 40 100 100 100 100 100 100 100
20 5 5 5 5 37 32 36 2 40 99 77 100 100 98 100 89 80 77 100 100 100 80 62 99 100 100 100 73 100 100 100 4 0 0 0 0 0 0 0 0 5 100 100 99 100 100 100 100
95 5 4 40 5 5 100 1 97 100 100 59 67 100 100 100 100 100 100 92 100 100 100 100 100 100 100 30 75 100 100 100 67 14 0 0 0 0 0 1 0 7 100 100 100 100 100 100 100
98 5 1 2 65 88 100 14 5 100 100 100 69 27 96 100 100 100 7 4 5 7 48 29 25 4 19 73 86 100 100 100 53 43 36 0 0 0 0 0 3 3 90 100 100 100 100 100 100
2 5 0 0 1 100 100 78 5 100 100 100 100 95 37 26 45 73 5 3 0 14 6 40 100 70 97 100 100 93 100 100 52 5 76 5 0 36 10 11 30 41 74 100 100 100 100 100 100
0 8 5 0 17 100 100 92 6 74 100 100 100 100 100 100 92 5 5 0 5 84 28 5 5 39 16 29 74 20 92 100 100 7 87 100 47 1 14 67 100 100 100 86 100 100 100 100 100
0 8 0 0 5 100 100 7 100 100 100 100 100 100 100 100 100 100 100 69 62 5 6 7 100 99 58 11 51 100 100 100 83 23 60 100 100 46 82 99 100 100 100 100 99 100 100 100 100
4 1 0 40 66 100 74 6 100 100 100 100 100 100 100 100 100 100 45 100 100 97 11 22 42 45 5 30 77 89 100 100 100 100 100 68 100 100 100 91 82 100 100 100 100 98 100 100 100
1 3 75 93 59 77 90 16 99 100 100 100 100 100 100 100 100 100 100 100 100 100 100 99 84 19 94 100 14 87 94 100 93 99 100 100 100 100 100 100 93 99 100 100 100 100 100 100 100
0 50 75 100 100 100 33 50 67 100 100 100 100 100 100 100 100 100 91 100 100 100 100 100 65 42 25 100 100 83 100 41 100 95 100 100 100 100 100 100 92 95 100 100 100 100 95 100 100
4 21 82 96 95 84 1 94 1 83 100 100 100 100 100 100 100 100 100 100 89 100 100 100 100 100 100 100 100 100 100 96 84 100 100 100 100 100 100 100 49 100 100 100 100 100 100 100 100
100 93 53 100 87 17 90 79 0 53 100 100 100 100 100 100 100 100 100 100 100 100 100 100 99 100 100 100 100 82 99 100 91 30 100 100 100 100 98 81 97 97 100 100 100 100 100 100 100
30 37 100 98 48 20 99 76 2 49 100 100 100 100 100 100 100 100 100 100 100 100 100 100 100 100 100 100 100 100 96 100 100 100 100 95 90 73 100 98 100 100 99 100 100 100 100 100 100
98 73 90 88 71 20 78 64 5 5 100 100 100 100 100 100 100 100 100 100 100 100 100 100 73 100 100 100 100 100 100 100 100 100 100 100 84 58 82 100 100 100 100 100 100 100 100 100 100
100 83 98 100 75 80 5 7 81 35 100 100 100 100 100 100 100 100 100 100 100 100 100 100 83 96 100 100 100 100 92 100 100 100 100 99 100 100 87 84 100 90 94 100 100 100 100 100 100
100 100 72 62 97 83 22 67 69 64 100 100 100 100 100 100 100 100 100 100 100 100 100 100 63 64 99 100 100 100 98 100 100 100 100 100 73 25 99 40 100 100 100 100 100 100 100 100 100
96 98 100 100 98 100 85 100 99 13 100 100 100 100 100 100 100 100 100 100 100 100 95 100 57 100 99 100 79 100 100 100 100 100 100 100 100 75 100 83 100 100 100 100 100 100 100 100 100